     2.11           OBSERVATION DATA    G (GPS)             RINEX VERSION / TYPE
teqc 2010Oct21 OPUS Account 20111025 18:31:58UTC            PGM / RUN BY / DATE
L 1521                                                      MARKER NAME
1145                                                        MARKER NUMBER
CSMIDDLETON NGS                                             OBSERVER / AGENCY
0220390627 TRIMBLE R7 2.32                                  REC # / TYPE / VERS
60124849 TRM41249.00 NONE                                   ANT # / TYPE
  -737537.8047 -5467180.8511  3190576.2430                  APPROX POSITION XYZ
        2.0010        0.0000        0.0000                  ANTENNA: DELTA H/E/N
     1     1                                                WAVELENGTH FACT L1/2
     5    L1    L2    C1    P1    P2                        # / TYPES OF OBSERV
    15                                                      LEAP SECONDS
  2011     7    26     0     0   30.0000000     GPS         TIME OF FIRST OBS
                                                            END OF HEADER
 11  7 26  0  0 30.0000000  0  8G10G17G28G09G04G20G27G02
  -6015832.05156  -4219640.14553  23758567.4844                   23758571.1684
 -44977567.69558 -35010488.83256  21168316.5784                   21168314.7734
 -53566558.44558 -41674450.37955  21564632.3054                   21564631.0354
 -16715471.99657 -12994695.03955  22166855.2344                   22166854.4184
 -38677352.05558 -30104170.27356  19871564.2664                   19871562.3984
 -11540621.44956  -8697566.14853  23997874.7194                   23997874.2034
 -25311135.98457 -19693561.53955  22351571.9694                   22351571.1024
 -16919992.20358 -13153143.64155  22490331.6884                   22490329.5984
 11  7 26  0  1  0.0000000  0  8G10G17G28G09G04G20G27G02
  -6153777.37546  -4327129.74643  23732317.6644                   23732320.9694
 -44991673.86748 -35021480.66046  21165632.0164                   21165630.4924
 -53565275.80548 -41673450.97745  21564876.3204                   21564874.5434
 -16796699.73847 -13057989.36745  22151397.7194                   22151397.5434
 -38745467.16848 -30157246.96546  19858602.5234                   19858600.7664
 -11558087.71146  -8711176.22743  23994550.9774                   23994550.8324
 -25372989.18047 -19741758.82445  22339801.4454                   22339800.6024
 -17048149.01647 -13253005.97345  22465944.0084                   22465942.4344
 11  7 26  0  1 30.0000000  0  8G10G17G28G09G04G20G27G02
  -6291669.55146  -4434577.89843  23706077.1334                   23706080.0784
 -45005615.82048 -35032344.52746  21162979.3134                   21162976.9654
 -53563562.98848 -41672116.36345  21565202.4844                   21565200.6954
 -16877245.12147 -13120751.98845  22136070.6414                   22136069.8794
 -38812947.15248 -30209828.75046  19845761.5554                   19845759.8674
 -11574989.76646  -8724346.69543  23991334.9774                   23991334.2464
 -25434290.69147 -19789526.24645  22328136.2974                   22328135.8754
 -17175978.68747 -13352613.40645  22441618.2584                   22441616.4184
 11  7 26  0  2  0.0000000  0  8G10G17G28G09G04G20G27G02
  -6429502.51246  -4541979.98843  23679849.0314                   23679850.6134
 -45019391.15248 -35043078.55146  21160357.6334                   21160356.0434
 -53561416.28948 -41670443.67645  21565610.7894                   21565608.9534
 -16957104.54747 -13182980.09545  22120873.8984                   22120873.8404
 -38879789.27348 -30261913.50046  19833041.9064                   19833040.0274
 -11591325.32046  -8737075.72743  23988226.1644                   23988226.1764
 -25495037.67648 -19836861.55545  22316576.0634                   22316575.7584
 -17303477.13347 -13451962.71945  22417356.4304                   22417354.5474
 11  7 26  0  2 30.0000000  0  8G10G17G28G09G04G20G27G02
  -6567283.33246  -4649341.40243  23653629.4144                   23653632.1844
 -45033010.02348 -35053690.65646  21157765.9144                   21157764.2274
 -53558846.43448 -41668441.24245  21566099.8834                   21566098.4184
 -17036286.69547 -13244680.44545  22105805.9774                   22105805.1564
 -38946003.09448 -30313508.65646  19820441.5474                   19820440.1884
 -11607104.53946  -8749371.21543  23985223.1094                   23985223.5664
 -25555239.41047 -19883771.98845  22305119.7034                   22305119.8554
 -17430652.32047 -13551060.14845  22393155.7424                   22393154.2074
 11  7 26  0  3  0.0000000  0  8G10G17G28G09G04G20G27G02
  -5129584.39846  -3529056.25843  23927214.0474                   23927217.3094
 -43471052.58648 -33836580.96546  21454996.9304                   21454995.0314
 -51980433.22348 -40438508.92645  21866461.9454                   21866460.4024
 -15539367.92247 -12078250.20745  22390660.1954                   22390659.6564
 -37436166.39148 -29137012.51246  20107754.1094                   20107752.8364
 -10046907.16846  -7533633.02343  24282118.8524                   24282118.9344
 -24039473.95347 -18702656.05945  22593561.0164                   22593560.4024
 -15982078.94547 -12422301.55545  22668810.2194                   22668808.2424
 11  7 26  0  3 30.0000000  0  8G10G17G28G09G04G20G27G02
  -5267261.77046  -3636337.08643  23901014.8204                   23901017.5234
 -43484370.37148 -33846958.45346  21452462.4534                   21452460.6094
 -51977026.02348 -40435854.01245  21867110.8524                   21867108.8094
 -15617202.74647 -12138900.69945  22375848.6804                   22375848.7704
 -37501133.85248 -29187636.50846  20095390.9614                   20095389.4614
 -10061584.49646  -7545069.85543  24279326.1724                   24279325.9104
 -24098595.14847 -18748724.52345  22582310.6564                   22582309.6804
 -16108613.90247 -12520900.09445  22644731.5704                   22644729.5554
 11  7 26  0  4  0.0000000  0  8G10G17G28G09G04G20G27G02
  -5404885.07046  -3743575.76643  23874825.9924                   23874828.2304
 -43497540.32448 -33857220.75446  21449956.3284                   21449954.3754
 -51973201.68748 -40432874.06645  21867838.4694                   21867836.6134
 -15694364.51247 -12199026.71945  22361165.4694                   22361165.1454
 -37565480.16048 -29237776.48446  20083146.2114                   20083144.7234
 -10075713.59846  -7556079.54343  24276637.5314                   24276636.7194
 -24157177.88747 -18794373.42245  22571162.6254                   22571161.9614
 -16234828.47347 -12619248.99245  22620713.0394                   22620711.6294
 11  7 26  0  4 30.0000000  0  8G10G17G28G09G04G20G27G02
  -5542454.00446  -3850772.10943  23848647.1954                   23848649.5664
 -43510565.74647 -33867370.42646  21447477.5474                   21447475.5394
 -51968963.09448 -40429571.30545  21868645.1174                   21868642.9804
 -15770855.10247 -12258629.75845  22346610.1174                   22346609.6414
 -37629208.07448 -29287434.59446  20071019.4534                   20071018.0434
 -10089297.86746  -7566664.68043  24274052.0704                   24274051.8714
 -24215224.85547 -18839604.84045  22560116.9844                   22560115.9774
 -16360724.13348 -12717349.38345  22596755.9924                   22596754.5394
 11  7 26  0  5  0.0000000  0  8G10G17G28G09G04G20G27G02
  -5679974.42246  -3957930.65243  23822477.9774                   23822480.2464
 -43523456.06648 -33877414.84046  21445024.6804                   21445022.6374
 -51964318.41048 -40425952.12145  21869528.8914                   21869526.8984
 -15846682.37947 -12317715.91845  22332180.4694                   22332179.5664
 -37692326.53148 -29336617.78946  20059008.4224                   20059006.9774
 -10102346.47346  -7576832.48843  24271569.4694                   24271568.2664
 -24272744.65248 -18884425.47745  22549171.1024                   22549170.4694
 -16486308.42247 -12815207.14545  22572858.3674                   22572856.1804
 11  7 26  0  5 30.0000000  0  8G10G17G28G09G04G20G27G02
  -5817433.71546  -4065041.55143  23796320.3524                   23796322.5204
 -43536201.80548 -33887346.58646  21442599.2814                   21442597.5904
 -51959258.37948 -40422009.27345  21870491.8284                   21870490.1414
 -15921835.95347 -12376277.10945  22317878.9534                   22317878.0124
 -37754826.00448 -29385318.64546  20047115.0634                   20047113.5634
 -10114850.18746  -7586575.62943  24269189.9224                   24269189.6174
 -24329727.56247 -18928827.76245  22538327.6174                   22538327.0274
 -16611570.22748 -12912813.62545  22549021.5084                   22549020.1174
 11  7 26  0  6  0.0000000  0  8G10G17G28G09G04G20G27G02
  -5954824.44946  -4172099.04343  23770175.6334                   23770177.6724
 -43548799.64548 -33897163.09046  21440201.6564                   21440200.1174
 -51953778.47348 -40417739.25445  21871534.3594                   21871532.7894
 -15996310.69547 -12434309.35245  22303707.2194                   22303705.8554
 -37816702.27348 -29433533.89546  20035340.4774                   20035338.6374
 -10126805.35546  -7595891.32843  24266915.3984                   24266914.9104
 -24386169.34048 -18972808.38745  22527586.9774                   22527586.4964
 -16736503.71147 -13010164.28145  22525247.3204                   22525244.9534
 11  7 26  0  6 30.0000000  0  8G10G17G28G09G04G20G27G02
  -6092156.50846  -4279110.80943  23744041.9454                   23744044.0904
 -43561262.91048 -33906874.73046  21437830.5164                   21437828.4414
 -51947891.57048 -40413152.10245  21872654.9614                   21872652.9884
 -16070118.84047 -12491822.16445  22289661.6254                   22289660.6524
 -37877968.73448 -29481273.96946  20023681.6174                   20023680.3674
 -10138225.14546  -7604789.85943  24264741.7274                   24264741.3014
 -24442082.77348 -19016377.31645  22516947.4144                   22516946.6214
 -16861120.71147 -13107268.32445  22501533.5784                   22501531.6054
 11  7 26  0  7  0.0000000  0  8G10G17G28G09G04G20G27G02
  -6229425.29346  -4386073.30143  23717920.3134                   23717922.5164
 -43573590.10948 -33916480.36346  21435484.5004                   21435482.6564
 -51941595.83648 -40408246.37145  21873853.2034                   21873851.5044
 -16143257.74247 -12548813.48444  22275743.4534                   22275742.5474
 -37938623.49248 -29528537.39546  20012139.5004                   20012137.9694
 -10149108.73446  -7613270.57843  24262670.7424                   24262670.2774
 -24497466.15247 -19059533.21545  22506407.7734                   22506407.3914
 -16985418.07448 -13204123.32445  22477880.6024                   22477878.2384
 11  7 26  0  7 30.0000000  0  8G10G17G28G09G04G20G27G02
  -6366634.52046  -4492989.37143  23691809.9384                   23691812.5864
 -43585788.58648 -33925985.68446  21433163.2734                   21433161.2504
 -51934898.24248 -40403027.50045  21875127.6174                   21875126.0904
 -16215733.72747 -12605288.25045  22261951.7034                   22261950.8874
 -37998673.73448 -29575329.76646  20000712.3834                   20000710.5084
 -10159463.55546  -7621339.26643  24260700.2974                   24260700.0434
 -24552326.39548 -19102281.48845  22495968.3594                   22495967.8054
 -17109401.18748 -13300733.44545  22454287.1644                   22454284.5904
 11  7 26  0  8  0.0000000  0  8G10G17G28G09G04G20G27G02
  -6503781.20746  -4599856.69543  23665711.4224                   23665714.1914
 -43597858.71548 -33935390.99646  21430866.2584                   21430864.5664
 -51927798.56248 -40397495.32445  21876479.0394                   21876477.1724
 -16287545.82447 -12661245.71945  22248286.3594                   22248285.5394
 -38058119.51248 -29621651.12146  19989399.9774                   19989398.4184
 -10169289.71546  -7628996.00843  24258830.7194                   24258829.9884
 -24606663.41048 -19144622.04345  22485628.5164                   22485628.2384
 -17233068.70748 -13397097.67245  22430753.8134                   22430751.4104
 11  7 26  0  8 30.0000000  0  8G10G17G28G09G04G20G27G02
  -6640847.37146  -4706661.30543  23639629.1174                   23639630.6644
 -43609786.09448 -33944685.07446  21428596.4534                   21428594.8284
 -51920282.11348 -40391638.39545  21877908.8984                   21877907.2194
 -16358678.62947 -12716673.85245  22234750.1484                   22234750.1414
 -38116946.32048 -29667490.17246  19978205.5634                   19978204.1804
 -10178573.31646  -7636230.01243  24257064.5864                   24257063.5044
 -24660462.39147 -19186543.34845  22475391.2194                   22475389.8794
 -17356404.40248 -13493203.31645  22407283.8444                   22407281.0904
 11  7 26  0  9  0.0000000  0  8G10G17G28G09G04G20G27G02
  -6777846.82046  -4813413.93443  23613558.3674                   23613560.3594
 -43621588.25848 -33953881.57446  21426350.6724                   21426348.9304
 -51912365.73448 -40385469.82445  21879415.2504                   21879413.8874
 -16429148.60247 -12771585.50845  22221340.2894                   22221339.9884
 -38175171.45348 -29712860.38746  19967125.8984                   19967124.6724
 -10187331.80946  -7643054.81643  24255396.7034                   24255397.0904
 -24713740.30947 -19228058.62945  22465252.4924                   22465251.9964
 -17479424.06248 -13589062.70745  22383873.8914                   22383871.5044
 11  7 26  0  9 30.0000000  0  8G10G17G28G09G04G20G27G02
  -6914777.29746  -4920112.80543  23587501.1644                   23587503.8364
 -43633266.19148 -33962981.28946  21424128.8674                   21424126.7854
 -51904049.99648 -40378990.07845  21880998.3444                   21880996.5394
 -16498955.56247 -12825980.52745  22208056.1024                   22208056.1484
 -38232795.73848 -29757762.39846  19956160.0474                   19956158.9844
 -10195566.61346  -7649471.55943  24253830.2114                   24253830.4774
 -24766497.89547 -19269168.45745  22455213.0394                   22455212.7934
 -17602126.84847 -13684675.18045  22360524.6414                   22360521.8794
 11  7 26  0 10  0.0000000  0  8G10G17G28G09G04G20G27G02
  -7051631.70746  -5026752.41843  23561458.6174                   23561460.3094
 -43644816.61748 -33971981.64546  21421930.6484                   21421929.0044
 -51895331.22348 -40372196.26645  21882657.1804                   21882655.7154
 -16568095.21947 -12879855.58245  22194899.8754                   22194899.4534
 -38289815.81648 -29802193.61346  19945309.7194                   19945308.4614
 -10203274.39846  -7655477.65243  24252362.8674                   24252362.9844
 -24818731.62947 -19309870.08245  22445273.1724                   22445273.1024
 -17724507.81248 -13780036.88345  22337235.6804                   22337233.6724
 11  7 26  0 10 30.0000000  0  8G10G17G28G09G04G20G27G02
  -7188411.21146  -5133333.64143  23535430.1334                   23535431.7854
 -43656243.68748 -33980885.88746  21419756.4144                   21419754.2664
 -51886213.37148 -40365091.49645  21884392.5234                   21884390.3674
 -16636571.03947 -12933213.36345  22181869.4694                   22181868.5084
 -38346236.04348 -29846157.40646  19934573.2274                   19934571.8634
 -10210460.20346  -7661076.95743  24250995.5784                   24250995.5204
 -24870445.51247 -19350166.63745  22435432.2194                   22435431.8324
 -17846569.45748 -13875149.76245  22314007.8284                   22314006.1914
 11  7 26  0 11  0.0000000  0  8G10G17G28G09G04G20G27G02
  -7325107.16046  -5239849.77044  23509417.9454                   23509419.7384
 -43667542.71148 -33989690.34046  21417606.1174                   21417604.2504
 -51876691.19948 -40357671.67645  21886204.6254                   21886202.6994
 -16704377.17647 -12986049.30945  22168965.9924                   22168965.3554
 -38402051.28148 -29889649.78146  19923951.6254                   19923950.3244
 -10217119.19146  -7666265.78543  24249729.0634                   24249728.1604
 -24921634.00047 -19390053.77745  22425691.3364                   22425691.5204
 -17968305.16448 -13970008.67645  22290842.6644                   22290841.1214
 11  7 26  0 11 30.0000000  0  8G10G17G28G09G04G20G27G02
  -7461720.89546  -5346301.81643  23483420.7424                   23483422.9104
 -43678718.29748 -33998398.60946  21415479.5784                   21415477.7464
 -51866769.14148 -40349940.25045  21888092.2664                   21888090.4414
 -16771517.48847 -13038366.45345  22156189.6724                   22156188.9414
 -38457266.51648 -29932674.63746  19913444.8914                   19913443.3404
 -10223256.52046  -7671048.13343  24248560.4614                   24248559.6414
 -24972301.86748 -19429535.23445  22416049.5554                   22416049.4064
 -18089718.25048 -14064616.18745  22267738.0554                   22267736.4414
 11  7 26  0 12  0.0000000  0  8G10G17G28G09G04G20G27G02
  -7598245.09046  -5452684.12944  23457441.0474                   23457442.8714
 -43689767.01248 -34007008.01646  21413377.1174                   21413375.0514
 -51856443.30148 -40341894.19145  21890057.1644                   21890055.4184
 -16837987.29747 -13090161.12545  22143541.3054                   22143540.1724
 -38511877.78948 -29975228.86746  19903052.5394                   19903051.1134
 -10228868.80546  -7675421.38343  24247493.2664                   24247492.8524
 -25022445.31247 -19468608.05145  22406507.8674                   22406507.5944
 -18210803.12548 -14158967.93745  22244696.7344                   22244694.9654
 11  7 26  0 12 30.0000000  0  8G10G17G28G09G04G20G27G02
  -7734678.87547  -5558995.97344  23431478.2274                   23431479.8954
 -43700690.88748 -34015520.14846  21411298.1564                   21411296.5704
 -51845715.66448 -40333535.06645  21892099.0784                   21892097.3054
 -16903788.38347 -13141434.72745  22131019.1724                   22131019.1414
 -38565887.76648 -30017314.55546  19892774.8674                   19892773.6294
 -10233958.59046  -7679387.44943  24246524.7034                   24246524.7774
 -25072066.62948 -19507274.00845  22397064.9224                   22397064.8484
 -18331560.66048 -14253064.62945  22221717.3364                   22221714.9534
 11  7 26  0 13  0.0000000  0  8G10G17G28G09G04G20G27G02
  -7871018.19146  -5665234.21543  23405534.2194                   23405534.8634
 -43711489.91848 -34023935.00846  21409243.2894                   21409241.5664
 -51834585.83248 -40324862.53145  21894216.6334                   21894215.2734
 -16968919.63747 -13192186.37145  22118625.5554                   22118625.3204
 -38619296.20348 -30058931.50846  19882611.6414                   19882610.4494
 -10238526.51246  -7682946.88743  24245655.3054                   24245655.2074
 -25121165.45347 -19545532.82445  22387722.1644                   22387721.5044
 -18451989.02747 -14346904.84045  22198800.3984                   22198798.0354
 11  7 26  0 13 30.0000000  0  8G10G17G28G09G04G20G27G02
  -8007268.68746  -5771403.28144  23379606.0784                   23379607.7704
 -43722172.67648 -34032259.27046  21407210.3834                   21407208.9884
 -51823062.03548 -40315883.00845  21896409.7274                   21896408.1174
 -17033388.82047 -13242422.11745  22106357.6024                   22106357.1174
 -38672111.87148 -30100086.56246  19872561.0944                   19872559.6954
 -10242581.68746  -7686106.77343  24244883.2664                   24244883.0824
 -25169750.35547 -19583391.18745  22378476.7584                   22378475.9804
 -18572095.46547 -14440494.19945  22175944.9924                   22175942.3634
 11  7 26  0 14  0.0000000  0  8G10G17G28G09G04G20G27G02
  -8143423.52346  -5877497.78944  23353696.3284                   23353697.9574
 -43732735.90648 -34040490.38346  21405200.1724                   21405198.6174
 -51811141.12548 -40306594.05545  21898678.1644                   21898676.5204
 -17097192.46147 -13292139.26645  22094216.0394                   22094215.5554
 -38724331.86348 -30140777.44546  19862624.0784                   19862622.5354
 -10246121.01246  -7688864.69943  24244210.1564                   24244209.7974
 -25217818.13747 -19620846.59845  22369329.7274                   22369329.1724
 -18691875.16047 -14533828.94945  22153151.5864                   22153148.6024
 11  7 26  0 14 30.0000000  0  8G10G17G28G09G04G20G27G02
  -8279468.19147  -5983506.46143  23327807.2584                   23327809.0554
 -43743168.79348 -34048619.93046  21403214.9534                   21403213.5124
 -51798811.85547 -40296986.90245  21901024.3134                   21901023.3164
 -17160318.45347 -13341328.38345  22082203.8054                   22082202.5944
 -38775945.38748 -30180995.76246  19852802.1724                   19852800.9654
 -10249134.59946  -7691212.98243  24243636.7664                   24243636.3714
 -25265357.70748 -19657890.39845  22360283.1254                   22360282.6294
 -18811315.35948 -14626899.16845  22130422.8364                   22130419.8674
 11  7 26  0 15  0.0000000  0  8G10G17G28G09G04G20G27G02
  -8415411.04347  -6089435.81244  23301938.2664                   23301939.3874
 -43753482.87548 -34056656.89846  21401252.0554                   21401250.4024
 -51786085.70347 -40287070.47345  21903446.2664                   21903444.9064
 -17222778.32447 -13389998.43745  22070318.0084                   22070317.3364
 -38826964.48848 -30220750.88346  19843093.6414                   19843092.0704
 -10251634.24246  -7693160.74643  24243160.7584                   24243160.6214
 -25312380.65647 -19694531.64545  22351335.0394                   22351334.1024
 -18930426.24648 -14719712.77745  22107756.2194                   22107753.7934
 11  7 26  0 15 30.0000000  0  8G10G17G28G09G04G20G27G02
  -8551247.32446  -6195282.09444  23276089.9694                   23276091.1214
 -43763676.99248 -34064600.37946  21399312.3284                   21399310.5124
 -51772961.65647 -40276844.00445  21905943.8914                   21905942.1374
 -17284570.10247 -13438147.88745  22058559.4844                   22058558.9384
 -38877387.87548 -30260041.81646  19833498.3444                   19833497.3134
 -10253619.29346  -7694707.57843  24242783.1174                   24242782.6764
 -25358885.74247 -19730769.35245  22342485.3984                   22342484.3014
 -19049205.00047 -14812267.57446  22085153.9384                   22085151.2424
 11  7 26  0 16  0.0000000  0  8G10G17G28G09G04G20G27G02
  -8686967.45346  -6301037.87944  23250262.6644                   23250263.9184
 -43773745.07048 -34072445.66446  21397396.2894                   21397394.9654
 -51759433.03947 -40266302.28945  21908517.9064                   21908516.7664
 -17345686.85947 -13485771.35245  22046929.2344                   22046928.5784
 -38927209.70348 -30298864.00046  19824017.4774                   19824016.0434
 -10255084.50446  -7695849.32443  24242504.2504                   24242503.6134
 -25404866.98447 -19766598.88745  22333735.4694                   22333734.7464
 -19167644.10247 -14904557.71145  22062615.3134                   22062612.9614
 11  7 26  0 16 30.0000000  0  8G10G17G28G09G04G20G27G02
  -8822573.98846  -6406705.15643  23224457.4774                   23224458.7154
 -43783693.09048 -34080197.38746  21395503.6564                   21395501.7194
 -51745505.87547 -40255450.00845  21911168.5004                   21911167.0904
 -17406134.26247 -13532873.23845  22035426.2194                   22035425.4184
 -38976436.59448 -30337222.59846  19814650.0394                   19814648.5124
 -10256036.44146  -7696591.10943  24242323.3364                   24242322.7544
 -25450330.81247 -19802025.23045  22325083.3754                   22325083.5474
 -19285748.32048 -14996586.89846  22040140.7114                   22040138.6134
 11  7 26  0 17  0.0000000  0  8G10G17G28G09G04G20G27G02
  -8958073.07046  -6512288.71544  23198672.9774                   23198674.3444
 -43793530.93448 -34087863.26646  21393631.5314                   21393629.6884
 -51731189.71147 -40244294.60945  21913892.8444                   21913891.3914
 -17465921.46547 -13579460.67245  22024049.2894                   22024048.8874
 -39025078.34048 -30375125.23846  19805393.5234                   19805392.3594
 -10256485.61346  -7696941.16043  24242237.1564                   24242237.8014
 -25495286.64147 -19837055.73045  22316528.5394                   22316528.7734
 -19403525.68047 -15088361.39145  22017728.5784                   22017726.2624
 11  7 26  0 17 30.0000000  0  8G10G17G28G09G04G20G27G02
  -9093453.44146  -6617779.75044  23172910.7424                   23172912.4224
 -43803250.53548 -34095437.01646  21391782.0084                   21391780.5944
 -51716476.92647 -40232830.15245  21916692.3834                   21916690.8594
 -17525040.18747 -13625527.21145  22012799.3364                   22012798.7074
 -39073127.59048 -30412566.19946  19796250.5004                   19796248.9614
 -10256424.46146  -7696893.52743  24242249.8204                   24242248.8984
 -25539726.59847 -19871684.26645  22308072.0554                   22308071.7114
 -19520966.88348 -15179873.94945  21995380.3754                   21995377.7734
 11  7 26  0 18  0.0000000  0  8G10G17G28G09G04G20G27G02
  -9228706.68746  -6723171.74244  23147173.0234                   23147174.6454
 -43812846.96148 -34102914.76646  21389955.7114                   21389954.1954
 -51701362.48847 -40221052.71145  21919569.0554                   21919567.3244
 -17583485.54747 -13671069.03545  22001677.4924                   22001676.5704
 -39120579.76648 -30449541.91046  19787220.3364                   19787218.7704
 -10255848.88346  -7696445.02743  24242359.2584                   24242358.3134
 -25583645.99247 -19905907.14845  22299714.6644                   22299713.8524
 -19638065.56248 -15271119.59446  21973097.1024                   21973094.6024
 11  7 26  0 18 30.0000000  0  8G10G17G28G09G04G20G27G02
  -9363831.98446  -6828464.03944  23121459.2814                   23121460.8014
 -43822322.87148 -34110298.62146  21388152.5314                   21388151.0004
 -51685849.05547 -40208964.35945  21922520.7664                   21922519.4614
 -17641259.72347 -13716087.84445  21990683.4774                   21990682.5984
 -39167438.16848 -30486054.94546  19778303.4304                   19778301.7544
 -10254762.46546  -7695598.45343  24242565.3754                   24242564.5664
 -25627047.69547 -19939726.65245  22291455.9844                   22291455.2894
 -19754823.21148 -15362099.49645  21950878.8134                   21950876.3754
 11  7 26  0 19  0.0000000  0  8G10G17G28G09G04G20G27G02
  -9498833.32046  -6933659.73444  23095769.1884                   23095770.8324
 -43831685.68448 -34117594.34046  21386371.1954                   21386369.2194
 -51669943.81247 -40196570.71145  21925547.2194                   21925546.4614
 -17698369.70347 -13760589.08645  21979815.9384                   21979815.2274
 -39213710.75448 -30522111.49246  19769498.1954                   19769496.7504
 -10253173.52046  -7694360.35943  24242867.9844                   24242867.7974
 -25669939.42247 -19973148.78145  22283293.6414                   22283293.1484
 -19871245.56248 -15452818.14546  21928723.8754                   21928721.5514
 11  7 26  0 19 30.0000000  0  8G10G17G28G09G04G20G27G02
  -9633709.70746  -7038758.09844  23070103.0004                   23070104.4184
 -43840937.99648 -34124803.95346  21384609.9614                   21384608.9964
 -51653649.36347 -40183873.78145  21928648.3754                   21928647.1054
 -17754817.46947 -13804574.32045  21969074.1724                   21969073.0824
 -39259400.08248 -30557713.57446  19760803.8364                   19760802.4264
 -10251085.25046  -7692733.15243  24243265.6024                   24243265.0514
 -25712323.79347 -20006175.55545  22275228.0784                   22275227.8364
 -19987333.71947 -15543276.37946  21906633.5474                   21906630.6644
 11  7 26  0 20  0.0000000  0  8G10G17G28G09G04G20G27G02
  -9768444.39146  -7143746.04344  23044463.3054                   23044465.2074
 -43850066.57048 -34131917.14146  21382873.0784                   21382871.5474
 -51636952.70347 -40170863.43745  21931825.7734                   21931824.7734
 -17810589.69947 -13848033.15645  21958460.8594                   21958460.1254
 -39304493.69548 -30592851.45746  19752222.5314                   19752221.1994
 -10248484.84846  -7690706.86343  24243760.3054                   24243759.8714
 -25754187.81647 -20038796.87945  22267262.1644                   22267260.9384
 -20103073.18448 -15633462.90246  21884608.5944                   21884606.2234
 11  7 26  0 20 30.0000000  0  8G10G17G28G09G04G20G27G02
  -9903045.48847  -7248629.87944  23018849.6094                   23018851.1804
 -43859082.94547 -34138942.91846  21381157.5164                   21381155.9534
 -51619865.27747 -40157548.60945  21935077.3524                   21935076.0784
 -17865697.67247 -13890974.39845  21947974.2344                   21947973.4414
 -39349003.49648 -30627534.43046  19743752.8054                   19743751.4804
 -10245384.85546  -7688291.30943  24244349.9694                   24244349.5274
 -25795543.30547 -20071021.94145  22259391.9924                   22259391.6134
 -20218474.02048 -15723385.57846  21862648.3754                   21862645.7504
 11  7 26  0 21  0.0000000  0  9G10G12G17G28G09G04G20G27G02
 -10037513.17646  -7353409.76644  22993261.5004                   22993262.5664
   1371846.47356   1098600.11353  24495107.8674                   24495108.0124
 -43867990.49647 -34145883.87946  21379462.4614                   21379461.2034
 -51602390.99247 -40143932.33645  21938402.7194                   21938401.2424
 -17920145.13347 -13933400.94145  21937613.2034                   21937612.3164
 -39392934.03948 -30661766.03146  19735393.4224                   19735391.7974
 -10241790.16046  -7685490.25843  24245034.4144                   24245033.7774
 -25836394.41847 -20102853.98445  22251618.6174                   22251617.6454
 -20333538.79348 -15813046.36746  21840752.2424                   21840749.8404
 11  7 26  0 21 30.0000000  0  9G10G12G17G28G09G04G20G27G02
  -8596426.18046  -6230484.71944  23267490.5474                   23267492.4414
   2808115.52346   2217770.85243  24768420.7424                   24768421.4304
 -42301375.75848 -32925145.13746  21677579.5704                   21677577.8284
 -50009116.94147 -38902420.13745  22241592.6884                   22241590.9574
 -16398516.53947 -12747716.27045  22227169.3054                   22227168.3244
 -37860870.89548 -29467950.59446  20026935.0634                   20026933.4844
  -8662288.17746  -6454709.51343  24545603.7344                   24545602.8954
 -24301326.70347 -18906697.33645  22543732.0084                   22543731.6134
 -18872848.59848 -14674846.14846  22118712.5634                   22118709.4454
 11  7 26  0 22  0.0000000  0  9G10G12G17G28G09G04G20G27G02
  -8730621.85946  -6335052.64543  23241954.2814                   23241955.2624
   2668959.57447   2109337.69943  24741940.7734                   24741941.6884
 -42310071.09848 -32931920.73846  21675924.8674                   21675923.2544
 -49990874.14847 -38888205.04745  22245064.1254                   22245062.8984
 -16451647.30947 -12789116.82845  22217059.1484                   22217058.0354
 -37903649.24648 -29501284.38346  20018794.7734                   20018792.9924
  -8657711.39846  -6451143.19543  24546474.5004                   24546474.1524
 -24341174.93047 -18937747.91845  22536149.2114                   22536148.7194
 -18987241.98848 -14763983.79746  22096944.1334                   22096941.2624
 11  7 26  0 22 30.0000000  0  9G10G12G17G28G09G04G20G27G02
  -8864678.08246  -6439511.94144  23216444.6644                   23216445.4884
   2529799.57447   2000901.29743  24715459.3834                   24715459.8674
 -42318662.01247 -32938614.96946  21674289.5944                   21674288.0314
 -49972249.24647 -38873692.20345  22248608.1804                   22248606.8834
 -16504121.09447 -12830005.45745  22207073.2194                   22207072.1914
 -37945854.42248 -29534171.54346  20010763.4534                   20010761.8874
  -8652646.34446  -6447196.44143  24547437.8134                   24547438.0164
 -24380524.01247 -18968409.57445  22528661.2814                   22528660.9574
 -19101299.55548 -14852859.75846  22075239.3914                   22075236.5664
 11  7 26  0 23  0.0000000  0  9G10G12G17G28G09G04G20G27G02
  -8998589.04746  -6543858.01644  23190961.9534                   23190963.1054
   2390640.03947   1892465.20743  24688978.1024                   24688977.2934
 -42327146.27047 -32945226.08646  21672675.0634                   21672673.9384
 -49953239.88347 -38858879.77745  22252225.8984                   22252224.6174
 -16555935.99247 -12870380.67645  22197213.0084                   22197212.4494
 -37987484.81648 -29566610.82046  20002841.1254                   20002839.8054
  -8647092.44946  -6442868.73443  24548495.3914                   24548494.9414
 -24419372.37547 -18998681.03945  22521268.8594                   22521267.9144
 -19215017.78948 -14941471.31246  22053599.5944                   22053596.6054
 11  7 26  0 23 30.0000000  0  9G10G12G17G28G09G04G20G27G02
  -9132355.34446  -6648091.39144  23165506.8674                   23165507.9264
   2251478.49647   1784027.67243  24662496.4694                   24662496.6374
 -42335527.57847 -32951756.98446  21671080.8984                   21671079.1174
 -49933850.19147 -38843771.00045  22255915.7194                   22255914.6564
 -16607095.55147 -12910245.25045  22187478.5314                   22187476.5744
 -38028544.62948 -29598605.47346  19995027.7424                   19995026.1764
  -8641054.27046  -6438163.66843  24549644.2734                   24549644.3984
 -24457724.03547 -19028565.46145  22513970.9304                   22513970.4264
 -19328399.19548 -15029820.40246  22032024.0394                   22032020.8404
 11  7 26  0 24  0.0000000  0  9G10G12G17G28G09G04G20G27G02
  -9265973.50047  -6752209.33644  23140080.0554                   23140081.0124
   2112316.71947   1675589.96543  24636014.8914                   24636015.6134
 -42343805.87547 -32958207.60946  21669505.1884                   21669503.0784
 -49914080.49647 -38828366.10945  22259677.6564                   22259676.3954
 -16657600.05147 -12949599.37945  22177867.3834                   22177866.3164
 -38069034.92248 -29630156.35246  19987322.5944                   19987321.3914
  -8634532.27046  -6433081.58243  24550885.1334                   24550885.4224
 -24495579.43447 -19058063.20745  22506767.2664                   22506766.7114
 -19441442.72748 -15117906.21146  22010512.3134                   22010509.5634
 11  7 26  0 24 30.0000000  0  9G10G12G17G28G09G04G20G27G02
  -9399431.82047  -6856202.71544  23114683.7974                   23114684.4104
   1973164.59447   1567159.79743  24609535.1174                   24609535.2234
 -42351973.16847 -32964571.73046  21667951.2194                   21667949.0594
 -49893922.89847 -38812658.97345  22263513.4454                   22263512.2624
 -16707441.69947 -12988437.01245  22168382.6954                   22168382.2704
 -38108948.37148 -29661257.73046  19979727.6644                   19979726.1214
  -8627519.94146  -6427617.48043  24552219.7114                   24552219.4144
 -24532931.34047 -19087168.60545  22499659.4614                   22499659.0204
 -19554138.86748 -15205721.33246  21989067.0784                   21989064.3204
 11  7 26  0 25  0.0000000  0  9G10G12G17G28G09G04G20G27G02
  -9532729.18747  -6960070.71144  23089318.2814                   23089319.2464
   1834021.82846   1458736.95343  24583056.7034                   24583057.2114
 -42360032.15647 -32970851.46546  21666417.5234                   21666415.4614
 -49873380.23447 -38796651.78545  22267422.6484                   22267421.2194
 -16756623.00847 -13026760.09845  22159023.7664                   22159023.0164
 -38148288.49248 -29691912.36346  19972241.3834                   19972239.8594
  -8620020.81646  -6421774.02343  24553647.1484                   24553646.5514
 -24569782.48447 -19115883.82445  22492647.2504                   22492646.5314
 -19666489.01247 -15293266.85546  21967687.5004                   21967684.9144
 11  7 26  0 25 30.0000000  0  9G10G12G17G28G09G04G20G27G02
  -9665860.37147  -7063809.18444  23063983.8914                   23063984.4454
   1694892.22345   1350324.32043  24556580.7584                   24556581.4064
 -42367980.51647 -32977045.00846  21664904.5394                   21664903.2424
 -49852450.94947 -38780343.33245  22271405.6414                   22271404.4304
 -16805142.04347 -13064567.13345  22149791.1174                   22149790.2974
 -38187053.64848 -29722118.97346  19964864.5784                   19964863.0514
  -8612034.15646  -6415550.64843  24555165.9534                   24555165.9184
 -24606131.59847 -19144207.83245  22485730.0084                   22485729.1884
 -19778490.16848 -15380540.43046  21946374.0554                   21946371.9384
 11  7 26  0 26  0.0000000  0  9G10G12G17G28G09G04G20G27G02
  -9798820.65647  -7167414.48444  23038682.7194                   23038683.1024
   1555778.51246   1241924.22743  24530109.0634                   24530108.2624
 -42375816.88747 -32983151.28146  21663413.8524                   21663412.2034
 -49831133.58247 -38763732.47745  22275462.2814                   22275461.1684
 -16852997.37947 -13101857.00445  22140684.2504                   22140683.8284
 -38225243.73848 -29751877.46946  19957597.2504                   19957595.7704
  -8603559.42646  -6408946.95743  24556779.3754                   24556779.2664
 -24641977.65247 -19172139.84845  22478908.9614                   22478908.4774
 -19890139.48848 -15467539.85246  21925128.2504                   21925125.6604
 11  7 26  0 26 30.0000000  0  9G10G12G17G28G09G04G20G27G02
  -9931600.05547  -7270878.84444  23013415.0394                   23013415.8754
   1416689.24246   1133543.06343  24503640.8524                   24503640.1914
 -42383534.68747 -32989165.15246  21661945.4064                   21661943.7734
 -49809422.04747 -38746814.48845  22279593.9534                   22279592.9184
 -16900182.85247 -13138624.91845  22131705.3444                   22131704.1994
 -38262852.75448 -29781183.18446  19950440.4304                   19950438.5904
  -8594591.07846  -6401958.68443  24558486.2504                   24558486.4574
 -24677314.91847 -19199675.40645  22472184.0864                   22472183.2624
 -20001429.68748 -15554259.43446  21903950.4454                   21903947.7624
 11  7 26  0 27  0.0000000  0  9G10G12G17G28G09G04G20G27G02
 -10064199.68047  -7374203.13744  22988181.5784                   22988183.0204
   1277621.51246   1025178.72343  24477176.9304                   24477175.7304
 -42391138.72747 -32995090.37146  21660498.3674                   21660496.1454
 -49787321.63747 -38729593.48045  22283799.7664                   22283798.2194
 -16946703.80547 -13174875.02045  22122852.9384                   22122851.5514
 -38299886.66448 -29810040.75846  19943393.0084                   19943391.7544
  -8585135.43746  -6394590.62543  24560285.2734                   24560285.0664
 -24712148.99247 -19226818.86745  22465555.6884                   22465555.0004
 -20112364.27748 -15640701.92646  21882840.1484                   21882837.3914
 11  7 26  0 27 30.0000000  0  9G10G12G17G28G09G04G20G27G02
 -10196613.02747  -7477382.26244  22962984.6414                   22962985.8014
   1138580.70346    916835.36743  24450718.2734                   24450717.0514
 -42398625.79347 -33000924.46146  21659073.1954                   21659071.9184
 -49764829.25847 -38712067.02745  22288079.6334                   22288078.6294
 -16992557.14847 -13210604.90645  22114126.8674                   22114126.1334
 -38336342.98448 -29838448.26246  19936455.5164                   19936453.8054
  -8575190.40246  -6386841.22743  24562178.5234                   24562177.8134
 -24746477.00047 -19253567.99645  22459023.1414                   22459022.4574
 -20222938.55947 -15726863.64546  21861798.2814                   21861795.5744
 11  7 26  0 28  0.0000000  0  9G10G12G17G28G09G04G20G27G02
 -10328837.04347  -7580413.84844  22937823.3674                   22937823.9414
    999568.04746    808513.84443  24424264.7584                   24424263.2814
 -42405996.30148 -33006667.72346  21657670.7194                   21657668.8054
 -49741945.91047 -38694235.92245  22292434.6334                   22292433.3594
 -17037743.90247 -13245815.35945  22105528.5704                   22105527.0904
 -38372223.15248 -29866406.82046  19929627.7504                   19929626.1564
  -8564757.51646  -6378711.71543  24564163.3444                   24564162.5634
 -24780300.01247 -19279923.60945  22452587.2814                   22452586.4804
 -20333152.08248 -15812744.26646  21840825.5704                   21840822.9104
 11  7 26  0 28 30.0000000  0  9G10G12G17G28G09G04G20G27G02
 -10460873.37547  -7683299.19944  22912697.7734                   22912698.1764
    860580.69546    700212.05943  24397816.1724                   24397814.9614
 -42413254.94547 -33012323.82446  21656289.2894                   21656287.7424
 -49718676.75047 -38676104.18445  22296862.4454                   22296861.6684
 -17082268.96947 -13280510.24645  22097055.7584                   22097054.5824
 -38407532.95748 -29893920.93446  19922908.5944                   19922907.2854
  -8553842.92646  -6370206.85243  24566239.4454                   24566238.8244
 -24813623.79347 -19305890.21945  22446246.0314                   22446245.1134
 -20443008.89548 -15898346.92646  21819920.4144                   21819918.0044
 11  7 26  0 29  0.0000000  0  9G10G12G17G28G09G04G20G27G02
 -10592725.45747  -7786040.96944  22887606.5394                   22887607.2704
    721613.29746    591925.84043  24371371.4924                   24371371.1294
 -42420408.73847 -33017898.22346  21654928.2274                   21654926.8634
 -49695029.31247 -38657677.67245  22301363.1094                   22301361.2114
 -17126139.73447 -13314695.27045  22088707.2974                   22088706.3444
 -38442280.70748 -29920997.08246  19916296.2584                   19916294.7664
  -8542454.92646  -6361333.12943  24568407.0084                   24568406.0744
 -24846456.08247 -19331473.83245  22439997.7584                   22439997.5314
 -20552514.79348 -15983676.14146  21799081.9384                   21799079.0634
 11  7 26  0 29 30.0000000  0  9G10G12G17G28G09G04G20G27G02
 -10724372.71147  -7888623.14144  22862555.1414                   22862555.6994
    582684.82946    483669.98344  24344933.7424                   24344934.3914
 -42427440.72348 -33023377.71946  21653590.4924                   21653588.4064
 -49670987.08647 -38638943.53545  22305937.8674                   22305936.0474
 -17169339.76247 -13348357.64545  22080486.5704                   22080485.5044
 -38476450.19148 -29947622.63346  19909794.2584                   19909792.3874
  -8530577.73446  -6352078.15243  24570667.7274                   24570667.1644
 -24878780.62148 -19356661.80945  22433846.8674                   22433845.9734
 -20661651.65248 -16068717.79746  21778313.8524                   21778311.1414
 11  7 26  0 30  0.0000000  0  9G10G12G17G28G09G04G20G27G02
 -10855814.29347  -7991045.03944  22837542.9144                   22837543.6604
    443794.74646    375444.05144  24318504.7034                   24318504.7154
 -42434353.21547 -33028764.09846  21652274.5784                   21652273.0354
 -49646552.97747 -38619904.02745  22310587.1804                   22310585.9304
 -17211871.85547 -13381499.55545  22072393.0704                   22072392.0634
 -38510044.96548 -29973800.35246  19903401.4064                   19903399.6054
  -8518215.02746  -6342444.88343  24573020.8754                   24573019.9264
 -24910600.61348 -19381456.60245  22427791.4384                   22427790.4694
 -20770420.98447 -16153473.04746  21757615.8834                   21757613.1804
 11  7 26  0 30 30.0000000  0  9G10G12G17G28G09G04G20G27G02
 -10987054.61747  -8093310.12144  22812568.3594                   22812568.9654
    304936.95347    267243.21944  24292080.9384                   24292080.5784
 -42441154.09448 -33034063.50046  21650980.2114                   21650978.9184
 -49621735.12147 -38600565.49645  22315310.2814                   22315308.9694
 -17253744.38747 -13414127.51245  22064424.9774                   22064424.0274
 -38543073.87948 -29999537.14546  19897116.2274                   19897114.3284
  -8505376.41046  -6332440.75043  24575462.9534                   24575462.6604
 -24941924.83247 -19405865.09445  22421830.7274                   22421830.2894
 -20878829.76248 -16237947.35946  21736986.3754                   21736983.7774
 11  7 26  0 31  0.0000000  0  8G10G12G17G28G09G04G27G02
 -11118090.92247  -8195416.22744  22787632.6174                   22787633.1724
    166112.82847    159068.61344  24265663.5704                   24265663.3874
 -42447843.49248 -33039276.03946  21649707.5314                   21649705.8324
 -49596534.56247 -38580928.74645  22320105.3914                   22320104.8484
 -17294958.57447 -13446242.47745  22056582.1094                   22056581.3634
 -38575538.55948 -30024834.27046  19890938.2504                   19890936.8634
 -24972754.59448 -19429888.28545  22415964.1724                   22415963.4964
 -20986877.13347 -16322140.05546  21716425.4384                   21716422.7504
 11  7 26  0 31 30.0000000  0  8G10G12G17G28G09G04G27G02
 -11248919.65647  -8297360.60244  22762736.9534                   22762737.4804
     27324.43047     50921.82044  24239253.8134                   24239252.2154
 -42454421.67648 -33044401.93046  21648455.8444                   21648454.1884
 -49570952.05947 -38560994.39145  22324973.6954                   22324972.5554
 -17335514.96547 -13477844.87545  22048864.2974                   22048863.8714
 -38607440.33248 -30049692.78146  19884867.5004                   19884865.7194
 -25003090.71947 -19453526.83245  22410191.5394                   22410190.8444
 -21094562.39148 -16406050.58246  21695933.5704                   21695930.9384
 11  7 26  0 32  0.0000000  0  8G10G12G17G28G09G04G27G02
 -11379531.79747  -8399136.19945  22737881.9454                   22737882.6604
   -111420.73047    -57191.30144  24212850.4304                   24212850.0314
 -42460882.79748 -33049436.60546  21647226.0864                   21647224.9574
 -49544982.28147 -38540758.24645  22329915.3674                   22329914.3674
 -17375408.53147 -13508930.78145  22041273.0004                   22041272.5164
 -38638774.53948 -30074109.03146  19878904.7894                   19878902.7814
 -25032928.45348 -19476777.02745  22404513.2114                   22404512.7624
 -21201879.02748 -16489673.87546  21675511.6954                   21675508.8094
 11  7 26  0 32 30.0000000  0  8G10G12G17G28G09G04G27G02
 -11509917.90647  -8500735.67244  22713070.3674                   22713071.2424
   -250114.71947   -165264.54344  24186458.3674                   24186457.1094
 -42467220.98448 -33054375.47346  21646020.2274                   21646018.8674
 -49518619.79347 -38520216.09845  22334932.5234                   22334931.6254
 -17414633.99247 -13539496.08245  22033808.5164                   22033808.4384
 -38669536.44948 -30098079.32446  19873050.8444                   19873049.6214
 -25062262.62148 -19499634.82445  22398931.2114                   22398930.4344
 -21308819.92648 -16573004.38746  21655161.7734                   21655158.5554
 11  7 26  0 33  0.0000000  0  8G10G12G17G28G09G04G27G02
 -11640076.63347  -8602157.95744  22688302.2814                   22688302.4654
   -388757.44546   -273297.87943  24160075.1564                   24160073.6174
 -42473437.66848 -33059219.67246  21644837.0554                   21644835.7074
 -49491866.96147 -38499369.78945  22340023.4144                   22340022.2584
 -17453193.66847 -13569542.58245  22026471.0474                   22026470.4024
 -38699729.09448 -30121606.05146  19867305.3054                   19867303.7504
 -25091096.00048 -19522102.39145  22393444.0944                   22393443.8834
 -21415385.83248 -16656042.68446  21634882.8284                   21634880.0704
 11  7 26  0 33 30.0000000  0  8G10G12G17G28G09G04G27G02
 -11770003.71147  -8703399.75444  22663577.4614                   22663577.8794
   -527345.85547   -381288.91043  24133702.5784                   24133701.2464
 -42479532.34047 -33063968.79346  21643677.7034                   21643675.9694
 -49464723.77347 -38478219.29745  22345188.4924                   22345187.2304
 -17491087.58647 -13599070.31645  22019259.7424                   22019259.7274
 -38729352.81248 -30144689.44946  19861668.3524                   19861666.7974
 -25119428.86347 -19544179.95745  22388052.7274                   22388051.9694
 -21521575.29748 -16738787.64846  21614675.6804                   21614672.5124
 11  7 26  0 34  0.0000000  0  8G10G12G17G28G09G04G27G02
 -11899691.60947  -8804455.17645  22638898.5554                   22638898.7584
   -665874.77346   -489233.51644  24107341.7194                   24107340.4694
 -42485501.14548 -33068619.82846  21642541.6094                   21642539.9534
 -49437187.06647 -38456762.17645  22350428.4064                   22350427.3714
 -17528312.87947 -13628077.02345  22012176.4694                   22012175.7774
 -38758405.12948 -30167327.60546  19856139.7194                   19856138.1214
 -25147258.46947 -19565865.36745  22382756.7734                   22382756.0744
 -21627383.65248 -16821235.65646  21594541.1484                   21594537.5004
 11  7 26  0 34 30.0000000  0  8G10G12G17G28G09G04G27G02
 -12029138.50447  -8905322.79344  22614265.9844                   22614265.9964
   -804343.21547   -597130.98044  24080992.0314                   24080992.1724
 -42491344.71948 -33073173.29346  21641429.8364                   21641428.2464
 -49409258.84847 -38434999.97345  22355743.3364                   22355742.2074
 -17564871.44147 -13656564.22345  22005219.2664                   22005219.3874
 -38786888.48448 -30189522.41046  19850719.4304                   19850717.7544
 -25174586.93747 -19587160.29745  22377556.1644                   22377555.7154
 -21732810.98848 -16903386.76246  21574478.4064                   21574475.5004
 11  7 26  0 35  0.0000000  0  8G10G12G17G28G09G04G27G02
 -12158352.14147  -9006008.65644  22589677.5314                   22589677.7234
   -942760.74247   -704988.71544  24054651.8284                   24054651.7344
 -42497075.02748 -33077638.48446  21640339.3594                   21640337.9144
 -49380951.06247 -38412942.01244  22361129.7194                   22361128.9104
 -17600775.72347 -13684541.57445  21998387.0784                   21998385.8674
 -38814815.84048 -30211283.96946  19845405.3984                   19845403.7814
 -25201426.75448 -19608074.45745  22372449.2584                   22372448.1484
 -21837868.30147 -16985249.54746  21554486.9694                   21554483.7854
 11  7 26  0 35 30.0000000  0  8G10G12G17G28G09G04G27G02
 -12287324.81247  -9106506.75844  22565134.1884                   22565134.5664
  -1081120.89146   -812801.78144  24028322.7734                   24028322.5824
 -42502687.48848 -33082011.85246  21639271.3134                   21639269.5514
 -49352259.81647 -38390585.25044  22366589.8914                   22366588.6484
 -17636022.13347 -13712006.30145  21991680.2814                   21991679.0984
 -38842184.12948 -30232609.88746  19840197.3754                   19840195.6214
 -25227774.56247 -19628605.21545  22367435.2664                   22367434.2384
 -21942550.03948 -17066819.66046  21534566.6724                   21534563.6804
 11  7 26  0 36  0.0000000  0  8G10G12G17G28G09G04G27G02
 -12416061.39147  -9206820.89844  22540636.5554                   22540635.9924
  -1219430.11746   -920575.10244  24002003.5704                   24002003.2304
 -42508190.02348 -33086299.54346  21638224.3594                   21638222.4844
 -49323193.82447 -38367936.46944  22372120.7274                   22372119.6024
 -17670619.50047 -13738965.28145  21985096.4384                   21985095.3094
 -38869002.61348 -30253507.39146  19835093.6954                   19835091.8634
 -25253639.66847 -19648759.87545  22362513.6954                   22362512.7274
 -22046863.87548 -17148103.10246  21514716.2274                   21514713.4654
 11  7 26  0 36 30.0000000  0  8G10G12G17G28G09G04G27G02
 -12544552.11347  -9306943.46144  22516185.4614                   22516185.9264
  -1357679.74246  -1028301.92644  23975694.9304                   23975695.2854
 -42513576.01648 -33090496.43446  21637199.0944                   21637197.7934
 -49293747.69947 -38344991.47744  22377724.7274                   22377723.2234
 -17704562.11747 -13765414.06645  21978637.1804                   21978636.5704
 -38895266.23048 -30273972.53946  19830095.7424                   19830094.0784
 -25279016.62948 -19668534.15645  22357684.2344                   22357683.8164
 -22150802.13348 -17229093.88346  21494937.3524                   21494934.5274
 11  7 26  0 37  0.0000000  0  8G10G12G17G28G09G04G27G02
 -12672786.96947  -9406866.63745  22491782.6024                   22491783.6684
  -1495861.25046  -1135975.69144  23949399.9694                   23949399.2544
 -42518839.02347 -33094597.48046  21636197.6024                   21636196.4924
 -49263915.95347 -38321746.01644  22383400.9384                   22383400.6054
 -17737844.71547 -13791348.53145  21972303.9064                   21972302.7814
 -38920969.88748 -30294001.34446  19825204.7974                   19825203.0594
 -25303900.35547 -19687924.07845  22352949.0394                   22352948.7934
 -22254357.49647 -17309786.30546  21475231.2664                   21475228.4924
 11  7 26  0 37 30.0000000  0  8G10G12G17G28G09G04G27G02
 -12800763.29747  -9506588.36745  22467429.8284                   22467430.2384
  -1633973.62546  -1243595.65643  23923117.7814                   23923117.0204
 -42523979.57448 -33098603.12546  21635219.8204                   21635218.0634
 -49233699.59047 -38298200.86344  22389151.4534                   22389150.5474
 -17770469.23047 -13816770.22745  21966095.2664                   21966094.4574
 -38946115.95348 -30313595.68046  19820419.6804                   19820418.4884
 -25328292.59847 -19706931.03945  22348307.3284                   22348306.9734
 -22357530.12948 -17390180.49246  21455598.2114                   21455595.5594
 11  7 26  0 38  0.0000000  0  8G10G12G17G28G09G04G27G02
 -12928484.26647  -9606111.11744  22443125.6954                   22443125.5664
  -1772021.73047  -1351165.50043  23896848.3754                   23896847.3874
 -42529004.60248 -33102518.74246  21634263.3594                   21634261.8714
 -49203106.39847 -38274362.07444  22394973.1414                   22394972.1334
 -17802443.35947 -13841685.11745  21960010.9384                   21960009.9534
 -38970712.52048 -30332761.82446  19815739.1954                   19815737.7544
 -25352201.30947 -19725561.23045  22343757.9064                   22343757.5984
 -22460325.88348 -17470281.01646  21436036.7664                   21436034.0084
 11  7 26  0 38 30.0000000  0  8G10G12G17G28G09G04G27G02
 -13055933.32847  -9705421.98844  22418872.8134                   22418873.1644
  -1909989.57447  -1458672.84844  23870594.0944                   23870593.6724
 -42533899.96148 -33106333.30946  21633331.7814                   21633330.2194
 -49172123.16847 -38250219.36744  22400868.9384                   22400868.1764
 -17833754.21547 -13866083.17645  21954052.6024                   21954051.4304
 -38994747.14548 -30351490.10546  19811165.2194                   19811163.6094
 -25375613.81247 -19743804.75845  22339302.5164                   22339302.2074
 -22562730.75048 -17550076.95346  21416549.6564                   21416547.0394
 11  7 26  0 39  0.0000000  0  8G10G12G17G28G09G04G27G02
 -13183115.72347  -9804525.05944  22394670.6724                   22394670.8404
  -2047884.35547  -1566123.24244  23844354.0394                   23844352.4144
 -42538674.62148 -33110053.82046  21632423.4454                   21632421.4304
 -49140759.48047 -38225780.19944  22406837.4924                   22406836.2664
 -17864411.89147 -13889972.25845  21948219.0474                   21948217.7424
 -39018230.43048 -30369788.76646  19806696.5474                   19806695.1644
 -25398540.32447 -19761669.59045  22334939.4614                   22334939.3874
 -22664752.69148 -17629574.50846  21397135.8984                   21397132.8284
 11  7 26  0 39 30.0000000  0  8G10G12G17G28G09G04G27G02
 -13310040.05547  -9903427.05145  22370517.6094                   22370517.3524
  -2185715.82047  -1673524.30944  23818124.8054                   23818124.4494
 -42543340.39548 -33113689.48046  21631535.3984                   21631533.5864
 -49109028.59447 -38201054.89844  22412875.5944                   22412874.6294
 -17894429.58247 -13913362.65645  21942506.7814                   21942505.1214
 -39041175.56248 -30387668.08246  19802330.2664                   19802328.7734
 -25420994.05547 -19779166.02045  22330667.4144                   22330666.5124
 -22766402.53148 -17708782.10946  21377791.9844                   21377789.5004
 11  7 26  0 40  0.0000000  0  8G10G12G17G28G09G04G27G02
 -13436692.13347 -10002116.91045  22346416.6484                   22346416.1954
  -2323470.77047  -1780865.76244  23791911.3054                   23791910.4304
 -42547886.12948 -33117231.60246  21630670.6174                   21630668.8984
 -49076920.12147 -38176035.37944  22418985.7344                   22418985.0474
 -17923797.35248 -13936246.63345  21936918.4614                   21936917.3834
 -39063573.05948 -30405120.67646  19798068.2114                   19798066.4804
 -25442965.19547 -19796286.42645  22326485.9844                   22326485.5044
 -22867668.98848 -17787690.97746  21358521.6094                   21358518.8554
 11  7 26  0 40 30.0000000  0  8G10G12G17G28G09G04G27G02
 -11987641.44947  -8872986.43045  22622162.0554                   22622161.8204
   -885720.38347   -660540.68744  24065505.3054                   24065505.8954
 -40976888.92248 -31893077.91446  21929621.2114                   21929619.9534
 -47469013.34447 -36923121.08244  22724959.8444                   22724959.7504
 -16377092.89147 -12731022.36745  22231246.0234                   22231245.0864
 -37510001.22748 -29194545.22346  20093703.2734                   20093701.3834
 -23889031.73047 -18585429.19545  22622189.4534                   22622189.7504
 -21393125.09448 -16638695.67646  21639118.2034                   21639115.3714
 11  7 26  0 41  0.0000000  0  8G10G12G17G28G09G04G27G02
 -12113740.10947  -8971245.03545  22598165.9144                   22598165.8204
  -1023318.55946   -767759.95344  24039321.1484                   24039320.8554
 -40981195.93448 -31896434.00046  21928801.2664                   21928799.8444
 -47436153.80547 -36897516.30544  22731213.2114                   22731212.1804
 -16405165.95347 -12752897.46945  22225903.8134                   22225903.4694
 -37531309.90648 -29211149.38746  20089648.3054                   20089646.8794
 -23910043.02347 -18601801.66845  22618191.0474                   22618191.3524
 -21493623.73048 -16717006.25046  21619993.6094                   21619990.7384
 11  7 26  0 41 30.0000000  0  8G10G12G17G28G09G04G27G02
 -12239556.99247  -9069284.08645  22574223.9694                   22574223.6764
  -1160835.02347   -874915.57044  24013153.2894                   24013151.8244
 -40985383.19948 -31899696.78546  21928004.7814                   21928003.0354
 -47402919.94547 -36871619.86344  22737537.3444                   22737536.4614
 -16432593.47748 -12774269.55945  22220684.3444                   22220684.3094
 -37552076.32448 -29227331.01646  20085696.5164                   20085694.9924
 -23930576.44147 -18617801.75845  22614283.8754                   22614284.1564
 -21593737.65248 -16795017.04746  21600942.6804                   21600939.9264
 11  7 26  0 42  0.0000000  0  8G10G12G17G28G09G04G27G02
 -12365089.62147  -9167101.64145  22550335.4924                   22550335.0594
  -1298268.68747   -982006.69944  23987000.3134                   23986999.0554
 -40989451.41848 -31902866.80946  21927230.5784                   21927228.8404
 -47369313.45347 -36845433.07044  22743932.4384                   22743931.7814
 -16459377.45747 -12795140.19545  22215587.9224                   22215587.3364
 -37572302.94148 -29243092.02046  20081847.4144                   20081845.6914
 -23950634.21147 -18633431.21145  22610466.9304                   22610466.9694
 -21693467.20348 -16872728.33646  21581964.8754                   21581961.8794
 11  7 26  0 42 30.0000000  0  8G10G12G17G28G09G04G27G02
 -12490333.01647  -9264693.78945  22526502.4534                   22526502.6374
  -1435616.06647  -1089030.58644  23960863.6724                   23960863.0434
 -40993398.97748 -31905942.82446  21926479.0084                   21926477.6414
 -47335334.15647 -36818955.77344  22750398.4774                   22750398.0514
 -16485517.88748 -12815509.37145  22210613.5314                   22210613.1884
 -37591990.03548 -29258432.61746  20078101.1174                   20078099.1564
 -23970216.44147 -18648690.12145  22606740.7664                   22606741.0394
 -21792809.66448 -16950138.00046  21563060.6564                   21563057.7194
 11  7 26  0 43  0.0000000  0  8G10G12G17G28G09G04G27G02
 -12615287.22347  -9362060.60945  22502723.7424                   22502724.0004
  -1572878.15246  -1195987.98444  23934743.6954                   23934743.1994
 -40997229.21547 -31908927.41046  21925750.3134                   21925748.7384
 -47300985.74247 -36792190.85944  22756934.8674                   22756934.2464
 -16511019.34447 -12835380.62545  22205760.7034                   22205759.8554
 -37611142.35248 -29273356.49646  20074456.3674                   20074455.1484
 -23989327.35947 -18663581.75445  22603103.9694                   22603104.0164
 -21891768.02348 -17027248.37146  21544229.4304                   21544226.3954
 11  7 26  0 43 30.0000000  0  8G10G12G17G28G09G04G27G02
 -12739941.26247  -9459193.53145  22479003.1804                   22479002.7464
  -1710045.50446  -1302871.60544  23908641.0864                   23908640.2974
 -41000934.29747 -31911814.48446  21925045.7274                   21925043.8754
 -47266261.90247 -36765133.40644  22763542.5704                   22763542.0164
 -16535875.59448 -12854749.14845  22201030.6254                   22201030.6804
 -37629754.03948 -29287859.11346  20070915.0474                   20070913.2894
 -24007960.93747 -18678101.46945  22599558.7194                   22599557.7114
 -21990334.30948 -17104053.23846  21525473.1884                   21525469.7464
 11  7 26  0 44  0.0000000  0  8G10G12G17G28G09G04G27G02
 -12864295.12547  -9556092.53945  22455339.1724                   22455339.6844
  -1847119.38747  -1409682.32444  23882556.6484                   23882556.4884
 -41004517.64548 -31914606.71146  21924363.6024                   21924361.8484
 -47231166.87147 -36737786.71144  22770221.0084                   22770220.6054
 -16560091.43047 -12873618.63345  22196422.5704                   22196422.5394
 -37647830.25848 -29301944.48846  20067475.1644                   20067473.6374
 -24026122.12947 -18692253.05545  22596102.4384                   22596102.0704
 -22088511.12548 -17180554.62546  21506790.1724                   21506787.4384
 11  7 26  0 44 30.0000000  0  8G10G12G17G28G09G04G27G02
 -12988334.84047  -9652746.75845  22431735.0084                   22431735.3834
  -1984086.92647  -1516410.18044  23856492.9144                   23856491.5944
 -41007968.09448 -31917295.36746  21923706.7344                   21923705.1644
 -47195690.64147 -36710142.98444  22776972.4144                   22776971.7234
 -16583657.43047 -12891981.76645  22191938.3284                   22191938.0554
 -37665361.66448 -29315605.32846  20064138.8444                   20064137.3674
 -24043801.44547 -18706029.18445  22592738.8054                   22592737.7234
 -22186287.20348 -17256743.73846  21488184.3524                   21488180.9774
 11  7 26  0 45  0.0000000  0  8G10G12G17G28G09G04G27G02
 -13112077.88747  -9749169.81245  22408187.8444                   22408187.9924
  -2120966.75847  -1623069.71944  23830446.1254                   23830444.3204
 -41011306.07448 -31919896.40246  21923071.6644                   21923070.3954
 -47159855.10247 -36682219.26644  22783791.6334                   22783790.9224
 -16606595.88747 -12909855.90245  22187573.1094                   22187573.0164
 -37682370.57448 -29328859.03546  20060902.1954                   20060900.7584
 -24061020.91447 -18719446.96545  22589461.9454                   22589461.2154
 -22283682.38348 -17332636.06246  21469650.5634                   21469647.3204
 11  7 26  0 45 30.0000000  0  8G10G12G17G28G09G04G27G02
 -13235514.22347  -9845353.88345  22384698.5314                   22384698.5314
  -2257750.13347  -1729654.10944  23804416.1254                   23804415.2304
 -41014524.82048 -31922404.52046  21922459.1564                   21922457.5594
 -47123654.80147 -36654011.32844  22790680.2344                   22790680.1374
 -16628901.60247 -12927237.00045  22183328.4144                   22183328.0124
 -37698852.32448 -29341701.96146  20057765.8524                   20057764.4734
 -24077775.47747 -18732502.48045  22586273.3204                   22586272.7274
 -22380689.59047 -17408226.07446  21451190.5704                   21451186.9414
 11  7 26  0 46  0.0000000  0  8G10G12G17G28G09G04G27G02
 -13358631.43047  -9941289.26645  22361270.4384                   22361269.9224
  -2394425.75847  -1836154.56244  23778408.2114                   23778407.5704
 -41017614.93047 -31924812.41046  21921871.0634                   21921869.4224
 -47087081.34047 -36625512.61344  22797639.8754                   22797639.7344
 -16650566.86747 -12944119.05945  22179205.5164                   22179205.2034
 -37714799.07848 -29354128.00846  20054731.1484                   20054729.8054
 -24094057.45747 -18745189.75445  22583175.1724                   22583174.2664
 -22477299.15648 -17483506.23046  21432806.4304                   21432802.8324
 11  7 26  0 46 30.0000000  0  8G10G12G17G28G09G04G27G02
 -13481425.46547 -10036972.85245  22337903.2114                   22337902.8134
  -2530990.94147  -1942568.95344  23752420.1174                   23752419.8094
 -41020575.77747 -31927119.58645  21921307.9454                   21921306.0084
 -47050135.03147 -36596723.39144  22804670.7114                   22804670.5554
 -16671592.51247 -12960502.68745  22175204.6804                   22175204.2734
 -37730212.28948 -29366138.30946  20051798.7894                   20051796.8954
 -24109867.77047 -18757509.48445  22580166.6804                   22580165.4264
 -22573509.89848 -17558475.62146  21414497.8594                   21414494.4494
 11  7 26  0 47  0.0000000  0  8G10G12G17G28G09G04G27G02
 -13603896.02047 -10132404.36345  22314597.7034                   22314597.5474
  -2667446.50846  -2048897.93744  23726453.3914                   23726452.5904
 -41023410.30547 -31929328.33246  21920768.3594                   21920766.9694
 -47012819.89847 -36567646.73044  22811771.8594                   22811770.7704
 -16691983.12147 -12976391.49645  22171324.9384                   22171323.8484
 -37745096.59848 -29377736.47346  20048965.9614                   20048964.5784
 -24125211.07047 -18769465.31645  22577246.6254                   22577245.6484
 -22669324.48848 -17633136.32046  21396265.1174                   21396261.6024
 11  7 26  0 47 30.0000000  0  8G10G12G17G28G09G04G27G02
 -13726033.43047 -10227576.28945  22291355.4064                   22291355.5204
  -2803784.23846  -2155135.08244  23700510.0784                   23700508.1374
 -41026112.02747 -31931433.60246  21920254.2194                   21920252.7424
 -46975130.96147 -36538278.81644  22818943.5704                   22818942.7974
 -16711734.38747 -12991782.10945  22167566.0474                   22167565.3164
 -37759447.77348 -29388919.19946  20046234.7504                   20046233.3594
 -24140082.62547 -18781053.55145  22574417.2664                   22574416.1764
 -22764736.12948 -17707483.02046  21378108.8834                   21378105.2814
 11  7 26  0 48  0.0000000  0  8G10G12G17G28G09G04G27G02
 -13847841.49647 -10322491.59045  22268176.5314                   22268176.2384
  -2940009.15247  -2261284.33644  23674587.0314                   23674585.1564
 -41028687.80547 -31933440.72746  21919764.1884                   21919762.6724
 -46937076.81247 -36508626.33244  22826185.2664                   22826184.7114
 -16730854.87947 -13006681.21145  22163926.9844                   22163926.4184
 -37773274.50448 -29399693.25846  20043603.9614                   20043602.6174
 -24154490.95747 -18792280.84845  22571675.0704                   22571674.6214
 -22859751.43448 -17781520.88746  21360028.1094                   21360024.5984
 11  7 26  0 48 30.0000000  0  8G10G12G17G28G09G04G27G02
 -13969311.55947 -10417143.51645  22245061.9694                   22245061.1454
  -3076113.53147  -2367339.68044  23648687.2734                   23648685.8484
 -41031131.92247 -31935345.26246  21919299.1024                   21919297.4494
 -46898652.71947 -36478685.54744  22833497.3134                   22833497.1134
 -16749340.45347 -13021085.57845  22160409.7814                   22160409.4964
 -37786572.98048 -29410055.69146  20041073.3834                   20041071.7894
 -24168432.48847 -18803144.39145  22569022.0084                   22569021.1994
 -22954364.50448 -17855245.32046  21342023.9614                   21342020.5664
 11  7 26  0 49  0.0000000  0  8G10G12G17G28G09G04G27G02
 -14090439.17647 -10511528.60945  22222011.3364                   22222010.9774
  -3212094.06247  -2473298.54344  23622811.5864                   23622810.3244
 -41033443.17247 -31937146.27046  21918859.2814                   21918857.7814
 -46859858.56247 -36448456.42644  22840879.7194                   22840879.1094
 -16767191.95747 -13034995.85945  22157013.0084                   22157011.9774
 -37799344.14548 -29420007.23046  20038642.9534                   20038641.4654
 -24181907.69147 -18813644.58645  22566457.3834                   22566457.3284
 -23048573.84848 -17928655.16446  21324096.3984                   21324092.8834
 11  7 26  0 49 30.0000000  0  8G10G12G17G28G09G04G27G02
 -14211213.21147 -10605638.18745  22199028.9224                   22199028.3524
  -3347940.54347  -2579152.89144  23596960.0394                   23596959.9734
 -41035613.03547 -31938837.09846  21918446.2504                   21918444.7934
 -46820687.48847 -36417933.60544  22848333.4064                   22848333.1054
 -16784403.00447 -13048407.08245  22153737.5084                   22153737.3554
 -37811581.59048 -29429542.88346  20036314.2194                   20036313.1134
 -24194910.02047 -18823776.29345  22563983.3054                   22563983.5474
 -23142370.80948 -18001743.66046  21306247.6024                   21306244.4494
 11  7 26  0 50  0.0000000  0  8G10G12G17G28G09G04G27G02
 -14331638.75047 -10699476.20745  22176112.6094                   22176112.3754
  -3483659.36747  -2684907.77044  23571133.3204                   23571132.7074
 -41037649.87147 -31940424.27346  21918058.9384                   21918057.2504
 -46781149.05147 -36387124.53544  22855857.3914                   22855857.2894
 -16800983.98847 -13061327.33645  22150582.0704                   22150581.9924
 -37823295.82048 -29438670.82446  20034085.0554                   20034083.4804
 -24207449.87947 -18833547.64845  22561597.0164                   22561596.6564
 -23235763.34848 -18074517.01246  21288475.5634                   21288472.2894
 11  7 26  0 50 30.0000000  0  8G10G12G17G28G09G04G27G02
 -14451713.19547 -10793040.64545  22153263.1644                   22153262.8054
  -3619248.84847  -2790561.89844  23545331.3984                   23545329.5744
 -41039554.58647 -31941908.50046  21917696.6414                   21917694.7384
 -46741245.24247 -36356030.75444  22863450.7114                   22863450.5004
 -16816937.04747 -13073758.30145  22147546.6174                   22147545.4694
 -37834489.13348 -29447392.85946  20031955.0554                   20031953.6604
 -24219529.38747 -18842960.27745  22559298.3674                   22559297.7704
 -23328751.84048 -18146975.52346  21270779.9384                   21270776.5274
 11  7 26  0 51  0.0000000  0  8G10G12G17G28G09G04G27G02
 -14571429.13347 -10886325.73045  22130482.2424                   22130481.2814
  -3754702.83247  -2896110.38344  23519555.5314                   23519554.4844
 -41041322.11347 -31943285.82846  21917359.8914                   21917358.7624
 -46700972.87547 -36324649.77044  22871115.0944                   22871114.5124
 -16832259.77347 -13085698.08645  22144630.7034                   22144630.2664
 -37845159.41048 -29455707.32846  20029924.4144                   20029923.1294
 -24231145.98047 -18852012.20345  22557088.1484                   22557088.0274
 -23421331.79348 -18219115.68446  21253162.4534                   21253159.7344
 11  7 26  0 51 30.0000000  0  8G10G12G17G28G09G04G27G02
 -14690783.29347 -10979328.89545  22107769.0864                   22107769.2894
  -3890019.49247  -3001551.86744  23493805.9534                   23493804.6724
 -41042952.82847 -31944556.54746  21917049.8524                   21917048.4654
 -46660333.43747 -36292982.75444  22878848.4774                   22878848.2704
 -16846954.54747 -13097148.55945  22141834.0084                   22141833.5594
 -37855309.03548 -29463616.09846  20027992.9384                   20027990.9884
 -24242301.76647 -18860705.05145  22554965.3594                   22554965.1134
 -23513503.26648 -18290937.55146  21235622.9454                   21235619.8524
 11  7 26  0 52  0.0000000  0  8G10G12G17G28G09G04G27G02
 -14809773.08647 -11072048.14845  22085126.3674                   22085125.9304
  -4025196.82047  -3106884.77044  23468082.2344                   23468082.1054
 -41044446.90247 -31945720.78546  21916766.0314                   21916764.1054
 -46619328.74247 -36261031.15644  22886651.2974                   22886651.1644
 -16861023.52047 -13108111.39845  22139157.1414                   22139156.2664
 -37864939.83248 -29471120.58646  20026160.1254                   20026158.7274
 -24252998.66447 -18869040.32445  22552930.0004                   22552929.6604
 -23605266.07048 -18362440.97346  21218161.1564                   21218157.7464
 11  7 26  0 52 30.0000000  0  8G10G12G17G28G09G04G27G02
 -14928397.07047 -11164482.34445  22062552.9844                   22062553.1374
  -4160234.38747  -3212108.75444  23442385.3284                   23442384.4024
 -41045805.96147 -31946779.81246  21916506.9224                   21916505.5004
 -46577961.48447 -36228797.02344  22894523.2274                   22894522.4184
 -16874470.37147 -13118589.46945  22136597.8524                   22136597.7704
 -37874055.62548 -29478223.76646  20024425.4844                   20024424.1294
 -24263240.50447 -18877021.00045  22550980.8204                   22550981.1024
 -23696621.42248 -18433626.89146  21200776.5554                   21200773.1174
 11  7 26  0 53  0.0000000  0  8G10G12G17G28G09G04G27G02
 -15046656.32847 -11256632.34845  22040049.1334                   22040048.3284
  -4295134.42647  -3317225.60944  23416714.6954                   23416713.8984
 -41047034.03547 -31947736.77346  21916273.1254                   21916271.6414
 -46536237.50847 -36196284.89144  22902463.3054                   22902462.8554
 -16887301.19547 -13128587.51645  22134156.8524                   22134156.0004
 -37882662.93748 -29484930.75046  20022787.6254                   20022786.1954
 -24273033.25447 -18884651.74245  22549117.2504                   22549117.2774
 -23787573.91048 -18504498.90246  21183469.2664                   21183465.5354
 11  7 26  0 53 30.0000000  0  8G10G12G17G28G09G04G27G02
 -15164539.46947 -11348489.23445  22017616.2734                   22017615.7304
  -4429887.03947  -3422227.54344  23391071.5704                   23391070.8524
 -41048122.99248 -31948585.31645  21916066.1644                   21916064.2034
 -46494150.01247 -36163489.51644  22910471.7814                   22910472.1684
 -16899510.13347 -13138100.98845  22131833.4384                   22131832.9144
 -37890755.88748 -29491236.90646  20021247.2974                   20021245.6764
 -24282370.80547 -18891927.76245  22547340.2894                   22547339.9924
 -23878114.92248 -18575050.27046  21166239.1644                   21166235.9024
 11  7 26  0 54  0.0000000  0  8G10G12G17G28G09G04G27G02
 -15282048.83247 -11440054.90245  21995254.8204                   21995254.6804
  -4564494.80147  -3527116.67644  23365457.2344                   23365455.8984
 -41049077.46947 -31949329.08245  21915884.5474                   21915882.5984
 -46451705.34847 -36130415.85244  22918548.7034                   22918549.4774
 -16911104.23047 -13147135.37545  22129626.8674                   22129626.6844
 -37898341.22748 -29497147.55946  20019804.3134                   20019802.6684
 -24291260.02347 -18898854.46545  22545648.7114                   22545649.0004
 -23968249.25848 -18645284.77346  21149087.3754                   21149084.0314
 11  7 26  0 54 30.0000000  0  8G10G12G17G28G09G04G27G02
 -15399176.75447 -11531323.31245  21972966.2664                   21972965.8324
  -4698951.65247  -3631888.17244  23339870.6024                   23339869.3484
 -41049893.32847 -31949964.82445  21915729.4304                   21915727.5084
 -46408900.84447 -36097061.77744  22926694.5314                   22926694.4734
 -16922081.32447 -13155688.96945  22127537.8674                   22127537.6054
 -37905416.91848 -29502661.07046  20018457.7584                   20018456.0944
 -24299698.58247 -18905429.98845  22544043.3284                   22544043.0554
 -24057972.55548 -18715198.99646  21132013.2504                   21132009.7304
 11  7 26  0 55  0.0000000  0  8G10G12G17G28G09G04G27G02
 -15515914.11747 -11622287.40245  21950751.7584                   21950751.4454
  -4833249.42247  -3736535.73444  23314314.3674                   23314313.5984
 -41050564.29747 -31950487.66045  21915601.6094                   21915599.5944
 -46365731.44147 -36063423.37144  22934909.6414                   22934909.6054
 -16932437.59447 -13163758.80945  22125567.6094                   22125567.3914
 -37911978.84848 -29507774.26246  20017209.1804                   20017207.4804
 -24307682.45747 -18911651.22345  22542523.7344                   22542523.4224
 -24147278.73048 -18784788.17246  21115019.1954                   21115016.4734
 11  7 26  0 55 30.0000000  0  8G10G12G17G28G09G04G27G02
 -15632266.06247 -11712951.17245  21928610.3984                   21928609.8594
  -4967393.98847  -3841063.90244  23288787.4924                   23288786.6174
 -41051098.59847 -31950904.00046  21915499.7344                   21915498.4264
 -46322207.25447 -36029508.50444  22943192.2814                   22943192.6294
 -16942183.28547 -13171352.85945  22123712.8054                   22123712.6214
 -37918037.71948 -29512495.45746  20016055.9064                   20016054.4494
 -24315221.95347 -18917526.17244  22541089.0314                   22541088.4924
 -24236176.16048 -18854058.85546  21098102.3834                   21098098.8244
 11  7 26  0 56  0.0000000  0  8G10G12G17G28G09G04G27G02
 -15748233.84847 -11803315.59845  21906542.7894                   21906542.4224
  -5101387.34047  -3945474.19944  23263289.5944                   23263289.0204
 -41051500.29347 -31951217.02745  21915423.3984                   21915422.0314
 -46278333.83247 -35995321.50444  22951540.4064                   22951541.3554
 -16951324.71147 -13178476.08645  22121973.5634                   22121973.3674
 -37923599.52748 -29516829.34046  20014997.5864                   20014996.1334
 -24322322.99647 -18923059.48445  22539737.6484                   22539738.0664
 -24324668.21548 -18923013.66846  21081263.3134                   21081259.7974
 11  7 26  0 56 30.0000000  0  8G10G12G17G28G09G04G27G02
 -15863811.46947 -11893376.00445  21884548.7584                   21884548.0904
  -5235224.75047  -4049763.01644  23237821.3204                   23237819.8634
 -41051766.25447 -31951424.26246  21915372.9694                   21915371.3714
 -46234109.42247 -35960861.00844  22959956.5864                   22959957.0394
 -16959861.35547 -13185128.04745  22120349.1254                   22120348.5944
 -37928663.83648 -29520775.56246  20014033.8754                   20014032.2934
 -24328984.85247 -18928250.57045  22538470.1254                   22538470.0864
 -24412752.03148 -18991650.38346  21064501.2814                   21064497.6644
 11  7 26  0 57  0.0000000  0  9G10G12G17G28G05G09G04G27G02
 -15978995.56247 -11983129.77045  21862629.7734                   21862629.6724
  -5368903.85247  -4153928.44144  23212382.9614                   23212381.7734
 -41051896.09847 -31951525.42246  21915347.9384                   21915346.8284
 -46189535.70347 -35926128.31644  22968438.5864                   22968438.6024
   4514003.71556   3545992.02053  24560135.1094                   24560138.7344
 -16967795.39147 -13191310.43745  22118839.4304                   22118839.0664
 -37933232.54348 -29524335.60246  20013164.6254                   20013162.7584
 -24335209.39147 -18933100.87945  22537285.5944                   22537285.5944
 -24500427.71548 -19059969.05946  21047817.1954                   21047813.2774
 11  7 26  0 57 30.0000000  0  9G10G12G17G28G05G09G04G27G02
 -16093781.01247 -12072572.91445  21840787.1564                   21840786.6604
  -5502420.48047  -4257967.27345  23186975.0004                   23186974.0514
 -41051887.68747 -31951518.83646  21915349.4844                   21915347.8284
 -46144611.82447 -35891122.78144  22976987.3364                   22976987.9694
   4369097.01246   3433078.00443  24532559.0554                   24532563.7424
 -16975126.73447 -13197023.20745  22117444.1334                   22117443.8404
 -37937305.62148 -29527509.44546  20012389.6564                   20012387.9414
 -24340996.44947 -18937610.31245  22536184.5234                   22536184.4184
 -24587692.69548 -19127967.71946  21031211.0944                   21031207.5124
 11  7 26  0 58  0.0000000  0  9G10G12G17G28G05G09G04G27G02
 -16208163.80947 -12161702.28945  21819020.9064                   21819020.4964
  -5635771.10947  -4361876.73044  23161599.2814                   23161597.4694
 -41051739.72347 -31951403.52045  21915377.7664                   21915376.3524
 -46099338.14147 -35855844.66844  22985602.9694                   22985602.9224
   4224149.73046   3320132.41043  24504976.1564                   24504980.7074
 -16981856.58647 -13202267.28545  22116163.5474                   22116163.2814
 -37940884.09448 -29530297.87146  20011708.3364                   20011706.6644
 -24346346.98047 -18941779.58645  22535166.3914                   22535166.1054
 -24674545.94148 -19195645.55146  21014683.4144                   21014679.9454
 11  7 26  0 58 30.0000000  0  9G10G12G17G28G05G09G04G27G02
 -16322155.68747 -12250527.06245  21797328.6334                   21797328.5474
  -5768968.60247  -4465666.84844  23136252.1414                   23136250.8834
 -41051466.85247 -31951190.89145  21915429.6724                   21915428.1844
 -46053731.11747 -35820306.80144  22994281.3284                   22994281.6294
   4079149.64546   3207145.62543  24477383.0084                   24477387.3594
 -16988002.45347 -13207056.31245  22114994.3594                   22114993.3524
 -37943985.20348 -29532714.33646  20011118.5314                   20011116.9774
 -24351278.10247 -18945622.05945  22534228.0864                   22534227.8794
 -24761002.44148 -19263014.22746  20998231.2664                   20998227.6524
 11  7 26  0 59  0.0000000  0  9G10G12G17G28G05G09G04G27G02
 -16435743.25047 -12339036.80145  21775713.5084                   21775713.0704
  -5902000.30947  -4569327.78144  23110936.5394                   23110935.5664
 -41051058.16848 -31950872.44145  21915507.3524                   21915505.9144
 -46007781.59447 -35784502.07844  23003025.8524                   23003025.3634
   3934109.73446   3094127.81343  24449782.9924                   24449787.2894
 -16993555.35247 -13211383.30145  22113937.5944                   22113937.1454
 -37946600.17648 -29534751.98046  20010620.6024                   20010619.5164
 -24355781.17647 -18949130.98845  22533371.2114                   22533370.5904
 -24847051.25448 -19330065.22346  20981857.0704                   20981853.4654
 11  7 26  0 59 30.0000000  0  9G10G12G17G28G05G09G04G27G02
 -16548924.75047 -12427230.11345  21754175.6954                   21754175.5434
  -6034865.60247  -4672859.02345  23085654.1334                   23085653.3364
 -41050515.46947 -31950449.55545  21915610.7274                   21915609.4344
 -45961492.84047 -35748433.01644  23011834.4844                   23011834.4184
   3789030.84446   2981079.59843  24422175.5084                   24422179.3754
 -16998519.90647 -13215251.82045  22112992.8364                   22112992.6884
 -37948733.10548 -29536414.01246  20010214.8134                   20010213.3714
 -24359860.16447 -18952309.44945  22532595.0164                   22532594.5434
 -24932694.24248 -19396799.97746  20965559.3204                   20965556.0234
 11  7 26  1  0  0.0000000  0  9G10G12G17G28G05G09G04G27G02
 -15086270.48047 -11287499.44945  22032510.0314                   22032509.0204
  -4592134.74647  -3548653.06645  23360196.5784                   23360195.7704
 -39474415.29347 -30722319.54745  22215532.8204                   22215531.4184
 -44339444.41047 -34484499.25843  23320499.8134                   23320499.6454
   5219343.33146   4095609.08743  24694354.7274                   24694358.0554
 -15427474.96147 -11991061.00445  22411953.2664                   22411952.1134
 -36374963.20348 -28310099.80946  20309693.4064                   20309692.3094
 -22788093.63747 -17727556.36745  22831692.3594                   22831692.1414
 -23442505.21948 -18235613.70746  21249132.8834                   21249129.7034
 11  7 26  1  0 30.0000000  0  9G10G12G17G28G05G09G04G27G02
 -15198623.64147 -11375047.31645  22011129.6804                   22011128.9694
  -4724653.38347  -3651914.22345  23334978.8984                   23334977.7154
 -39473596.32047 -30721681.37545  22215688.4224                   22215686.9884
 -44292474.16047 -34447899.15243  23329437.9454                   23329437.7034
   5074201.31346   3982511.67643  24666734.8524                   24666738.3244
 -15431262.18747 -11994012.11745  22411232.3284                   22411231.2854
 -36376131.49648 -28311010.17246  20309471.2974                   20309469.6374
 -22791323.03547 -17730072.84045  22831077.1414                   22831077.7344
 -23527328.84848 -18301710.01246  21232991.5944                   21232988.4024
 11  7 26  1  1  0.0000000  0  9G10G12G17G28G05G09G04G27G02
 -15310560.65247 -11462270.90645  21989828.6484                   21989828.1564
  -4856997.62547  -3755039.50844  23309794.4614                   23309792.6684
 -39472641.64547 -30720937.45345  22215870.1254                   22215868.5824
 -44245168.36347 -34411037.61744  23338439.9614                   23338440.0984
   4929028.30946   3869390.13743  24639108.9774                   24639112.9884
 -15434466.75847 -11996509.22345  22410622.6094                   22410621.7504
 -36376823.21148 -28311549.17646  20309339.8054                   20309337.7504
 -22794133.55947 -17732262.89845  22830542.6174                   22830542.8284
 -23611745.29348 -18367489.02346  21216927.7584                   21216924.0434
 11  7 26  1  1 30.0000000  0  9G10G12G17G28G05G09G04G27G02
 -15422075.80547 -11549165.76645  21968608.0164                   21968607.4414
  -4989163.03947  -3858025.46544  23284643.8524                   23284641.9734
 -39471547.87948 -30720085.16445  22216078.4454                   22216076.6454
 -44197525.46147 -34373913.35543  23347506.9224                   23347506.2464
   4783829.90646   3756248.80944  24611478.1094                   24611482.5984
 -15437088.24647 -11998551.96145  22410123.6954                   22410123.2894
 -36377038.08248 -28311716.60546  20309298.5784                   20309297.2504
 -22796524.36347 -17734125.91045  22830087.7274                   22830087.9654
 -23695751.93448 -18432948.70346  21200941.6024                   21200938.2854
 11  7 26  1  2  0.0000000  0  9G10G12G17G28G05G09G04G27G02
 -15533174.62947 -11635736.22345  21947466.4844                   21947465.5704
  -5121155.68747  -3960876.80945  23259527.0944                   23259525.2114
 -39470323.51247 -30719131.11745  22216310.8984                   22216309.5664
 -44149555.50047 -34336534.27044  23356635.2664                   23356634.5824
   4638600.12946   3643083.05144  24583842.0164                   24583846.0514
 -15439137.89147 -12000149.12145  22409733.1884                   22409733.4574
 -36376786.65248 -28311520.68446  20309346.5474                   20309344.5664
 -22798506.11747 -17735670.19945  22829711.5554                   22829710.2934
 -23779357.09848 -18498095.54746  21185032.0164                   21185029.0084
 11  7 26  1  2 30.0000000  0  9G10G12G17G28G05G09G04G27G02
 -15643853.71147 -11721979.59445  21926404.8524                   21926404.0044
  -5252972.91847  -4063591.46145  23234442.9774                   23234441.1884
 -39468967.94948 -30718074.84845  22216569.2114                   22216567.5984
 -44101259.78547 -34298901.33644  23365825.5084                   23365825.5164
   4493342.10946   3529895.27044  24556200.1804                   24556204.2114
 -15440617.50047 -12001302.09045  22409452.4844                   22409451.5394
 -36376070.68448 -28310962.77346  20309482.4144                   20309481.2464
 -22800080.41047 -17736896.94145  22829410.7584                   22829411.0514
 -23862560.54348 -18562929.35546  21169199.1024                   21169195.7304
 11  7 26  1  3  0.0000000  0  9G10G12G17G28G05G09G04G27G02
 -15754102.99247 -11807888.04345  21905425.2894                   21905424.6214
  -5384605.21947  -4166162.05145  23209394.3834                   23209392.9024
 -39467474.31648 -30716910.99645  22216853.3134                   22216852.1414
 -44052632.80147 -34261010.27344  23375078.9224                   23375079.1914
   4348065.10246   3416692.67644  24528554.5704                   24528558.6684
 -15441523.01247 -12002007.69945  22409279.9844                   22409278.8164
 -36374885.57048 -28310039.31246  20309707.9304                   20309706.8714
 -22801242.83647 -17737802.77045  22829190.0004                   22829190.2234
 -23945355.24648 -18627444.66446  21153443.6334                   21153440.2774
 11  7 26  1  3 30.0000000  0  9G10G12G17G28G05G09G04G27G02
 -15863928.86347 -11893466.56245  21884525.7894                   21884525.3444
  -5516060.14147  -4268594.40245  23184379.2584                   23184377.4184
 -39465851.27747 -30715646.29745  22217162.2584                   22217160.8284
 -44003685.63347 -34222869.74243  23384392.8754                   23384393.7344
   4202762.14846   3303469.84844  24500904.0554                   24500907.7854
 -15441865.96147 -12002274.95745  22409214.6024                   22409213.9104
 -36373242.94548 -28308759.34046  20310020.8134                   20310019.3874
 -22802004.57847 -17738396.37145  22829045.1254                   22829045.0824
 -24027750.61348 -18691648.79746  21137764.1564                   21137760.6254
 11  7 26  1  4  0.0000000  0  9G10G12G17G28G05G09G04G27G02
 -15973314.93047 -11978702.37145  21863710.3914                   21863710.0594
  -5647321.83647  -4370876.21545  23159400.8134                   23159399.3364
 -39464085.09847 -30714270.05145  22217498.3364                   22217496.5984
 -43954406.32046 -34184470.36743  23393770.9144                   23393771.0634
   4057449.55146   3190239.47744  24473252.1884                   24473255.7774
 -15441635.38747 -12002095.29745  22409258.2344                   22409258.4964
 -36371131.44948 -28307114.02746  20310422.5164                   20310421.1844
 -22802354.55147 -17738669.12144  22828978.5004                   22828977.9264
 -24109733.10548 -18755531.20746  21122163.5394                   21122160.1134
 11  7 26  1  4 30.0000000  0  9G10G12G17G28G05G09G04G27G02
 -16082263.46547 -12063597.25445  21842977.9304                   21842977.3834
  -5778393.16847  -4473009.70745  23134457.3754                   23134456.9024
 -39462180.30547 -30712785.80145  22217860.8204                   22217859.2584
 -43904801.55546 -34145817.40244  23403210.4144                   23403210.6054
   3912124.56646   3076999.48444  24445597.1484                   24445601.3714
 -15440838.86747 -12001474.66845  22409409.8204                   22409410.6764
 -36368558.50048 -28305109.13746  20310912.3444                   20310910.8634
 -22802300.30947 -17738626.88345  22828989.7344                   22828988.4844
 -24191307.94548 -18819095.98046  21106640.3594                   21106636.6294
 11  7 26  1  5  0.0000000  0  9G10G12G17G28G05G09G04G27G02
 -16190778.00847 -12148153.94945  21822328.4694                   21822327.7704
  -5909278.24647  -4574998.08244  23109551.7194                   23109549.4884
 -39460144.09048 -30711199.14845  22218248.5704                   22218247.2854
 -43854879.67246 -34106917.36344  23412710.1254                   23412711.4144
   3766783.34446   2963746.82444  24417939.3754                   24417943.2544
 -15439485.72347 -12000420.29745  22409667.2664                   22409667.8444
 -36365533.13748 -28302751.71546  20311488.0394                   20311486.2304
 -22801850.39147 -17738276.32445  22829074.2974                   22829074.7304
 -24272482.10948 -18882348.51646  21091193.1174                   21091190.1294
 11  7 26  1  5 30.0000000  0  9G10G12G17G28G05G09G04G27G02
 -16298849.75847 -12232365.60945  21801762.9614                   21801762.2344
  -6039969.17647  -4676835.18745  23084682.6024                   23084680.4574
 -39457970.28948 -30709505.30146  22218662.4534                   22218660.6954
 -43804636.19546 -34067766.69544  23422271.6334                   23422271.9024
   3621433.96146   2850487.80544  24390280.3834                   24390283.9494
 -15437572.62947 -11998929.58645  22410031.8754                   22410031.2704
 -36362051.73848 -28300038.94946  20312150.1024                   20312149.1024
 -22801001.29747 -17737614.73045  22829236.5554                   22829236.4184
 -24353249.51248 -18945284.12146  21075823.7814                   21075820.5274
 11  7 26  1  6  0.0000000  0  9G10G12G17G28G05G09G04G27G02
 -16406478.73447 -12316232.25045  21781281.9144                   21781281.0704
  -6170466.46147  -4778521.39145  23059849.4614                   23059847.9224
 -39455661.10247 -30707705.94945  22219101.5944                   22219099.5474
 -43754075.78546 -34028369.09043  23431892.5704                   23431892.8914
   3476076.54346   2737222.55544  24362618.9384                   24362623.2034
 -15435104.96147 -11997006.75845  22410501.1254                   22410501.6564
 -36358119.23848 -28296974.66046  20312898.6484                   20312897.5084
 -22799758.04347 -17736645.98445  22829472.6724                   22829472.8984
 -24433613.01648 -19007904.98446  21060531.1644                   21060527.5634
 11  7 26  1  6 30.0000000  0  9G10G12G17G28G05G09G04G27G02
 -16513657.38747 -12399748.01645  21760886.2194                   21760885.5554
  -6300763.11347  -4880051.23045  23035054.5394                   23035053.4104
 -39453211.48448 -30705797.16445  22219568.0164                   22219566.1254
 -43703195.97346 -33988722.56244  23441575.0864                   23441575.8094
   3330717.87946   2623956.34043  24334958.9614                   24334961.9574
 -15432080.78147 -11994650.26645  22411076.7114                   22411076.9924
 -36353733.72748 -28293557.37146  20313733.1024                   20313731.9534
 -22798118.42647 -17735368.39545  22829784.4844                   22829785.5824
 -24513568.60248 -19070208.00446  21045315.8284                   21045312.3094
 11  7 26  1  7  0.0000000  0  9G10G12G17G28G05G09G04G27G02
 -16620388.53147 -12482915.06245  21740575.8054                   21740575.5984
  -6430862.28147  -4981427.14845  23010297.3364                   23010296.5164
 -39450626.89147 -30703783.19545  22220059.5634                   22220058.1564
 -43652003.45346 -33948832.37543  23451316.3524                   23451317.2504
   3185355.12546   2510686.91443  24307296.8914                   24307299.9304
 -15428508.00447 -11991866.30145  22411756.2974                   22411756.8874
 -36348902.65648 -28289792.89146  20314652.5234                   20314651.3244
 -22796089.89547 -17733787.76245  22830170.5084                   22830170.8794
 -24593121.43048 -19132197.17646  21030177.4064                   21030174.1564
 11  7 26  1  7 30.0000000  0  9G10G12G17G28G05G09G04G27G02
 -16726665.58647 -12565728.27745  21720352.1094                   21720351.5084
  -6560758.17247  -5082644.66445  22985578.8594                   22985577.9844
 -39447903.62147 -30701661.17246  22220577.6884                   22220576.7544
 -43600496.52747 -33908697.18444  23461117.7344                   23461118.5904
   3039994.34446   2397419.02043  24279635.3204                   24279638.4734
 -15424386.28947 -11988654.58645  22412540.7974                   22412541.4104
 -36343625.16848 -28285680.55146  20315656.9454                   20315655.4534
 -22793671.69947 -17731903.48044  22830631.2034                   22830631.6374
 -24672268.36748 -19193870.06646  21015116.5704                   21015113.1254
 11  7 26  1  8  0.0000000  0  9G10G12G17G28G05G09G04G27G02
 -16832485.12947 -12648184.99645  21700215.3444                   21700214.6524
  -6690448.17247  -5183701.75445  22960899.3834                   22960898.5044
 -39445040.41448 -30699430.10945  22221122.9384                   22221121.4344
 -43548676.27747 -33868317.84843  23470979.4844                   23470979.2114
   2894638.59046   2284155.09443  24251974.5474                   24251977.9144
 -15419717.52347 -11985016.59445  22413429.0864                   22413428.9804
 -36337902.84048 -28281221.57846  20316745.7424                   20316744.4104
 -22790865.46147 -17729716.82044  22831165.1174                   22831165.5354
 -24751009.00048 -19255226.36346  21000132.5864                   21000128.9654
 11  7 26  1  8 30.0000000  0  9G10G12G17G28G05G09G04G27G02
 -16937838.77347 -12730278.67645  21680166.9694                   21680166.6374
  -6819924.36747  -5284592.27345  22936261.8284                   22936260.0204
 -39442032.30148 -30697086.12945  22221695.0004                   22221693.6804
 -43496538.99247 -33827691.45743  23480901.0234                   23480900.6724
   2749296.13346   2170901.49643  24224317.3134                   24224319.9344
 -15414498.75047 -11980950.01245  22414422.1884                   22414422.4104
 -36331732.74248 -28276413.69946  20317919.8364                   20317918.5044
 -22787667.84447 -17727225.20344  22831773.5234                   22831773.4264
 -24829338.19948 -19316262.06646  20985226.6804                   20985223.7304
 11  7 26  1  9  0.0000000  0  9G10G12G17G28G05G09G04G27G02
 -17042740.97747 -12812020.58645  21660204.8364                   21660204.2584
  -6949201.70347  -5385327.80545  22911660.9224                   22911659.5164
 -39438895.99248 -30694642.26245  22222291.9454                   22222290.4454
 -43444103.53547 -33786832.72743  23490878.4304                   23490878.7344
   2603952.24646   2057646.81644  24196658.6174                   24196661.5554
 -15408750.26247 -11976470.66445  22415516.4384                   22415516.2034
 -36325134.22348 -28271271.98046  20319175.4064                   20319174.2274
 -22784098.48047 -17724443.89844  22832453.1484                   22832452.3094
 -24907273.11348 -19376990.53546  20970396.3364                   20970393.1954
 11  7 26  1  9 30.0000000  0  9G10G12G17G28G05G09G04G27G02
 -17147180.12147 -12893401.67645  21640330.7114                   21640329.6174
  -7078268.98447  -5485899.65245  22887099.5164                   22887098.3594
 -39435622.28947 -30692091.32045  22222914.8284                   22222913.4184
 -43391363.08246 -33745736.34443  23500915.3754                   23500915.5354
   2458618.05946   1944399.66444  24169002.1254                   24169004.9454
 -15402465.94147 -11971573.80945  22416712.2974                   22416712.3634
 -36318101.03948 -28265791.55946  20320513.8674                   20320512.7074
 -22780150.95347 -17721367.91845  22833203.9064                   22833203.7154
 -24984805.32848 -19437405.23446  20955642.7504                   20955638.9384
 11  7 26  1 10  0.0000000  0  9G10G12G17G28G05G09G04G27G02
 -17251153.71947 -12974420.00045  21620545.1414                   21620543.9804
  -7207124.22747  -5586306.20745  22862579.9534                   22862578.0004
 -39432211.13747 -30689433.27745  22223563.6804                   22223562.5234
 -43338319.28946 -33704403.63743  23511009.0554                   23511009.6054
   2313296.37146   1831162.25044  24141348.5944                   24141351.0204
 -15395648.81247 -11966261.76645  22418009.5164                   22418009.7194
 -36310635.61748 -28259974.34046  20321934.5474                   20321932.6724
 -22775827.98047 -17717999.37545  22834026.6414                   22834026.2774
 -25061935.06248 -19497506.28946  20940965.1644                   20940961.6844
 11  7 26  1 10 30.0000000  0  9G10G12G17G28G05G09G04G27G02
 -17354656.22747 -13055071.25045  21600849.2194                   21600848.2034
  -7335762.21947  -5686543.49645  22838100.0704                   22838098.5944
 -39428659.55147 -30686665.79345  22224239.8134                   22224238.4064
 -43284971.43046 -33662834.00043  23521161.5234                   23521161.1024
   2167992.60947   1717938.79744  24113697.5474                   24113700.4494
 -15388299.13347 -11960534.73845  22419408.1884                   22419408.1564
 -36302737.74648 -28253820.14146  20323437.3204                   20323435.8834
 -22771129.21547 -17714338.02044  22834920.6174                   22834920.9804
 -25138659.95748 -19557291.88746  20926364.8524                   20926361.5434
 11  7 26  1 11  0.0000000  0  9G10G12G17G28G05G09G04G27G02
 -17457683.62147 -13135352.27345  21581243.7504                   21581242.6174
  -7464179.61347  -5786608.87945  22813663.7344                   22813661.8874
 -39424965.67648 -30683787.44545  22224942.8444                   22224941.4384
 -43231320.37146 -33621028.07043  23531371.0704                   23531370.5984
   2022710.30946   1604732.06644  24086050.7034                   24086054.3204
 -15380418.17247 -11954393.72744  22420907.5394                   22420907.3984
 -36294408.52048 -28247329.83646  20325022.4694                   20325021.0234
 -22766055.80147 -17710384.73845  22835886.8444                   22835886.5784
 -25214979.00048 -19616761.23046  20911841.6024                   20911838.1334
 11  7 26  1 11 30.0000000  0  9G10G12G17G28G05G09G04G27G02
 -17560235.37947 -13215262.68445  21561728.9454                   21561727.8524
  -7592376.48847  -5886502.45345  22789269.0004                   22789266.6134
 -39421132.07047 -30680800.22345  22225672.0864                   22225670.7664
 -43177369.72746 -33578988.70743  23541636.9534                   23541637.4414
   1877449.40247   1491542.02044  24058408.4924                   24058411.9884
 -15372011.02347 -11947842.70344  22422507.2424                   22422507.1484
 -36285652.60948 -28240507.05146  20326688.5864                   20326687.2854
 -22760612.48047 -17706143.20744  22836922.2734                   22836922.5274
 -25290895.03148 -19675916.54746  20897395.2894                   20897391.8244
 11  7 26  1 12  0.0000000  0  9G10G12G17G28G05G09G04G27G02
 -17662319.48447 -13294808.67645  21542302.6564                   21542301.5474
  -7720361.12547  -5986230.65645  22764914.0704                   22764911.7074
 -39417169.16847 -30677712.25845  22226426.6564                   22226424.7734
 -43123131.78146 -33536725.50443  23551958.0864                   23551958.7664
   1732202.10247   1378362.55144  24030768.6174                   24030771.5354
 -15363091.27047 -11940892.25045  22424204.1954                   22424204.9774
 -36276483.10548 -28233361.98846  20328433.3134                   20328431.9414
 -22754812.57047 -17701623.82844  22838026.0164                   22838026.3914
 -25366418.80548 -19734766.19946  20883023.6954                   20883020.0634
 11  7 26  1 12 30.0000000  0  9G10G12G17G28G05G09G04G27G02
 -17763924.29747 -13373981.20745  21522967.6644                   21522967.1094
  -7848122.27747  -6085784.70745  22740601.0314                   22740599.3244
 -39413067.36348 -30674516.05145  22227206.6174                   22227205.0434
 -43068599.81246 -33494233.17643  23562335.4144                   23562336.1764
   1586979.75446   1265202.53144  24003133.6334                   24003136.4844
 -15353653.27347 -11933537.98045  22426000.8364                   22426001.0704
 -36266893.82048 -28225889.83246  20330258.0704                   20330256.8364
 -22748649.52747 -17696821.49245  22839198.6884                   22839199.3094
 -25441541.78548 -19793303.55546  20868728.2424                   20868724.2894
 11  7 26  1 13  0.0000000  0  9G10G12G17G28G05G09G04G27G02
 -17865054.88747 -13452784.20745  21503722.8524                   21503722.3634
  -7975665.46547  -6185168.90645  22716330.6094                   22716329.2774
 -39408834.40248 -30671217.64845  22228012.6174                   22228011.1564
 -43013783.65246 -33451519.43043  23572766.3914                   23572767.0984
   1441777.49647   1152058.17244  23975502.8984                   23975505.3404
 -15343707.46547 -11925788.00845  22427893.6484                   22427893.1294
 -36256894.73848 -28218098.35546  20332160.9224                   20332159.5984
 -22742133.69547 -17691744.25045  22840438.3914                   22840438.7974
 -25516272.16048 -19851534.99646  20854507.6094                   20854503.9104
 11  7 26  1 13 30.0000000  0  9G10G12G17G28G05G09G04G27G02
 -17965704.07447 -13531212.09445  21484570.2194                   21484569.6604
  -8102984.09847  -6284378.12145  22692103.0554                   22692101.2774
 -39404465.95347 -30667813.67245  22228843.8444                   22228842.1414
 -42958680.81246 -33408582.26644  23583252.0394                   23583253.9884
   1296602.01247   1038934.66844  23947876.0944                   23947878.9024
 -15333252.32047 -11917641.15245  22429883.1804                   22429883.1174
 -36246483.96148 -28209986.06646  20334142.2664                   20334140.7814
 -22735263.23047 -17686390.66844  22841745.8134                   22841746.1914
 -25590605.76248 -19909457.26246  20840361.8444                   20840358.4654
 11  7 26  1 14  0.0000000  0  9G10G12G17G28G05G09G04G27G02
 -18065861.61747 -13609256.88345  21465511.0314                   21465510.1684
  -8230067.95747  -6383404.41045  22667919.4694                   22667917.8364
 -39399953.54748 -30664297.52045  22229702.2974                   22229700.9734
 -42903285.14146 -33365416.92243  23593794.1174                   23593795.3134
   1151463.79747    925840.20344  23920256.9384                   23920259.4344
 -15322283.27047 -11909093.87145  22431970.4924                   22431970.5394
 -36235656.24248 -28201548.89846  20336202.4924                   20336201.1134
 -22728032.60947 -17680756.46944  22843121.8984                   22843122.3094
 -25664535.26648 -19967064.63746  20826294.0084                   20826289.9494
 11  7 26  1 14 30.0000000  0  9G10G12G17G28G05G09G04G27G02
 -18165529.77747 -13686920.33645  21446544.7734                   21446544.1914
  -8356919.47747  -6482249.64845  22643780.1564                   22643778.3204
 -39395301.94148 -30660672.90645  22230587.2974                   22230585.9804
 -42847603.20746 -33322028.50443  23604390.1024                   23604391.1764
   1006360.75047    812773.14144  23892644.8524                   23892647.5314
 -15310808.05547 -11900152.16445  22434154.7274                   22434153.8284
 -36224418.68748 -28192792.37546  20338341.3134                   20338339.4494
 -22720449.05947 -17674847.25444  22844565.2974                   22844565.7304
 -25738065.77048 -20024361.10246  20812301.5704                   20812297.7034
 11  7 26  1 15  0.0000000  0  9G10G12G17G28G05G09G04G27G02
 -18264709.58647 -13764203.25045  21427671.6804                   21427670.2034
  -8483540.17247  -6580915.03545  22619685.2504                   22619683.3134
 -39390514.38347 -30656942.33645  22231498.7034                   22231497.3554
 -42791640.85546 -33278421.59043  23615039.4534                   23615040.4734
    861291.77047    699732.60944  23865038.6884                   23865041.4924
 -15298833.17247 -11890821.09845  22436433.2894                   22436432.7544
 -36212777.59048 -28183721.40646  20340556.4694                   20340554.5704
 -22712518.66847 -17668667.76644  22846074.2344                   22846074.5084
 -25811201.38348 -20081349.84446  20798384.2734                   20798380.0474
 11  7 26  1 15 30.0000000  0  9G10G12G17G28G05G09G04G27G02
 -18363397.84447 -13841103.12945  21408891.7274                   21408890.7544
  -8609927.17247  -6679398.33645  22595634.3134                   22595632.4654
 -39385590.09847 -30653105.22745  22232435.7114                   22232434.3164
 -42735399.44547 -33234597.18743  23625741.7814                   23625742.7934
    716259.89147    586720.97744  23837440.1174                   23837442.2074
 -15286361.20347 -11881102.68745  22438806.5784                   22438805.1174
 -36200734.82848 -28174337.44946  20342847.9384                   20342846.7194
 -22704243.83247 -17662219.88345  22847649.3674                   22847648.8754
 -25883941.74248 -20138030.59446  20784542.0004                   20784538.3984
 11  7 26  1 16  0.0000000  0  9G10G12G17G28G05G09G04G27G02
 -18461592.59447 -13917618.46545  21390205.5704                   21390204.4534
  -8736078.93747  -6777698.34845  22571628.5784                   22571626.5234
 -39380529.85547 -30649162.18745  22233398.4064                   22233396.7934
 -42678881.51646 -33190557.36343  23636497.0704                   23636497.4494
    571266.86347    473739.62544  23809849.1094                   23809850.4734
 -15273395.77347 -11870999.76645  22441273.7274                   22441272.6094
 -36188293.40248 -28164642.85546  20345215.4774                   20345214.3324
 -22695627.90647 -17655506.21144  22849288.5704                   22849288.4924
 -25956288.21148 -20194404.42646  20770774.8594                   20770771.3634
 11  7 26  1 16 30.0000000  0  9G10G12G17G28G05G09G04G27G02
 -18559289.33647 -13993745.73445  21371614.3674                   21371613.7344
  -8861991.15647  -6875811.68445  22547668.4614                   22547666.4654
 -39375331.39147 -30645111.44945  22234387.6724                   22234386.2384
 -42622087.19947 -33146302.12543  23647304.4844                   23647305.3054
    426317.40647    360792.20744  23782265.8754                   23782267.4224
 -15259938.02347 -11860513.22745  22443834.6254                   22443834.1914
 -36175454.27348 -28154638.35246  20347658.4774                   20347657.3284
 -22686671.28547 -17648527.06244  22850993.1644                   22850993.3054
 -26028239.41048 -20250470.26246  20757082.9224                   20757079.2894
 11  7 26  1 17  0.0000000  0  9G10G12G17G28G05G09G04G27G02
 -18656492.21947 -14069488.16845  21353117.2814                   21353116.3524
  -8987667.86347  -6973741.51645  22523752.4384                   22523750.7854
 -39370000.63347 -30640957.63345  22235402.2584                   22235400.9144
 -42565024.84047 -33101838.02743  23658163.7504                   23658164.0554
    281407.74247    247875.81344  23754690.5004                   23754691.7774
 -15245997.75447 -11849650.69545  22446487.2114                   22446485.7504
 -36162226.27048 -28144330.82046  20350175.8914                   20350174.3754
 -22677383.34047 -17641289.74644  22852760.5394                   22852760.2154
 -26099802.30148 -20306233.53946  20743465.0944                   20743461.4844
 11  7 26  1 17 30.0000000  0  9G10G12G17G28G05G09G04G27G02
 -18753191.44147 -14144838.14845  21334716.1024                   21334714.9844
  -9113099.51647  -7071480.39845  22499883.6024                   22499881.9534
 -39364530.15247 -30636694.92645  22236443.3134                   22236441.9804
 -42507689.33246 -33057161.08643  23669073.7034                   23669074.9454
    136547.69147    134998.08644  23727124.3364                   23727125.8284
 -15231570.71547 -11838408.86345  22449232.4614                   22449231.5084
 -36148604.42648 -28133716.39846  20352768.1644                   20352766.2934
 -22667759.18047 -17633790.43444  22854591.5234                   22854591.7544
 -26170969.75448 -20361688.68446  20729922.1254                   20729918.6804
 11  7 26  1 18  0.0000000  0  9G10G12G17G28G05G09G04G27G02
 -18849381.11347 -14219791.07046  21316411.8134                   21316410.8244
  -9238280.75447  -7169024.15245  22476062.0784                   22476060.5004
 -39358916.54747 -30632320.67645  22237511.5474                   22237509.8874
 -42450079.12146 -33012270.05943  23680037.0394                   23680038.0514
     -8256.82447     22163.64144  23699567.5864                   23699570.2074
 -15216656.80547 -11826787.64845  22452070.9064                   22452069.1884
 -36134588.39148 -28122794.82046  20355435.4534                   20355433.6174
 -22657798.33247 -17626028.76644  22856487.4454                   22856487.6094
 -26241739.33248 -20416833.78946  20716455.3054                   20716451.6644
 11  7 26  1 18 30.0000000  0  9G10G12G17G28G05G09G04G27G02
 -18945062.30147 -14294347.77345  21298204.1414                   21298203.3134
  -9363212.85247  -7266373.77345  22452288.5474                   22452286.7154
 -39353162.75047 -30627837.18445  22238606.3444                   22238604.6094
 -42392199.87546 -32967169.44543  23691051.2424                   23691052.5234
   -153006.88347    -90628.34444  23672022.9144                   23672025.4494
 -15201262.57447 -11814792.17245  22455000.3594                   22454999.2424
 -36120184.10948 -28111570.71146  20358176.6484                   20358174.8674
 -22647507.10247 -17618009.65245  22858446.0234                   22858445.7664
 -26312114.97348 -20471671.90646  20703063.4144                   20703059.7624
 11  7 26  1 19  0.0000000  0  9G10G12G17G28G05G09G04G27G02
 -19040233.40247 -14368506.99245  21280093.5704                   21280092.8714
  -9487893.97747  -7363527.87545  22428562.8444                   22428560.7624
 -39347269.91047 -30623245.34045  22239727.7504                   22239726.3554
 -42334054.53946 -32921861.48443  23702116.0314                   23702117.1214
   -297700.68747   -203376.49244  23644488.6174                   23644490.6764
 -15185392.03547 -11802425.55945  22458020.5164                   22458018.9224
 -36105394.75448 -28100046.54346  20360990.5474                   20360989.0124
 -22636888.51647 -17609735.46544  22860465.9774                   22860466.5904
 -26382098.01248 -20526204.09846  20689746.2274                   20689742.6134
 11  7 26  1 19 30.0000000  0  9G10G12G17G28G05G09G04G27G02
 -19134891.47747 -14442266.46946  21262080.8594                   21262079.6994
  -9612321.35547  -7460484.24645  22404884.3204                   22404882.5824
 -39341236.69548 -30618544.13345  22240875.6884                   22240874.5664
 -42275644.38746 -32876347.16443  23713230.1564                   23713231.8014
   -442334.71946   -316078.05144  23616964.9064                   23616967.1334
 -15169047.57447 -11789689.64145  22461130.3594                   22461129.3444
 -36090222.14148 -28088223.74246  20363877.9454                   20363876.7234
 -22625944.69147 -17601207.83644  22862549.2194                   22862549.2344
 -26451688.17648 -20580430.16046  20676503.0864                   20676499.9414
 11  7 26  1 20  0.0000000  0  9G10G12G17G28G05G09G04G27G02
 -17653616.03947 -13288025.80146  21543958.3444                   21543956.8404
  -8161073.93447  -6329642.04345  22681048.1024                   22681045.8404
 -37759648.76648 -29386137.96145  22541842.0004                   22541840.6254
 -40641558.89546 -31603033.89843  24024186.9224                   24024188.5634
    988512.70747    798868.27344  23889246.3204                   23889248.5274
 -13576818.40647 -10548991.62145  22764121.6484                   22764121.0664
 -34499255.02048 -26848509.10946  20666628.8364                   20666627.2464
 -21039264.30947 -16364833.54344  23164484.0084                   23164484.8134
 -24945469.16448 -19406752.97346  20963126.9694                   20963123.6374
 11  7 26  1 20 30.0000000  0  9G10G12G17G28G05G09G04G27G02
 -17747247.29347 -13360985.15246  21526140.6254                   21526139.8054
  -8284993.93047  -6426203.05545  22657466.2584                   22657465.1844
 -37753341.55548 -29381223.25845  22543042.3834                   22543040.5784
 -40582632.13346 -31557117.01643  24035401.0164                   24035402.0004
    843998.59047    686260.14144  23861745.9534                   23861747.6884
 -13559542.82047 -10535530.16445  22767408.4614                   22767408.8444
 -34483330.89548 -26836100.70346  20669659.2664                   20669657.2194
 -21027685.56647 -16355811.17644  23166687.7504                   23166688.0514
 -25014282.35948 -19460373.63346  20950032.3524                   20950028.9344
 11  7 26  1 21  0.0000000  0  9G10G12G17G28G05G09G04G27G02
 -17840353.99647 -13433535.77045  21508423.3674                   21508422.3054
  -8408649.09847  -6522557.70745  22633935.6024                   22633934.2034
 -37746888.94947 -29376195.26245  22544270.0084                   22544268.4804
 -40523442.49246 -31510995.32843  24046664.4454                   24046665.3054
    699556.15647    573707.86744  23834259.2584                   23834260.9454
 -13541798.72747 -10521703.63345  22770785.3204                   22770784.9804
 -34467027.16448 -26823396.49646  20672761.6024                   20672760.2704
 -21015785.62547 -16346538.53544  23168952.3364                   23168952.9774
 -25082700.59448 -19513686.50846  20937012.7584                   20937009.4734
 11  7 26  1 21 30.0000000  0  9G10G12G17G28G05G09G04G27G02
 -17932948.02347 -13505686.89546  21490802.7894                   21490801.7734
  -8532051.37547  -6618715.30145  22610453.0314                   22610451.4884
 -37740305.28547 -29371065.13745  22545522.8914                   22545521.3164
 -40464006.35946 -31464681.55143  24057974.0784                   24057975.5594
    555173.52747    461202.16844  23806784.2344                   23806786.3204
 -13523604.23847 -10507526.16045  22774248.0314                   22774247.5864
 -34450360.96148 -26810409.84846  20675933.0864                   20675931.6724
 -21003581.62947 -16337028.95344  23171274.6484                   23171275.0904
 -25150738.49648 -19566703.03146  20924065.7114                   20924062.0744
 11  7 26  1 22  0.0000000  0  9G10G12G17G28G05G09G04G27G02
 -18025012.80147 -13577425.62146  21473283.2114                   21473281.9774
  -8655184.09447  -6714662.84845  22587022.1884                   22587019.8324
 -37733576.02048 -29365821.54745  22546803.5164                   22546801.9774
 -40404311.51246 -31418166.14843  24069333.8674                   24069334.5514
    410867.92647    348756.47744  23779323.5234                   23779324.6804
 -13504947.91847 -10492988.80545  22777798.5004                   22777797.8094
 -34433319.99248 -26797131.17246  20679175.8984                   20679174.4884
 -20991061.77747 -16327273.25444  23173657.2344                   23173656.8364
 -25218382.33648 -19619412.50846  20911193.7504                   20911189.9534
 11  7 26  1 22 30.0000000  0  9G10G12G17G28G05G09G04G27G02
 -18116540.55147 -13648745.89545  21455866.2584                   21455865.2544
  -8778039.25047  -6810394.13345  22563642.9534                   22563641.5824
 -37726695.14847 -29360459.82845  22548112.9454                   22548111.4774
 -40344354.48446 -31371446.44143  24080743.5864                   24080744.5904
    266647.58647    236377.21944  23751879.4774                   23751880.6764
 -13485827.23447 -10478089.62545  22781436.6094                   22781436.8164
 -34415901.51648 -26783558.33646  20682490.5234                   20682489.2544
 -20978223.06247 -16317269.07844  23176099.8834                   23176100.0744
 -25285626.89848 -19671810.84046  20898397.4774                   20898393.6644
 11  7 26  1 23  0.0000000  0  9G10G12G17G28G05G09G04G27G02
 -18207535.02347 -13719650.62145  21438550.4224                   21438549.3524
  -8900620.70347  -6905912.14145  22540316.6254                   22540314.6684
 -37719668.49247 -29354984.51645  22549449.9844                   22549448.3714
 -40284143.42646 -31324528.77043  24092200.7894                   24092202.5634
    122508.87547    124061.56644  23724450.4774                   23724451.2464
 -13466251.73847 -10462836.02745  22785162.1804                   22785161.8754
 -34398114.04348 -26769697.97746  20685875.3754                   20685873.7974
 -20965074.38747 -16307023.36344  23178602.6884                   23178602.1724
 -25352478.98048 -19723903.33246  20885675.6884                   20885671.7544
 11  7 26  1 23 30.0000000  0  9G10G12G17G28G05G09G04G27G02
 -18298001.23847 -13790143.72345  21421335.6954                   21421334.2344
  -9022933.92647  -7001221.13345  22517040.7114                   22517039.2974
 -37712503.34047 -29349401.28145  22550813.5474                   22550811.8134
 -40223688.00046 -31277420.69143  24103705.4224                   24103706.6604
    -21553.21947     11805.60944  23697035.9534                   23697037.3674
 -13446232.52047 -10447236.67645  22788971.5004                   22788971.6054
 -34379967.98448 -26755558.18446  20689328.6174                   20689327.3554
 -20951626.32047 -16296544.37944  23181161.3594                   23181162.0274
 -25418947.28148 -19775696.78546  20873027.3524                   20873023.2504
 11  7 26  1 24  0.0000000  0  9G10G12G17G28G05G09G04G27G02
 -18387936.35548 -13860222.98445  21404220.9064                   21404219.8284
  -9144975.93447  -7096318.78145  22493817.7734                   22493815.6644
 -37705199.36347 -29343709.87945  22552203.4384                   22552201.8484
 -40162989.87146 -31230123.49243  24115255.7974                   24115257.5984
   -165535.50447   -100388.18044  23669637.1094                   23669637.7424
 -13425771.98047 -10431293.44145  22792865.0164                   22792864.8954
 -34361465.24648 -26741140.46946  20692849.4064                   20692848.1414
 -20937881.06647 -16285833.80944  23183777.1484                   23183777.3794
 -25485031.60948 -19827191.03146  20860451.7814                   20860447.8164
 11  7 26  1 24 30.0000000  0  9G10G12G17G28G05G09G04G27G02
 -18477319.48448 -13929872.12145  21387212.3754                   21387210.9924
  -9266725.48847  -7191188.55545  22470649.1484                   22470647.2344
 -37697737.05547 -29337895.09445  22553623.4454                   22553621.6954
 -40102032.45346 -31182624.25043  24126856.2584                   24126857.4964
   -309416.27047   -212502.87144  23642257.4144                   23642257.9804
 -13404854.44547 -10414994.10945  22796844.9064                   22796845.5704
 -34342589.44548 -26726432.05546  20696441.4224                   20696440.3404
 -20923822.55947 -16274879.14144  23186452.1334                   23186453.0904
 -25550713.60948 -19878371.79746  20847952.8754                   20847949.2734
 11  7 26  1 25  0.0000000  0  9G10G12G17G28G05G09G04G27G02
 -18566158.19947 -13999097.04745  21370306.8204                   21370305.3674
  -9388190.06647  -7285836.28545  22447535.4144                   22447533.0864
 -37690125.91847 -29331964.35245  22555071.9454                   22555070.1604
 -40040827.34046 -31134932.02742  24138503.1254                   24138504.0514
   -453202.69547   -324544.05944  23614895.3284                   23614895.9184
 -13383493.39547 -10398349.19144  22800910.1484                   22800910.0474
 -34323353.12948 -26711442.71546  20700102.0004                   20700100.7504
 -20909463.56647 -16263690.36744  23189185.0084                   23189185.2624
 -25616003.75848 -19929247.21946  20835529.0784                   20835524.5704
 11  7 26  1 25 30.0000000  0  9G10G12G17G28G05G09G04G27G02
 -18654465.34448 -14067907.75845  21353502.4774                   21353501.3404
  -9509382.48047  -7380271.93045  22424473.0634                   22424471.2664
 -37682380.47347 -29325928.96545  22556545.6724                   22556544.0704
 -39979391.68046 -31087060.14842  24150193.2734                   24150194.9144
   -596907.18447   -436521.40244  23587549.0784                   23587549.4104
 -13361707.03147 -10381372.85245  22805056.1884                   22805056.1564
 -34303773.69148 -26696186.01246  20703827.6484                   20703826.5944
 -20894821.64847 -16252281.07844  23191970.9384                   23191971.1484
 -25680917.84848 -19979829.60946  20823175.6724                   20823172.0904
 11  7 26  1 26  0.0000000  0  9G10G12G17G28G05G09G04G27G02
 -18742229.24247 -14136295.15646  21336801.5234                   21336800.0944
  -9630290.91847  -7474486.30145  22401465.2274                   22401463.4844
 -37674491.92247 -29319782.05145  22558047.1334                   22558045.5944
 -39917718.63346 -31039003.29343  24161930.0394                   24161931.2664
   -740517.85247   -548425.63344  23560220.6024                   23560221.6524
 -13339489.50847 -10364060.54345  22809284.0474                   22809284.0164
 -34283844.57448 -26680656.84446  20707620.1724                   20707619.0554
 -20879890.17647 -16240646.20344  23194812.4454                   23194812.7584
 -25745447.43448 -20030112.38346  20810896.3444                   20810892.7544
 11  7 26  1 26 30.0000000  0  9G10G12G17G28G05G09G04G27G02
 -18829448.06248 -14204257.82446  21320204.3914                   21320202.9844
  -9750913.11347  -7568477.61745  22378511.6644                   22378509.4774
 -37666459.82047 -29313523.29345  22559575.5164                   22559574.3524
 -39855810.41846 -30990763.19143  24173710.2584                   24173712.1024
   -884032.14847   -660254.76244  23532910.8674                   23532911.7384
 -13316844.46947 -10346415.09444  22813593.2034                   22813593.4184
 -34263568.46948 -26664857.27746  20711478.6954                   20711477.0204
 -20864672.35547 -16228788.18744  23197708.3984                   23197708.4774
 -25809593.24248 -20080096.12946  20798689.8914                   20798686.2234
 11  7 26  1 27  0.0000000  0  9G10G12G17G28G05G09G04G27G02
 -18916115.64848 -14271790.96146  21303711.8524                   21303710.7664
  -9871243.16447  -7662241.27745  22355613.3134                   22355611.4654
 -37658279.63747 -29307149.14545  22561132.1804                   22561130.6914
 -39793665.07846 -30942338.38743  24185536.7114                   24185537.8134
  -1027443.21547   -772003.45344  23505620.4064                   23505621.5314
 -13293771.01247 -10328435.82044  22817983.8054                   22817984.1174
 -34242943.80548 -26648786.10546  20715403.3284                   20715401.8484
 -20849166.60547 -16216705.82444  23200658.8444                   23200659.5004
 -25873351.93448 -20129778.21146  20786556.8914                   20786553.0044
 11  7 26  1 27 30.0000000  0  9G10G12G17G28G05G09G04G27G02
 -19002226.08647 -14338889.94146  21287325.4534                   21287324.0664
  -9991274.60547  -7755772.25845  22332772.6954                   22332770.4024
 -37649947.18047 -29300656.33645  22562717.5554                   22562716.1414
 -39731280.84846 -30893727.38343  24197408.0634                   24197409.5274
  -1170744.57047   -883666.65244  23478350.6954                   23478351.9694
 -13270268.54347 -10310122.25044  22822456.7584                   22822456.2854
 -34221969.35948 -26632442.37946  20719394.3834                   20719393.1374
 -20833372.03547 -16204398.40644  23203665.5554                   23203665.4414
 -25936720.32048 -20179156.15646  20774498.6564                   20774494.6644
 11  7 26  1 28  0.0000000  0  9G10G12G17G28G05G09G04G27G02
 -19087782.27348 -14405557.05146  21271044.8674                   21271043.2624
 -10111010.62547  -7849073.04345  22309987.2194                   22309985.4384
 -37641467.80147 -29294049.05545  22564331.1954                   22564329.5984
 -39668665.52346 -30844936.28943  24209323.0864                   24209324.4064
  -1313939.21547   -995246.68744  23451101.5704                   23451102.4614
 -13246346.30147 -10291481.57844  22827009.0164                   22827009.1374
 -34200653.16848 -26615832.35946  20723450.9064                   20723449.4884
 -20817297.04347 -16191872.46944  23206723.6094                   23206724.2664
 -25999704.68048 -20228234.86346  20762512.9534                   20762508.8634
 11  7 26  1 28 30.0000000  0  9G10G12G17G28G05G09G04G27G02
 -19172781.30948 -14471790.00446  21254869.8984                   21254868.6414
 -10230447.39547  -7942140.64145  22287259.3134                   22287257.1174
 -37632839.69147 -29287325.86345  22565973.1174                   22565971.7704
 -39605820.07446 -30795965.85543  24221282.6254                   24221283.8794
  -1457023.02747  -1106740.35544  23423873.4774                   23423874.7464
 -13222006.52047 -10272515.55544  22831640.8674                   22831640.5944
 -34178996.73448 -26598957.23046  20727571.8984                   20727570.7774
 -20800943.22747 -16179129.29344  23209835.9384                   23209836.1134
 -26062304.73048 -20277014.09846  20750600.2194                   20750596.6564
 11  7 26  1 29  0.0000000  0  9G10G12G17G28G05G09G04G27G02
 -19257224.17648 -14537589.59046  21238800.7034                   21238799.3404
 -10349585.83247  -8034975.75845  22264587.6644                   22264585.0984
 -37624066.52047 -29280489.66045  22567643.0864                   22567641.2934
 -39542749.87546 -30746820.28543  24233284.5314                   24233285.6524
  -1599996.64847  -1218148.15645  23396666.5634                   23396667.4104
 -13197255.69947 -10253229.22344  22836350.8834                   22836350.7774
 -34157005.80548 -26581821.44546  20731756.7734                   20731755.5314
 -20784316.66447 -16166173.59044  23212999.9064                   23213000.1254
 -26124524.12548 -20325496.72746  20738760.5164                   20738756.7814
 11  7 26  1 29 30.0000000  0  9G10G12G17G28G05G09G04G27G02
 -19341106.23848 -14602952.18046  21222838.7344                   21222837.6884
 -10468421.19947  -8127574.72745  22241974.1564                   22241971.7074
 -37615145.23047 -29273538.03545  22569340.2664                   22569339.1374
 -39479454.48046 -30697499.27743  24245329.2584                   24245330.9694
  -1742854.68447  -1329465.89145  23369481.6484                   23369482.3714
 -13172094.46947 -10233623.12545  22841138.8984                   22841138.2664
 -34134680.11348 -26564424.79746  20736005.4304                   20736003.6564
 -20767417.50847 -16153005.45344  23216215.5864                   23216215.9144
 -26186361.01248 -20373681.30146  20726992.9454                   20726989.4184
 11  7 26  1 30  0.0000000  0  9G10G12G17G28G05G09G04G27G02
 -19424428.17248 -14667878.30946  21206983.1254                   21206981.7034
 -10586953.93047  -8219937.85545  22219417.6724                   22219415.9734
 -37606077.90247 -29266472.62145  22571065.5004                   22571064.2704
 -39415938.62146 -30648006.42643  24257416.0314                   24257417.0164
  -1885597.09047  -1440693.54345  23342318.0784                   23342318.9264
 -13146529.18447 -10213702.14544  22846003.6884                   22846003.8834
 -34112025.09048 -26546771.52046  20740316.0394                   20740314.8244
 -20750251.23847 -16139629.20744  23219482.3204                   23219482.5824
 -26247818.93748 -20421570.59446  20715298.1954                   20715294.1254
 11  7 26  1 30 30.0000000  0  9G10G12G17G28G05G09G04G27G02
 -19507184.70748 -14732363.87546  21191234.7424                   21191233.4694
 -10705178.22347  -8312060.63745  22196920.1804                   22196918.3954
 -37596861.04347 -29259290.67645  22572820.0634                   22572818.6254
 -39352201.25446 -30598340.96943  24269545.0234                   24269545.8484
  -2028218.43747  -1551826.85545  23315178.6094                   23315178.6724
 -13120559.82847 -10193466.30145  22850945.9064                   22850945.2194
 -34089040.23048 -26528861.24246  20744689.9924                   20744688.4884
 -20732817.58647 -16126044.62144  23222799.4304                   23222800.1134
 -26308895.68048 -20469162.84846  20703675.2974                   20703671.4304
 11  7 26  1 31  0.0000000  0  9G10G12G17G28G05G09G04G27G02
 -19589383.16847 -14796414.56646  21175592.9304                   21175591.6254
 -10823100.95747  -8403948.41845  22174480.3914                   22174478.5234
 -37587503.58647 -29251999.16845  22574600.6724                   22574599.3094
 -39288254.28146 -30548512.22343  24281713.0944                   24281714.6684
  -2170724.72347  -1662870.49645  23288060.4144                   23288060.4144
 -13094199.18447 -10172925.55545  22855961.7424                   22855961.4454
 -34065737.03148 -26510702.90646  20749124.5234                   20749123.1914
 -20715128.60947 -16112261.06644  23226165.4774                   23226166.1174
 -26369601.05948 -20516465.73046  20692123.5634                   20692119.6914
 11  7 26  1 31 30.0000000  0  9G10G12G17G28G05G09G04G27G02
 -19671014.18748 -14860023.10246  21160059.1024                   21160058.1564
 -10940712.42647  -8495593.65645  22152099.6484                   22152097.8164
 -37577997.44147 -29244591.79345  22576409.4694                   22576408.6724
 -39224092.19946 -30498515.80543  24293924.1724                   24293924.3524
  -2313105.57847  -1773816.43444  23260965.8594                   23260966.3524
 -13067443.02347 -10152076.61344  22861053.2344                   22861053.5514
 -34042110.61748 -26492292.70746  20753620.2734                   20753619.1724
 -20697179.41847 -16098274.75044  23229581.3834                   23229581.7544
 -26429928.24248 -20563473.90646  20680643.8364                   20680640.1174
 11  7 26  1 32  0.0000000  0  8G10G12G17G05G09G04G27G02
 -19752081.37148 -14923192.28546  21144632.0784                   21144631.0084
 -11058015.84447  -8586998.85545  22129777.7274                   22129776.2464
 -37568348.26247 -29237072.96145  22578245.7344                   22578243.9304
  -2455364.28147  -1884667.17245  23233893.9614                   23233894.7274
 -13040300.82847 -10130926.86744  22866217.6804                   22866218.5744
 -34018169.29348 -26473637.12546  20758176.2584                   20758175.1134
 -20678978.89147 -16084092.61344  23233045.5394                   23233045.3594
 -26489883.82448 -20610192.50446  20669234.6884                   20669231.0274
 11  7 26  1 32 30.0000000  0  8G10G12G17G05G09G04G27G02
 -19832575.32848 -14985914.80546  21129314.6724                   21129313.7194
 -11175001.33647  -8678156.32045  22107516.1804                   22107514.0274
 -37558548.75047 -29229436.98845  22580110.6024                   22580108.9384
  -2597490.35947  -1995414.57445  23206848.8524                   23206849.2464
 -13012768.51247 -10109473.13744  22871457.7894                   22871457.1054
 -33993908.07448 -26454732.27746  20762793.2114                   20762791.8204
 -20660522.19147 -16069710.83244  23236556.8284                   23236558.3484
 -26549461.02748 -20656616.27346  20657897.3984                   20657893.5634
 11  7 26  1 33  0.0000000  0  8G10G12G17G05G09G04G27G02
 -19912495.54748 -15048190.23846  21114106.5784                   21114104.9224
 -11291668.11347  -8769065.43745  22085315.1804                   22085313.0864
 -37548599.62547 -29221684.43045  22582004.0474                   22582002.0234
  -2739482.59447  -2106057.69545  23179828.1484                   23179828.9144
 -12984850.69547 -10087719.01644  22876769.6094                   22876769.7974
 -33969330.83648 -26435581.17646  20767470.0864                   20767468.5704
 -20641813.70347 -16055132.86744  23240117.7504                   23240118.5234
 -26608662.35248 -20702747.16046  20646631.6334                   20646628.2344
 11  7 26  1 33 30.0000000  0  8G10G12G17G05G09G04G27G02
 -19991837.99248 -15110015.47346  21099008.1484                   21099006.9384
 -11408011.56647  -8859722.59845  22063176.0704                   22063173.8164
 -37538498.13347 -29213813.13745  22583925.7974                   22583924.5044
  -2881336.35547  -2216592.91844  23152834.2974                   23152834.5474
 -12956548.98447 -10065665.75844  22882155.1484                   22882155.6294
 -33944438.21148 -26416184.31246  20772207.2114                   20772205.4884
 -20622854.24247 -16040359.33244  23243726.1254                   23243726.0314
 -26667486.09448 -20748583.84046  20635437.9454                   20635434.3364
 11  7 26  1 34  0.0000000  0  8G10G12G17G05G09G04G27G02
 -20070604.65648 -15171392.04346  21084019.1564                   21084017.6374
 -11524033.18447  -8950128.98045  22041097.2974                   22041095.4654
 -37528248.30947 -29205826.28145  22585876.4694                   22585875.2034
  -3023052.86747  -2327021.19944  23125866.5944                   23125866.7154
 -12927870.78947 -10043319.15244  22887613.0234                   22887613.1374
 -33919236.63348 -26396546.72346  20777002.8204                   20777001.4224
 -20603650.54747 -16025395.45744  23247379.9614                   23247380.5084
 -26725937.34848 -20794130.26646  20624315.1724                   20624311.0434
 11  7 26  1 34 30.0000000  0  8G10G12G17G05G09G04G27G02
 -20148789.28148 -15232315.07846  21069141.1804                   21069139.4964
 -11639726.51647  -9040279.55146  22019081.4064                   22019079.5084
 -37517845.43447 -29197720.17645  22587856.2194                   22587854.7584
  -3164624.83247  -2437336.82845  23098926.4774                   23098926.4104
 -12898815.30547 -10020678.55144  22893142.4224                   22893141.9574
 -33893724.37548 -26376667.03546  20781857.6024                   20781856.0594
 -20584201.05947 -16010240.06244  23251080.5944                   23251081.3164
 -26784012.70748 -20839383.77746  20613264.0704                   20613260.2194
 11  7 26  1 35  0.0000000  0  8G10G12G17G05G09G04G27G02
 -20226387.76648 -15292781.37946  21054374.8444                   21054373.4844
 -11755086.42647  -9130170.30946  21997129.3594                   21997126.7894
 -37507286.65647 -29189492.57445  22589865.7034                   22589863.8714
  -3306046.84847  -2547535.65245  23072014.7894                   23072014.5204
 -12869383.22747  -9997744.50844  22898742.9454                   22898742.7194
 -33867901.05548 -26356544.96946  20786771.5004                   20786770.3794
 -20564506.00447 -15994893.34444  23254829.0164                   23254829.4614
 -26841710.33248 -20884342.94146  20602284.1174                   20602280.2814
 11  7 26  1 35 30.0000000  0  8G10G12G17G05G09G04G27G02
 -20303402.37148 -15352792.70346  21039719.4064                   21039717.5124
 -11870114.89547  -9219802.80545  21975240.2424                   21975238.2154
 -37496575.78947 -29181146.45745  22591903.4534                   22591902.1484
  -3447320.90247  -2657619.17645  23045130.7584                   23045130.5944
 -12839582.50447  -9974523.19945  22904414.4694                   22904413.1604
 -33841773.86348 -26336186.12946  20791743.4844                   20791742.5004
 -20544572.84447 -15979361.08244  23258622.2894                   23258622.6724
 -26899035.31248 -20929011.72746  20591375.4384                   20591371.6604
 11  7 26  1 36  0.0000000  0  8G10G12G17G05G09G04G27G02
 -20379830.46948 -15412347.01646  21025175.3284                   21025173.8754
 -11984808.89847  -9309174.68046  21953414.4224                   21953412.2304
 -37485711.68447 -29172680.93445  22593970.7274                   22593969.4264
  -3588442.91447  -2767584.21945  23018275.9694                   23018276.0864
 -12809415.78947  -9951016.70344  22910154.3674                   22910154.0824
 -33815344.34448 -26315591.70746  20796772.5864                   20796771.6484
 -20524403.62547 -15963644.89844  23262461.0474                   23262461.0594
 -26955987.60548 -20973390.10546  20580537.7584                   20580534.0234
 11  7 26  1 36 30.0000000  0  8G10G12G17G05G09G04G27G02
 -20455674.89148 -15471446.52046  21010742.9694                   21010741.4384
 -12099170.41847  -9398287.48045  21931652.1484                   21931649.8794
 -37474698.41447 -29164099.17645  22596066.5864                   22596065.3444
  -3729414.89147  -2877432.36345  22991449.5784                   22991449.4414
 -12778891.09447  -9927231.27344  22915962.4614                   22915963.1644
 -33788619.49648 -26294767.14846  20801858.2504                   20801857.2304
 -20504005.66847 -15947750.46144  23266341.5864                   23266342.6374
 -27012572.55148 -21017482.25046  20569770.1094                   20569766.5474
 11  7 26  1 37  0.0000000  0  8G10G12G17G05G09G04G27G02
 -20530934.73048 -15530090.51246  20996421.4064                   20996419.8914
 -12213197.78947  -9487139.91045  21909953.4774                   21909950.8954
 -37463536.69547 -29155401.74245  22598190.8984                   22598189.2734
  -3870234.63747  -2987161.88345  22964652.7114                   22964652.6844
 -12748012.71947  -9903170.26244  22921839.1414                   22921839.2194
 -33761602.54748 -26273714.99246  20806999.2034                   20806998.7344
 -20483382.34847 -15931680.41844  23270266.4614                   23270266.9224
 -27068791.90248 -21061289.50846  20559071.9924                   20559068.1254
 11  7 26  1 37 30.0000000  0  8G10G12G17G05G09G04G27G02
 -20605600.47748 -15588271.57446  20982212.5234                   20982211.7974
 -12326881.12147  -9575724.27045  21888320.1174                   21888318.1174
 -37452218.30147 -29146582.21145  22600344.5314                   22600342.8134
  -4010891.59047  -3096764.53945  22937886.4924                   22937886.2464
 -12716776.53547  -9878830.41844  22927783.3134                   22927782.9534
 -33734288.27048 -26252431.14546  20812197.0474                   20812195.9964
 -20462529.03547 -15915431.14144  23274235.1094                   23274235.3054
 -27124638.71548 -21104806.48846  20548444.7504                   20548440.9844
 11  7 26  1 38  0.0000000  0  8G10G12G17G05G09G04G27G02
 -20679678.43448 -15645994.62146  20968116.0554                   20968114.8324
 -12440225.50447  -9664044.52346  21866751.6884                   21866749.2774
 -37440751.07447 -29137646.71945  22602526.6254                   22602525.4104
  -4151390.87947  -3206244.34445  22911150.1884                   22911149.7424
 -12685193.73447  -9854220.50844  22933793.4064                   22933793.5864
 -33706687.03948 -26230923.70746  20817449.6254                   20817448.3324
 -20441456.55547 -15899011.06644  23278245.0864                   23278244.9264
 -27180122.01648 -21148040.23046  20537886.4384                   20537882.8874
 11  7 26  1 38 30.0000000  0  8G10G12G17G05G09G04G27G02
 -20753157.89148 -15703251.30946  20954133.6644                   20954132.3054
 -12553220.17647  -9752092.26646  21845249.6804                   21845247.2814
 -37429125.43747 -29128587.78545  22604739.0554                   22604737.5314
  -4291720.97347  -3315592.30545  22884446.1174                   22884446.1564
 -12653259.15647  -9829336.47344  22939870.3134                   22939870.7384
 -33678792.66048 -26209187.83246  20822757.7194                   20822756.3284
 -20420158.96947 -15882415.57844  23282297.2584                   23282298.1374
 -27235233.46548 -21190984.19546  20527399.1954                   20527395.2664
 11  7 26  1 39  0.0000000  0  8G10G12G17G05G09G04G27G02
 -20826044.37548 -15760045.93746  20940263.4304                   20940262.4264
 -12665869.85547  -9839871.19546  21823812.3754                   21823810.0474
 -37417348.45347 -29119410.92245  22606980.1334                   22606978.7894
  -4431886.51647  -3424812.03545  22857773.5234                   22857773.0784
 -12620983.64847  -9804186.77344  22946012.4694                   22946012.5664
 -33650614.63348 -26187230.93746  20828120.1254                   20828118.6134
 -20398646.36347 -15865652.56244  23286390.6484                   23286392.6564
 -27289981.36748 -21233644.87546  20516981.1174                   20516977.4884
 11  7 26  1 39 30.0000000  0  8G10G12G17G05G09G04G27G02
 -20898330.31248 -15816372.60946  20926507.9304                   20926506.5314
 -12778166.01247  -9927374.66846  21802443.1024                   21802441.3094
 -37405413.56247 -29110111.02045  22609251.2584                   22609249.9924
  -4571878.36747  -3533896.42245  22831133.3984                   22831133.3634
 -12588364.47347  -9778769.29344  22952219.1954                   22952219.6294
 -33622149.63348 -26165050.43746  20833536.5234                   20833535.1524
 -20376915.45747 -15848719.47344  23290526.8364                   23290527.9344
 -27344360.75848 -21276018.38346  20506632.7894                   20506629.2464
 11  7 26  1 40  0.0000000  0  8G10G12G17G05G09G04G27G02
 -20970024.03548 -15872237.81646  20912865.1254                   20912863.8364
 -12890116.23847 -10014608.59046  21781140.0394                   21781137.8134
 -37393330.72747 -29100695.82845  22611550.6564                   22611548.9414
  -4711704.12947  -3642851.37945  22804525.6094                   22804524.6914
 -12555415.44147  -9753094.75844  22958489.6484                   22958489.5784
 -33593410.18748 -26142656.09846  20839005.5084                   20839004.5314
 -20354979.46546 -15831626.54744  23294701.2194                   23294701.6764
 -27398382.48448 -21318113.19546  20496352.9844                   20496349.0004
 11  7 26  1 40 30.0000000  0  8G10G12G17G05G09G04G27G02
 -21041122.85548 -15927639.46146  20899335.3284                   20899334.0704
 -13001717.42647 -10101570.54346  21759903.0784                   21759900.9534
 -37381098.39547 -29091164.14145  22613878.2424                   22613877.1094
  -4851359.66447  -3751673.70745  22777949.5704                   22777948.9344
 -12522138.88747  -9727165.01244  22964821.5474                   22964821.5594
 -33564397.59048 -26120048.90246  20844526.7274                   20844525.2114
 -20332840.09047 -15814375.12544  23298914.3674                   23298914.3754
 -27452046.31248 -21359929.13746  20486141.2894                   20486136.9884
 11  7 26  1 41  0.0000000  0  8G10G12G17G05G09G04G27G02
 -19536199.48848 -14754971.87546  21185712.5944                   21185711.4184
 -11537539.60947  -8960652.75046  22038526.7424                   22038525.0514
 -35793293.10947 -27853913.27045  22916027.6414                   22916026.3984
  -3415414.03147  -2632754.85945  23051201.1024                   23051200.6684
 -10913116.00447  -8473380.97344  23271008.5474                   23271008.8204
 -31959691.82048 -24869628.84846  21149891.8754                   21149890.3634
 -18735077.52746 -14569365.39544  23602957.7894                   23602959.1174
 -25929928.09048 -20173862.96946  20775790.5554                   20775786.5984
 11  7 26  1 41 30.0000000  0  8G10G12G17G05G09G04G27G02
 -19606094.03548 -14809435.12946  21172412.2274                   21172410.5084
 -11648424.96947  -9047056.92246  22017425.9534                   22017423.8874
 -35780750.64547 -27844139.93045  22918413.9694                   22918412.7584
  -3554710.50847  -2741297.42245  23024693.1094                   23024693.2854
 -10879184.94947  -8446941.22344  23277465.8364                   23277465.2234
 -31930130.08248 -24846593.75446  21155517.2734                   21155515.8364
 -18712529.80546 -14551795.80544  23607248.7194                   23607249.4224
 -25982869.00048 -20215115.60246  20765715.9304                   20765712.1994
 11  7 26  1 42  0.0000000  0  8G10G12G17G05G09G04G27G02
 -19675388.66448 -14863430.90646  21159225.7974                   21159224.3324
 -11758953.50047  -9133183.05146  21996393.1954                   21996390.8754
 -35768057.19147 -27834248.92645  22920829.7034                   22920828.0474
  -3693827.99647  -2849700.50045  22998220.0084                   22998219.6254
 -10844936.49247  -8420254.12944  23283982.3444                   23283982.2274
 -31900302.07448 -24823351.17246  21161193.0634                   21161191.7384
 -18689786.77346 -14534074.02044  23611576.6254                   23611577.8874
 -26035454.08248 -20256090.95746  20755709.3204                   20755705.3634
 11  7 26  1 42 30.0000000  0  8G10G12G17G05G09G04G27G02
 -19744079.15648 -14916955.92246  21146154.6644                   21146153.2234
 -11869120.18747  -9219027.22346  21975428.8984                   21975426.8914
 -35755209.80147 -27824237.97745  22923274.2974                   22923273.0204
  -3832761.03147  -2957959.86345  22971782.6024                   22971781.7624
 -10810371.45347  -8393320.34844  23290560.2114                   23290559.7074
 -31870207.77748 -24799901.10946  21166920.4064                   21166918.8634
 -18666849.00047 -14516200.48844  23615942.0314                   23615942.1684
 -26087682.07848 -20296788.07846  20745770.8284                   20745766.4574
 11  7 26  1 43  0.0000000  0  8G10G12G17G05G09G04G27G02
 -19812161.66048 -14970007.18746  21133198.8984                   21133197.4264
 -11978920.32447  -9304585.77346  21954534.8834                   21954532.5984
 -35742205.66047 -27814104.91045  22925749.0084                   22925747.8164
  -3971504.41047  -3066071.43445  22945380.2194                   22945379.2544
 -10775491.02347  -8366140.81644  23297197.7894                   23297197.9574
 -31839847.04348 -24776243.42646  21172697.7814                   21172696.7384
 -18643716.93047 -14498175.51244  23620343.7424                   23620343.5824
 -26139551.48848 -20337205.77346  20735900.1954                   20735896.1134
 11  7 26  1 43 30.0000000  0  8G10G12G17G05G09G04G27G02
 -19879634.50848 -15022583.38746  21120359.3754                   21120357.5594
 -12088351.09447  -9389856.50446  21933710.7894                   21933708.6804
 -35729043.89547 -27803849.00445  22928253.7974                   22928252.5904
  -4110054.81647  -3174032.64845  22919014.8134                   22919014.5434
 -10740298.37947  -8338718.00044  23303894.5394                   23303894.6374
 -31809222.01248 -24752379.80146  21178525.6024                   21178524.4454
 -18620392.85947 -14480000.96944  23624781.6804                   23624783.4264
 -26191062.58648 -20377344.25846  20726098.3054                   20726093.8634
 11  7 26  1 44  0.0000000  0  8G10G12G17G05G09G04G27G02
 -19946491.52048 -15074679.71946  21107636.6884                   21107635.1524
 -12197405.69147  -9474834.11746  21912958.2424                   21912955.6914
 -35715719.84847 -27793466.66445  22930789.2344                   22930788.0744
  -4248404.91047  -3281837.78945  22892687.6724                   22892687.1684
 -10704792.66047  -8311051.23044  23310651.0084                   23310651.5474
 -31778330.64848 -24728308.64546  21184403.6564                   21184402.7584
 -18596875.48047 -14461675.79344  23629257.3444                   23629258.9454
 -26242212.19548 -20417201.05946  20716364.8134                   20716360.8404
 11  7 26  1 44 30.0000000  0  8G10G12G17G05G09G04G27G02
 -20012742.72348 -15126303.98446  21095029.5554                   21095028.0944
 -12306092.78147  -9559525.35546  21892275.8984                   21892273.1414
 -35702244.32847 -27782966.28145  22933353.1954                   22933351.9774
  -4386563.52347  -3389493.73045  22866396.7664                   22866395.7664
 -10668988.66047  -8283152.04744  23317464.8134                   23317465.1414
 -31747186.48448 -24704040.49246  21190330.5084                   21190329.0904
 -18573178.89547 -14443210.97344  23633766.2424                   23633768.5044
 -26293012.35548 -20456785.57846  20706697.6954                   20706693.9184
 11  7 26  1 45  0.0000000  0  8G10G12G17G05G09G04G27G02
 -20078375.63748 -15177446.47746  21082539.8914                   21082538.3244
 -12414399.12147  -9643919.90246  21871665.7194                   21871663.1844
 -35688605.46547 -27772338.61745  22935949.0004                   22935947.6254
  -4524516.31247  -3496989.29745  22840145.3914                   22840144.4414
 -10632879.16047  -8255014.81244  23324336.5784                   23324336.7274
 -31715781.00848 -24679568.71546  21196306.8594                   21196305.4224
 -18549294.91446 -14424600.12144  23638312.1254                   23638312.6844
 -26343453.13348 -20496090.05946  20697098.8054                   20697095.1604
 11  7 26  1 45 30.0000000  0  8G10G12G17G05G09G04G27G02
 -20143388.39148 -15228105.72346  21070168.4384                   21070167.2774
 -12522321.75447  -9728015.45346  21851128.5234                   21851126.6214
 -35674802.99247 -27761583.47345  22938575.7424                   22938574.6954
  -4662259.98447  -3604321.91045  22813933.3444                   22813932.6174
 -10596466.85947  -8226641.62544  23331265.1094                   23331265.7814
 -31684116.01248 -24654894.69946  21202332.1564                   21202331.0084
 -18525225.70346 -14405844.93043  23642891.3834                   23642892.5394
 -26393534.73848 -20535114.65646  20687569.0944                   20687565.2464
 11  7 26  1 46  0.0000000  0  8G10G12G17G05G09G04G27G02
 -20207778.98848 -15278280.17246  21057915.4924                   21057913.9024
 -12629857.54747  -9811809.56246  21830665.6024                   21830663.1844
 -35660835.78947 -27750699.96545  22941233.8364                   22941232.2504
  -4799790.89547  -3711488.75045  22787761.8914                   22787761.4064
 -10559754.39847  -8198034.55944  23338251.2114                   23338251.9534
 -31652192.98048 -24630019.62146  21208407.0474                   21208405.9844
 -18500973.42246 -14386947.09043  23647506.6174                   23647506.8554
 -26443257.48448 -20573859.63746  20678106.7034                   20678102.9144
 11  7 26  1 46 30.0000000  0  8G10G12G17G05G09G04G27G02
 -20271549.20348 -15327971.20746  21045780.2424                   21045778.5514
 -12737007.54747  -9895303.05546  21810275.5084                   21810272.7974
 -35646706.63747 -27739690.26245  22943922.3674                   22943920.7704
  -4937109.65647  -3818490.28145  22761631.0554                   22761630.5634
 -10522748.85947  -8169199.10244  23345293.7814                   23345293.5394
 -31620017.73048 -24604948.00446  21214529.8364                   21214528.6484
 -18476544.26646 -14367911.41844  23652155.6094                   23652156.3834
 -26492625.66048 -20612328.32446  20668712.7664                   20668708.4064
 11  7 26  1 47  0.0000000  0  8G10G12G17G05G09G04G27G02
 -20334696.58248 -15377176.91046  21033763.5084                   21033762.0004
 -12843767.80947  -9978492.85946  21789959.8054                   21789957.3874
 -35632413.50047 -27728552.77045  22946641.9144                   22946640.6764
  -5074211.93747  -3925323.12145  22735541.1484                   22735540.1844
 -10485452.53147  -8140137.06644  23352390.5314                   23352390.6884
 -31587591.38748 -24579680.73446  21220700.2034                   21220699.3404
 -18451940.08646 -14348739.35944  23656837.7584                   23656838.9064
 -26541638.79748 -20650520.34846  20659385.6564                   20659381.4694
 11  7 26  1 47 30.0000000  0  8G10G12G17G05G09G04G27G02
 -20397218.44548 -15425895.19146  21021866.0234                   21021864.1294
 -12950135.02347 -10061376.38346  21769718.5234                   21769716.3594
 -35617954.93747 -27717286.39845  22949393.4924                   22949392.0394
  -5211093.67647  -4031984.12145  22709493.1954                   22709492.3794
 -10447867.71547  -8110850.21944  23359542.5164                   23359542.9614
 -31554915.14848 -24554218.71946  21226918.5864                   21226917.3404
 -18427162.22346 -14329431.98044  23661552.6724                   23661553.5354
 -26590296.81248 -20688435.63746  20650126.3444                   20650122.2234
 11  7 26  1 48  0.0000000  0  9G10G12G17G25G05G09G04G27G02
 -20459117.04348 -15474127.82046  21010086.8054                   21010085.4224
 -13056110.07447 -10143954.33246  21749552.6484                   21749550.6294
 -35603333.89847 -27705893.41045  22952175.7814                   22952174.2034
   9247024.55555   7236017.80553  24684727.4224                   24684730.1454
  -5347755.72347  -4138473.94545  22683487.3364                   22683486.4454
 -10410001.22747  -8081343.93444  23366747.9694                   23366749.1254
 -31521994.51248 -24528566.27346  21233183.0084                   21233181.6414
 -18402217.20346 -14309994.34444  23666300.2584                   23666301.2624
 -26638604.14148 -20726077.69946  20640933.5944                   20640929.4144
 11  7 26  1 48 30.0000000  0  9G10G12G17G25G05G09G04G27G02
 -20520397.43748 -15521878.74246  20998425.7034                   20998424.1644
 -13161696.80147 -10226229.68046  21729460.4384                   21729457.9024
 -35588556.60547 -27694378.65645  22954987.9064                   22954986.3754
   9106663.19546   7126645.29343  24658017.5704                   24658019.8054
  -5484201.24247  -4244795.04345  22657522.5634                   22657521.5944
 -10371862.82447  -8051625.74644  23374006.2504                   23374006.3244
 -31488838.08248 -24502730.09046  21239492.5234                   21239491.4734
 -18377113.89847 -14290433.38744  23671076.7114                   23671078.7504
 -26686567.78948 -20763451.96146  20631806.1644                   20631802.2504
 11  7 26  1 49  0.0000000  0  9G10G12G17G25G05G09G04G27G02
 -20581057.64848 -15569146.40246  20986882.4304                   20986880.6764
 -13266891.84848 -10308199.83246  21709441.6564                   21709439.6764
 -35573621.69147 -27682741.07845  22957830.0704                   22957828.4804
   8966427.04346   7017370.38343  24631331.3834                   24631333.2344
  -5620426.63347  -4350944.60545  22631599.6954                   22631598.7814
 -10333455.35947  -8021697.88744  23381315.0474                   23381314.3714
 -31455447.67248 -24476711.57846  21245846.5864                   21245845.3444
 -18351854.62946 -14270750.85944  23675883.2734                   23675885.1684
 -26734188.11348 -20800558.68446  20622744.7344                   20622740.2234
 11  7 26  1 49 30.0000000  0  9G10G12G17G25G05G09G04G27G02
 -20641098.96548 -15615931.80546  20975456.8834                   20975455.3364
 -13371695.95347 -10389865.34446  21689498.0704                   21689495.8914
 -35558530.91047 -27670982.04345  22960701.4454                   22960699.8364
   8826315.98446   6908192.87943  24604669.4064                   24604670.7544
  -5756430.99247  -4456921.94545  22605718.8054                   22605717.8094
 -10294784.73847  -7991564.97344  23388674.0314                   23388672.9454
 -31421827.90648 -24450514.35246  21252244.1954                   21252242.8754
 -18326444.83646 -14250951.10244  23680718.9454                   23680720.2894
 -26781468.63348 -20837400.60946  20613747.4384                   20613743.2854
 11  7 26  1 50  0.0000000  0  9G10G12G17G25G05G09G04G27G02
 -20700515.00448 -15662229.98046  20964150.3914                   20964148.6254
 -13476101.06647 -10471219.95746  21669630.6414                   21669628.7704
 -35543278.66847 -27659097.20345  22963603.9614                   22963603.0314
   8686337.77047   6799118.93043  24578032.1884                   24578032.6454
  -5892206.74247  -4562721.13745  22579881.6334                   22579880.3444
 -10255849.21147  -7961225.63744  23396082.1334                   23396082.8134
 -31387975.71548 -24424136.00046  21258685.9224                   21258684.9144
 -18300882.08246 -14231032.10944  23685583.2584                   23685584.1054
 -26828405.01248 -20873974.37546  20604815.6024                   20604811.5234
 11  7 26  1 50 30.0000000  0  9G10G12G17G25G05G09G04G27G02
 -20759307.69948 -15708042.43046  20952962.3834                   20952960.8954
 -13580107.73447 -10552264.08246  21649838.6954                   21649836.7894
 -35527868.21147 -27647089.07045  22966536.3674                   22966534.8834
   8546491.37146   6690147.78543  24551420.2114                   24551421.1294
  -6027754.44147  -4668342.62145  22554087.7194                   22554086.5044
 -10216655.74247  -7930685.31244  23403540.7424                   23403541.8134
 -31353896.92648 -24397581.08246  21265170.8444                   21265169.9024
 -18275172.40246 -14210998.64544  23690475.4774                   23690476.3674
 -26875001.51248 -20910283.30946  20595948.7894                   20595944.6564
 11  7 26  1 51  0.0000000  0  9G10G12G17G25G05G09G04G27G02
 -20817471.48848 -15753364.81646  20941894.1024                   20941892.5824
 -13683709.76647 -10632992.91046  21630123.6174                   21630121.7274
 -35512294.39847 -27634953.63745  22969499.9774                   22969498.3794
   8406783.69546   6581284.77043  24524833.9304                   24524836.6564
  -6163066.25847  -4773780.30945  22528338.6094                   22528337.4654
 -10177203.28947  -7899943.21144  23411048.4844                   23411049.1334
 -31319589.00848 -24370847.62946  21271699.5634                   21271698.5124
 -18249314.01646 -14190849.30944  23695397.2814                   23695397.3524
 -26921254.58248 -20946324.64846  20587146.9924                   20587142.7074
 11  7 26  1 51 30.0000000  0  9G10G12G17G25G05G09G04G27G02
 -20874999.80148 -15798192.04746  20930946.5864                   20930945.2734
 -13786899.28947 -10713400.28946  21610487.8284                   21610485.3914
 -35496551.43447 -27622686.37544  22972496.1334                   22972494.3834
   8267222.46946   6472535.88343  24498277.1024                   24498278.5594
  -6298134.17247  -4879027.93745  22502635.8754                   22502634.6644
 -10137490.14147  -7868997.95744  23418605.8284                   23418607.2544
 -31285049.26648 -24343933.53546  21278272.3674                   21278271.1604
 -18223304.57046 -14170582.21544  23700346.0864                   23700347.5634
 -26967159.75848 -20982094.90646  20578411.1724                   20578407.3134
 11  7 26  1 52  0.0000000  0  9G10G12G17G25G05G09G04G27G02
 -20931894.80948 -15842525.78546  20920120.1484                   20920118.2894
 -13889676.64148 -10793486.49246  21590929.7344                   21590927.0354
 -35480641.71547 -27610289.20344  22975523.4304                   22975521.5204
   8127807.18046   6363900.73843  24471746.7894                   24471748.6454
  -6432958.34447  -4984085.64145  22476979.3284                   22476978.4414
 -10097522.45747  -7837854.36344  23426211.2424                   23426212.5434
 -31250282.62948 -24316842.64146  21284888.1644                   21284886.8014
 -18197149.84047 -14150201.94944  23705323.3674                   23705324.6954
 -27012721.16048 -21017597.27046  20569741.0944                   20569737.2424
 11  7 26  1 52 30.0000000  0  9G10G12G17G25G05G09G04G27G02
 -20988153.05948 -15886363.35246  20909413.8754                   20909412.7344
 -13992037.22747 -10873247.94146  21571450.6024                   21571448.7584
 -35464562.88747 -27597760.23844  22978583.0554                   22978581.5084
   7988542.57447   6255382.93844  24445245.7814                   24445247.6254
  -6567533.25447  -5088949.10545  22451370.5004                   22451369.5904
 -10057301.50447  -7806513.41044  23433865.7344                   23433866.0784
 -31215289.28148 -24289575.07846  21291546.9924                   21291545.6334
 -18170850.26646 -14129708.84044  23710326.9844                   23710329.1994
 -27057937.55148 -21052830.80146  20561137.0474                   20561132.7624
 11  7 26  1 53  0.0000000  0  9G10G12G17G25G05G09G04G27G02
 -21043783.57848 -15929711.78146  20898828.2584                   20898826.6174
 -14093988.69147 -10952690.59046  21552050.4614                   21552047.8244
 -35448324.06247 -27585106.61744  22981673.5864                   22981671.6644
   7849421.03546   6146976.64544  24418771.4304                   24418773.9574
  -6701866.27747  -5193624.08645  22425808.0234                   22425806.9774
 -10016840.94947  -7774985.73444  23441564.5004                   23441565.3014
 -31180081.25048 -24262140.21946  21298246.8284                   21298245.9884
 -18144418.93447 -14109113.03943  23715356.7344                   23715359.1094
 -27102819.84048 -21087803.97746  20552596.2894                   20552592.0514
 11  7 26  1 53 30.0000000  0  9G10G12G17G25G05G09G04G27G02
 -21098782.35948 -15972567.93446  20888362.4064                   20888360.9774
 -14195526.09047 -11031810.59046  21532728.3674                   21532725.8094
 -35431922.23446 -27572325.98044  22984794.2814                   22984792.9454
   7710447.66447   6038685.77743  24392325.9614                   24392327.4844
  -6835951.76247  -5298106.18045  22400292.3444                   22400291.2504
  -9976141.43047  -7743271.91044  23449310.4454                   23449310.0234
 -31144658.27048 -24234537.86746  21304987.7504                   21304986.4384
 -18117856.00847 -14088414.67644  23720412.8594                   23720412.3754
 -27147366.65648 -21122515.76246  20544119.0394                   20544115.1804
 11  7 26  1 54  0.0000000  0  9G10G12G17G25G05G09G04G27G02
 -21153138.64848 -16014923.45346  20878018.7814                   20878016.9304
 -14296637.27347 -11110598.47346  21513487.8054                   21513484.7894
 -35415347.41446 -27559410.52044  22987948.0864                   22987946.7504
   7571634.81347   5930519.93843  24365910.6724                   24365911.1914
  -6969776.76247  -5402385.29345  22374825.5554                   22374825.4454
  -9935196.67647  -7711366.94144  23457102.0394                   23457101.0474
 -31109012.55548 -24206761.96946  21311770.9614                   21311769.4614
 -18091154.49647 -14067608.33643  23725493.3984                   23725493.5634
 -27191568.64548 -21156958.85246  20535707.4694                   20535703.7814
 11  7 26  1 54 30.0000000  0  9G10G12G17G25G05G09G04G27G02
 -21206857.08248 -16056781.94946  20867796.1564                   20867794.7304
 -14397325.32448 -11189056.63746  21494327.1024                   21494324.2974
 -35398604.61347 -27546364.17644  22991134.3364                   22991133.0434
   7432979.34847   5822476.68443  24339525.5164                   24339525.9654
  -7103344.22347  -5506463.71945  22349408.9224                   22349408.0784
  -9894015.89847  -7679278.08244  23464938.2034                   23464938.4534
 -31073151.84848 -24178818.53946  21318594.8204                   21318593.5124
 -18064322.59446 -14046700.39544  23730599.4064                   23730600.2854
 -27235432.51248 -21191138.47346  20527360.6414                   20527356.3054
 11  7 26  1 55  0.0000000  0  9G10G12G17G25G05G09G04G27G02
 -21259941.43448 -16098146.34846  20857694.9304                   20857693.6024
 -14497591.91847 -11267186.39146  21475247.1414                   21475244.3714
 -35381697.41847 -27533189.72744  22994351.7504                   22994350.3594
   7294479.55546   5714554.77043  24313169.1254                   24313170.4024
  -7236655.41847  -5610342.47745  22324040.5864                   22324039.6334
  -9852606.55147  -7647011.09844  23472817.9144                   23472818.0864
 -31037082.68048 -24150712.68746  21325458.4694                   21325457.1484
 -18037367.36746 -14025696.39843  23735728.7584                   23735730.3404
 -27278963.52748 -21225058.72746  20519076.9694                   20519072.7304
 11  7 26  1 55 30.0000000  0  9G10G12G17G25G05G09G04G27G02
 -21312384.73448 -16139011.22746  20847715.1564                   20847713.2194
 -14597429.43047 -11344981.79746  21456248.5004                   21456246.0124
 -35364619.80147 -27519882.48045  22997601.5944                   22997600.9734
   7156143.54347   5606760.52743  24286844.8134                   24286846.2544
  -7369701.52747  -5714014.68045  22298722.2814                   22298721.5394
  -9810966.71147  -7614564.50844  23480741.8524                   23480741.2154
 -31000801.51248 -24122441.64546  21332362.8134                   21332361.2424
 -18010286.08646 -14004594.15644  23740882.1484                   23740884.0944
 -27322156.99248 -21258715.94546  20510857.8754                   20510853.2624
 11  7 26  1 56  0.0000000  0  9G10G12G17G25G05G09G04G27G02
 -21364188.53948 -16179377.79746  20837857.4304                   20837855.5044
 -14696837.55148 -11422442.61346  21437331.6644                   21437328.9774
 -35347373.56647 -27506443.84445  23000884.2194                   23000882.4024
   7017971.58647   5499094.09444  24260552.1884                   24260553.6134
  -7502482.29347  -5817480.11345  22273455.0784                   22273453.8324
  -9769101.80147  -7581942.56244  23488707.9144                   23488708.3714
 -30964312.90648 -24094008.95746  21339306.5164                   21339304.9024
 -17983083.88347 -13983397.69544  23746058.8524                   23746060.3594
 -27365016.04748 -21292112.58646  20502702.0084                   20502697.6134
 11  7 26  1 56 30.0000000  0  9G10G12G17G25G05G09G04G27G02
 -21415352.09848 -16219245.47346  20828120.9224                   20828119.4304
 -14795814.14548 -11499567.19146  21418496.9454                   21418494.2854
 -35329958.53547 -27492873.69545  23004197.3364                   23004196.4384
   6879966.06346   5391557.36343  24234289.7274                   24234291.2894
  -7634994.76647  -5920736.50845  22248239.4694                   22248238.0554
  -9727015.48047  -7549148.06244  23496716.4144                   23496717.2734
 -30927619.20748 -24065416.45746  21346289.0554                   21346287.5864
 -17955763.53946 -13962109.18044  23751257.9534                   23751258.9694
 -27407542.25848 -21325249.86746  20494609.3054                   20494605.1684
 11  7 26  1 57  0.0000000  0  9G10G12G17G25G05G09G04G27G02
 -21465878.91448 -16258616.99246  20818506.3914                   20818504.8014
 -14894361.57448 -11576357.34846  21399744.1724                   21399741.9494
 -35312378.64847 -27479175.09045  23007542.7424                   23007541.5824
   6742124.89146   5284148.68844  24208059.7664                   24208061.3984
  -7767240.84047  -6023785.30145  22223073.0474                   22223072.1564
  -9684715.99247  -7516187.46944  23504766.1484                   23504766.6884
 -30890727.00448 -24036669.28945  21353309.2504                   21353308.0044
 -17928332.45347 -13940734.35943  23756478.0864                   23756478.5124
 -27449741.30548 -21358132.22346  20486578.7584                   20486575.3094
 11  7 26  1 57 30.0000000  0  9G10G12G17G25G05G09G04G27G02
 -21515756.67248 -16297482.75446  20809014.8134                   20809013.1174
 -14992465.67247 -11652802.05546  21381075.4534                   21381073.0004
 -35294621.89147 -27465338.65645  23010921.7734                   23010920.4304
   6604462.26247   5176879.16444  24181863.9614                   24181865.3244
  -7899205.60247  -6126614.89145  22197961.0164                   22197960.2384
  -9642195.16047  -7483054.41844  23512858.0084                   23512858.8554
 -30853626.85548 -24007760.09045  21360369.3914                   21360367.8914
 -17900781.83247 -13919266.37543  23761720.5634                   23761721.0164
 -27491602.22348 -21390751.09046  20478613.0474                   20478609.2974
 11  7 26  1 58  0.0000000  0  9G10G12G17G25G05G09G04G27G02
 -21564990.35548 -16335846.63346  20799646.0864                   20799644.0044
 -15090129.91848 -11728904.03146  21362490.3754                   21362487.9844
 -35276693.55547 -27451368.52745  23014333.7034                   23014332.3014
   6466974.99647   5069746.28144  24155700.5554                   24155702.1374
  -8030891.96547  -6229227.56645  22172901.9064                   22172900.7854
  -9599462.18747  -7449756.04744  23520990.4304                   23520990.5554
 -30816326.44148 -23978694.84845  21367466.8134                   21367465.6804
 -17873120.16847 -13897711.87943  23766985.0004                   23766985.8444
 -27533131.69948 -21423111.69946  20470710.7664                   20470705.7854
 11  7 26  1 58 30.0000000  0  9G10G12G17G25G05G09G04G27G02
 -21613581.12948 -16373709.55146  20790399.4614                   20790397.7304
 -15187353.79348 -11804662.87146  21343989.4694                   21343986.8914
 -35258595.19147 -27437265.88745  23017777.4924                   23017776.2934
   6329663.73047   4962750.53944  24129571.3204                   24129572.6294
  -8162298.77347  -6331622.39845  22147896.2344                   22147894.6804
  -9556522.16847  -7416296.34444  23529161.0394                   23529161.1914
 -30778829.89848 -23949476.76645  21374602.5784                   21374600.6764
 -17845352.16846 -13876074.55544  23772268.3444                   23772270.8484
 -27574332.86748 -21455216.48046  20462870.2034                   20462865.6914
 11  7 26  1 59  0.0000000  0  9G10G12G17G25G05G09G04G27G02
 -21661526.01248 -16411069.17646  20781275.7344                   20781273.8984
 -15284133.03548 -11880075.24646  21325572.8754                   21325570.5594
 -35240324.23447 -27423028.78545  23021254.2034                   23021252.7704
   6192533.01647   4855895.48443  24103475.9694                   24103478.4104
  -8293421.37148  -6433795.78545  22122944.3444                   22122942.9884
  -9513376.58247  -7382676.46544  23537370.9774                   23537371.6374
 -30741137.40648 -23920106.00046  21381775.0394                   21381773.7934
 -17817478.56246 -13854354.98043  23777572.5314                   23777574.8874
 -27615204.57048 -21487064.54746  20455092.2894                   20455088.3834
 11  7 26  1 59 30.0000000  0  9G10G12G17G25G05G09G04G27G02
 -21708834.92248 -16447933.23046  20772272.9694                   20772271.1214
 -15380475.78548 -11955147.50046  21307239.2114                   21307237.1254
 -35221890.66847 -27408664.96945  23024762.2814                   23024760.8634
   6055575.01247   4749174.96543  24077413.8984                   24077416.1214
  -8424267.05547  -6535753.38745  22098045.3204                   22098043.9224
  -9470039.37547  -7348907.25844  23545618.1094                   23545618.2504
 -30703261.34448 -23890592.18446  21388982.8754                   21388981.1294
 -17789512.61746 -13832563.43043  23782894.5864                   23782895.4924
 -27655758.15648 -21518664.72746  20447375.1564                   20447371.0004
 11  7 26  2  0  0.0000000  0  9G10G12G17G25G05G09G04G27G02
 -21755498.47348 -16484294.41446  20763393.3594                   20763391.9694
 -15476370.74248 -12029870.82846  21288991.3284                   21288989.3794
 -35203284.99247 -27394167.07045  23028302.5474                   23028301.6254
   5918801.09047   4642597.87943  24051386.4304                   24051388.6214
  -8554824.24647  -6637486.18745  22073200.5084                   22073199.0904
  -9426505.40647  -7314984.73044  23553902.8364                   23553902.6024
 -30665195.15248 -23860930.22345  21396226.3444                   21396225.2814
 -17761448.31246 -13810695.22743  23788234.9614                   23788235.4924
 -27695986.14848 -21550011.18746  20439720.1644                   20439715.9024
 11  7 26  2  0 30.0000000  0  9G10G12G17G25G05G09G04G27G02
 -21801507.88748 -16520145.89146  20754638.1254                   20754636.2384
 -15571808.10248 -12104237.59046  21270830.3834                   21270828.0594
 -35184499.16047 -27379528.78945  23031877.8054                   23031876.6294
   5782221.74247   4536172.45744  24025396.2114                   24025399.0274
  -8685081.98047  -6738985.64145  22048413.2974                   22048412.1334
  -9382769.91447  -7280905.16044  23562225.2814                   23562225.3634
 -30626932.87548 -23831115.46145  21403507.4774                   21403506.2934
 -17733280.57846 -13788746.43043  23793595.4144                   23793596.8794
 -27735881.37148 -21581098.35247  20432128.2814                   20432124.0274
 11  7 26  2  1  0.0000000  0  9G10G12G17G25G05G09G04G27G02
 -21846870.52748 -16555493.38746  20746005.8204                   20746004.0474
 -15666793.51248 -12178252.18746  21252755.1334                   21252752.8204
 -35165540.71547 -27364755.98045  23035485.4924                   23035484.2624
   5645831.58647   4429894.41444  23999442.2974                   23999443.4184
  -8815045.58247  -6840255.89545  22023681.9144                   22023680.6914
  -9338844.48847  -7246677.61344  23570583.8054                   23570583.9384
 -30588484.63348 -23801155.78545  21410824.2664                   21410822.5664
 -17705020.23446 -13766725.48444  23798973.7034                   23798974.7934
 -27775452.97748 -21611933.35946  20424598.0864                   20424593.9024
 11  7 26  2  1 30.0000000  0  9G10G12G17G25G05G09G04G27G02
 -21891589.58248 -16590339.38346  20737496.3444                   20737494.2664
 -15761328.05948 -12251915.46146  21234765.4774                   21234763.8484
 -35146412.35947 -27349850.78545  23039125.4304                   23039124.1644
   5509629.60247   4323763.02044  23973524.0084                   23973525.5314
  -8944715.34447  -6941297.18046  21999006.8594                   21999005.7734
  -9294735.94947  -7212307.37544  23578977.0474                   23578977.7814
 -30549856.00448 -23771055.55545  21418174.4924                   21418173.5784
 -17676673.35946 -13744637.13744  23804367.1334                   23804368.5984
 -27814705.39148 -21642519.66446  20417128.6954                   20417124.3014
 11  7 26  2  2  0.0000000  0  9G10G12G17G25G05G09G04G27G02
 -20360243.25048 -15397082.48846  21028901.7034                   21028899.7464
 -14279986.78948 -11097623.55146  21516655.6954                   21516653.4264
 -33551695.10547 -26107213.99645  23342589.4694                   23342588.7854
   6949042.53147   5445383.51244  24247434.8834                   24247437.4024
  -7498664.63347  -5814504.32446  22274181.3444                   22274179.7704
  -7675029.59847  -5950198.57044  23887197.2584                   23887198.3674
 -28935630.69948 -22513217.65645  21725351.3674                   21725350.2194
 -16072824.09046 -12494884.55944  24109569.7114                   24109571.3524
 -26278219.05148 -20445257.57446  20709512.3054                   20709507.6684
 11  7 26  2  2 30.0000000  0  9G10G12G17G25G05G09G04G27G02
 -20403670.29748 -15430921.72746  21020637.6174                   21020635.6724
 -14373609.72748 -11170576.48046  21498839.4304                   21498837.6254
 -33532222.94947 -26092040.92645  23346295.3594                   23346293.9534
   6813227.70347   5339553.84444  24221589.4924                   24221591.9064
  -7627735.64547  -5915079.07046  22249619.3444                   22249618.2894
  -7630562.19547  -5915548.67644  23895659.6024                   23895660.5784
 -28896644.39148 -22482838.73045  21732770.6804                   21732769.3754
 -16044309.42246 -12472665.46944  24114996.2734                   24114998.7504
 -26316833.78948 -20475346.96146  20702163.9384                   20702159.9024
 11  7 26  2  3  0.0000000  0  9G10G12G17G25G05G09G04G27G02
 -20446451.75048 -15464257.90646  21012496.5944                   21012494.6454
 -14466774.58248 -11243172.45346  21481110.9614                   21481108.9414
 -33512579.59447 -26076734.45344  23350033.4534                   23350032.1484
   6677609.14147   5233877.06644  24195783.2894                   24195784.4734
  -7756503.98047  -6015417.94146  22225115.6334                   22225114.5984
  -7585921.71947  -5880763.90644  23904153.9064                   23904154.6094
 -28857483.45748 -22452323.73045  21740222.5634                   21740221.0234
 -16015716.46146 -12450385.34443  24120437.8364                   24120439.8054
 -26355132.19548 -20505189.85246  20694876.2114                   20694872.0044
 11  7 26  2  3 30.0000000  0  9G10G12G17G25G05G09G04G27G02
 -20488578.34848 -15497083.81246  21004480.0314                   21004478.0904
 -14559470.37148 -11315402.91846  21463471.7894                   21463469.5434
 -33492755.55546 -26061287.17244  23353805.3364                   23353804.2704
   6542198.21147   5128362.07444  24170014.7584                   24170016.2424
  -7884957.91047  -6115511.83246  22200672.0084                   22200670.4574
  -7541102.84847  -5845840.12143  23912682.8444                   23912683.1604
 -28818141.36748 -22421667.56245  21747709.2344                   21747707.4774
 -15987039.08246 -12428039.39143  24125894.0084                   24125896.0984
 -26393106.66048 -20534780.33246  20687649.7424                   20687645.4494
 11  7 26  2  4  0.0000000  0  9G10G12G17G25G05G09G04G27G02
 -20530050.98848 -15529400.13746  20996588.0004                   20996586.3594
 -14651696.53948 -11387267.43746  21445921.5554                   21445919.1174
 -33472752.12946 -26045700.10944  23357611.7344                   23357611.2464
   6406996.15247   5023009.80544  24144286.7584                   24144288.1134
  -8013096.10547  -6215359.69146  22176287.8524                   22176286.2344
  -7496110.12946  -5810780.90244  23921244.2034                   23921244.7304
 -28778621.23848 -22390872.67245  21755229.7584                   21755228.0394
 -15958281.45345 -12405630.96143  24131366.6644                   24131367.5314
 -26430759.57848 -20564120.27346  20680484.6644                   20680480.1804
 11  7 26  2  4 30.0000000  0  9G10G12G17G25G05G09G04G27G02
 -20570876.78148 -15561212.41846  20988819.3364                   20988817.2734
 -14743457.94548 -11458769.80546  21428459.8674                   21428457.5314
 -33452576.01646 -26029978.47744  23361451.4614                   23361450.2734
   6271998.21147   4917816.60244  24118598.2114                   24118599.0554
  -8140922.99647  -6314964.98446  22151963.2664                   22151961.7274
  -7450954.72747  -5775594.93744  23929836.9774                   23929837.9844
 -28738932.70348 -22359946.56245  21762781.8674                   21762781.1094
 -15929453.64146 -12383167.84843  24136852.4614                   24136854.3524
 -26468099.67248 -20593216.44546  20673379.0084                   20673374.7664
 11  7 26  2  5  0.0000000  0  9G10G12G17G25G05G09G04G27G02
 -20611055.71547 -15592520.66046  20981173.2974                   20981171.3364
 -14834753.33248 -11529909.02746  21411087.0084                   21411084.6414
 -33432227.28946 -26014122.34444  23365323.8984                   23365322.4844
   6137206.50447   4812784.09844  24092948.0784                   24092949.1644
  -8268436.21147  -6414325.84846  22127697.9454                   22127696.6564
  -7405640.60547  -5740285.31644  23938461.0084                   23938461.9574
 -28699078.24248 -22328891.16045  21770366.3054                   21770364.8244
 -15900559.35946 -12360652.90243  24142351.1644                   24142353.2194
 -26505128.27348 -20622069.88346  20666332.6884                   20666328.2274
 11  7 26  2  5 30.0000000  0  9G10G12G17G25G05G09G04G27G02
 -20650589.27748 -15623326.01246  20973650.4614                   20973648.2034
 -14925582.10248 -11600684.65246  21393802.5164                   21393799.9494
 -33411707.44946 -25998132.89144  23369228.0004                   23369227.3834
   6002621.70347   4707912.79344  24067337.0394                   24067337.7704
  -8395634.91447  -6513441.64845  22103492.7734                   22103491.4304
  -7360172.82447  -5704855.91444  23947113.4844                   23947113.4454
 -28659061.53948 -22297709.34045  21777980.9064                   21777979.6214
 -15871602.89546 -12338089.49643  24147861.2034                   24147863.1254
 -26541848.27048 -20650682.84446  20659345.2034                   20659341.1454
 11  7 26  2  6  0.0000000  0  9G10G12G17G25G05G09G04G27G02
 -20689474.42247 -15653626.10246  20966250.9924                   20966248.6214
 -15015939.19948 -11671092.74246  21376608.3364                   21376605.8524
 -33391013.43746 -25982007.69144  23373166.6484                   23373165.1374
   5868249.03547   4603206.86744  24041766.1564                   24041767.6374
  -8522513.60947  -6612308.09046  22079348.9304                   22079346.8954
  -7314552.30547  -5669307.48043  23955794.1954                   23955794.1374
 -28618882.21148 -22266400.79345  21785627.2424                   21785625.3054
 -15842584.42246 -12315477.72743  24153383.9144                   24153383.9414
 -26578258.34048 -20679054.30546  20652416.7814                   20652412.5904
 11  7 26  2  6 30.0000000  0  9G10G12G17G25G05G09G04G27G02
 -20727711.03148 -15683420.83246  20958974.6564                   20958972.8404
 -15105822.78148 -11741131.85246  21359504.1804                   21359501.7384
 -33370144.59047 -25965746.25844  23377137.6884                   23377136.4344
   5734091.39147   4498668.50444  24016237.2664                   24016238.4534
  -8649069.09047  -6710922.67246  22055265.7424                   22055264.3984
  -7268782.10947  -5633642.45744  23964503.8754                   23964504.7424
 -28578542.00048 -22234966.87545  21793303.6254                   21793301.8484
 -15813506.39146 -12292819.54743  24158916.1724                   24158917.5824
 -26614359.26248 -20707184.87946  20645546.5004                   20645542.8164
 11  7 26  2  7  0.0000000  0  9G10G12G17G25G05G09G04G27G02
 -20765304.92648 -15712714.75046  20951820.6334                   20951818.6604
 -15195236.75048 -11810805.02046  21342488.9924                   21342486.7504
 -33349106.98847 -25949353.32044  23381141.2584                   23381139.5594
   5600145.15647   4394294.90244  23990748.3284                   23990749.4844
  -8775305.10547  -6809288.32046  22031244.0864                   22031242.3404
  -7222871.76247  -5597868.21944  23973240.3054                   23973240.9024
 -28538048.99648 -22203413.90645  21801008.9774                   21801007.5864
 -15784377.97346 -12270122.17643  24164460.0944                   24164462.8634
 -26650158.18748 -20735080.15246  20638734.4064                   20638730.1524
 11  7 26  2  7 30.0000000  0  9G10G12G17G25G05G09G04G27G02
 -20802245.05148 -15741499.23446  20944791.4064                   20944789.5044
 -15284168.19148 -11880102.19946  21325566.0394                   21325563.4104
 -33327889.28547 -25932820.03144  23385178.9774                   23385177.4264
   5466423.60547   4290096.42244  23965301.4774                   23965303.0004
  -8901207.89547  -6907394.31246  22007285.0784                   22007283.9064
  -7176814.34047  -5561979.35944  23982005.1644                   23982006.4804
 -28497394.79748 -22171735.32845  21808745.2424                   21808743.5314
 -15755191.09046 -12247379.23844  24170014.6334                   24170017.0864
 -26685645.78548 -20762732.82446  20631981.2114                   20631977.0084
 11  7 26  2  8  0.0000000  0  9G10G12G17G25G05G09G04G27G02
 -20838534.17648 -15769776.44946  20937885.4454                   20937883.6524
 -15372617.68747 -11949023.84446  21308734.7194                   21308731.9654
 -33306493.91046 -25916148.31644  23389249.7664                   23389249.1174
   5332926.67247   4186072.90244  23939898.3594                   23939898.6884
  -9026777.09448  -7005240.37546  21983389.9224                   21983388.8714
  -7130615.80547  -5525980.56644  23990796.5234                   23990798.2034
 -28456583.73448 -22139934.52045  21816511.1954                   21816510.1334
 -15725951.49646 -12224595.15243  24175579.1024                   24175580.2504
 -26720826.11348 -20790146.05546  20625286.6804                   20625282.2734
 11  7 26  2  8 30.0000000  0  9G10G12G17G25G05G09G04G27G02
 -20874168.80148 -15797543.66046  20931104.8204                   20931102.4064
 -15460580.00848 -12017565.85546  21291995.8364                   21291993.2974
 -33284917.44546 -25899335.49644  23393356.3284                   23393354.9924
   5199660.02747   4082228.87144  23914538.2424                   23914539.0234
  -9152007.28547  -7102822.26246  21959559.3134                   21959558.2424
  -7084276.54347  -5489872.10944  23999614.5234                   23999615.5394
 -28415614.83248 -22108010.70745  21824307.5634                   21824306.1484
 -15696658.48846 -12201769.44543  24181151.8594                   24181153.4344
 -26755696.77748 -20817317.99246  20618651.1884                   20618646.7854
 11  7 26  2  9  0.0000000  0  9G10G12G17G25G05G09G04G27G02
 -20909150.34848 -15824801.98846  20924447.9384                   20924445.6764
 -15548054.61748 -12085727.84846  21275349.6094                   21275347.4534
 -33263160.74247 -25882382.20344  23397495.8134                   23397494.9024
   5066624.81647   3978565.22344  23889221.8674                   23889224.0554
  -9276896.82847  -7200138.71146  21935793.6724                   21935792.2584
  -7037801.50046  -5453657.83643  24008458.5944                   24008458.0084
 -28374491.63348 -22075966.65645  21832133.2424                   21832131.5744
 -15667316.50046 -12178905.66843  24186735.3444                   24186737.4264
 -26790260.45748 -20844250.72346  20612073.7974                   20612069.8754
 11  7 26  2  9 30.0000000  0  9G10G12G17G25G05G09G04G27G02
 -20943480.28548 -15851552.57446  20917914.9144                   20917913.2704
 -15635041.27047 -12153509.60946  21258796.7734                   21258794.3204
 -33241225.00447 -25865289.40244  23401670.5164                   23401668.7504
   4933822.12947   3875082.71544  23863950.6094                   23863952.1134
  -9401444.63347  -7297188.87946  21912093.1174                   21912091.0824
  -6991195.28546  -5417341.30943  24017326.6484                   24017326.5234
 -28333217.51648 -22043805.00045  21839987.2274                   21839986.2504
 -15637929.70746 -12156006.93743  24192329.1724                   24192330.7814
 -26824519.47748 -20870946.05546  20605554.6414                   20605550.4184
 11  7 26  2 10  0.0000000  0  9G10G12G17G25G05G09G04G27G02
 -20977164.46148 -15877799.96946  20911504.9304                   20911503.0864
 -15721543.31647 -12220913.77046  21242336.0474                   21242333.4184
 -33219115.91447 -25848061.52344  23405878.1724                   23405875.6804
   4801248.68847   3771778.85244  23838722.6804                   23838723.8954
  -9525653.76247  -7393975.12946  21888456.7814                   21888455.0164
  -6944467.24647  -5380929.83643  24026219.1724                   24026219.7974
 -28291800.16048 -22011531.72745  21847868.9304                   21847867.1884
 -15608506.69546 -12133079.98043  24197927.6024                   24197929.7114
 -26858481.35548 -20897409.84446  20599091.7734                   20599087.7814
 11  7 26  2 10 30.0000000  0  9G10G12G17G25G05G09G04G27G02
 -21010200.89148 -15903542.62546  20905218.5004                   20905216.0554
 -15807557.43447 -12287937.71946  21225967.9774                   21225965.3204
 -33196831.20747 -25830696.80944  23410118.3524                   23410116.6374
   4668908.99247   3668657.16844  23813538.8134                   23813540.9344
  -9649519.39547  -7490493.74246  21864885.8594                   21864884.2854
  -6897619.07846  -5344424.82843  24035133.8204                   24035135.5474
 -28250239.52748 -21979146.80945  21855777.1564                   21855776.1684
 -15579048.37546 -12110125.47343  24203533.2734                   24203534.6804
 -26892145.22348 -20923641.39846  20592685.5474                   20592681.3484
 11  7 26  2 11  0.0000000  0  9G10G12G17G25G05G09G04G27G02
 -21042586.55547 -15928778.19146  20899055.6094                   20899053.4654
 -15893078.25848 -12354577.30146  21209693.9144                   21209691.2034
 -33174367.11747 -25813192.31244  23414392.9534                   23414391.5634
   4536808.75047   3565722.06344  23788401.3054                   23788402.9454
  -9773035.66447  -7586740.12546  21841381.5394                   21841379.8834
  -6850650.89146  -5307826.27043  24044071.0394                   24044072.9734
 -28208534.84448 -21946649.64845  21863713.6954                   21863711.9064
 -15549554.67246 -12087143.35543  24209146.4844                   24209147.4844
 -26925509.16448 -20949639.23846  20586336.5474                   20586332.4654
 11  7 26  2 11 30.0000000  0  9G10G12G17G25G05G09G04G27G02
 -21074326.46148 -15953510.57046  20893016.1564                   20893013.7464
 -15978108.30948 -12420834.45746  21193513.1484                   21193510.9694
 -33151728.37947 -25795551.75044  23418701.2584                   23418699.9774
   4404945.68847   3462971.71944  23763308.5864                   23763309.9804
  -9896204.91447  -7682716.09446  21817943.8984                   21817941.6684
  -6803570.99646  -5271140.69143  24053030.1254                   24053031.1254
 -28166692.80548 -21914045.45345  21871676.0784                   21871674.6564
 -15520033.13346 -12064139.58643  24214763.4844                   24214765.3984
 -26958578.90248 -20975407.84046  20580043.5474                   20580039.1454
 11  7 26  2 12  0.0000000  0  9G10G12G17G25G05G09G04G27G02
 -21105413.96548 -15977734.59046  20887099.7274                   20887098.1414
 -16062639.53548 -12486702.92246  21177427.6804                   21177425.0044
 -33128908.30947 -25777769.87944  23423043.5234                   23423042.3714
   4273328.86747   3360413.28144  23738262.4924                   23738263.0234
 -10019018.12547  -7778414.64546  21794572.8134                   21794570.8634
  -6756376.41047  -5234365.71543  24062011.8834                   24062012.0044
 -28124708.87948 -21881330.69145  21879665.1334                   21879663.5004
 -15490479.89846 -12041111.16443  24220387.4144                   24220389.1884
 -26991349.29348 -21000943.19146  20573807.6724                   20573803.6134
 11  7 26  2 12 30.0000000  0  9G10G12G17G25G05G09G04G27G02
 -21135849.81248 -16001450.80546  20881308.1174                   20881306.1054
 -16146670.60548 -12552181.67246  21161436.7814                   21161434.5204
 -33105907.14547 -25759846.90244  23427420.1954                   23427419.6524
   4141960.23847   3258048.18844  23713263.6174                   23713265.1954
 -10141473.32047  -7873834.21946  21771269.6334                   21771268.3364
  -6709071.24247  -5197504.55944  24071013.8284                   24071014.6094
 -28082585.46148 -21848507.23045  21887680.3754                   21887679.9304
 -15460898.42246 -12018060.60943  24226017.1334                   24226017.0044
 -27023822.27348 -21026246.79746  20567628.5004                   20567624.6564
 11  7 26  2 13  0.0000000  0  9G10G12G17G25G05G09G04G27G02
 -21165635.46547 -16024660.38746  20875640.1644                   20875638.4494
 -16230200.32448 -12617269.74646  21145541.9064                   21145539.6564
 -33082725.85247 -25741783.55544  23431831.3054                   23431830.8094
   4010841.28147   3155877.69144  23688312.8754                   23688313.8754
 -10263568.26647  -7968973.08246  21748036.0084                   21748034.4694
  -6661659.96547  -5160560.71944  24080036.4774                   24080037.3364
 -28040325.85248 -21815577.66045  21895722.6094                   21895721.1994
 -15431292.71146 -11994991.20343  24231651.0634                   24231652.8324
 -27056000.36748 -21051320.61346  20561504.8984                   20561501.3284
 11  7 26  2 13 30.0000000  0  9G10G12G17G25G05G09G04G27G02
 -21194777.11748 -16047368.14146  20870094.4534                   20870092.7074
 -16313233.02348 -12681970.54746  21129741.3364                   21129738.6094
 -33059370.02047 -25723584.23044  23436276.6174                   23436275.7074
   3879968.58247   3053899.03544  23663407.5394                   23663408.6454
 -10385306.51247  -8063833.99246  21724870.1414                   21724868.3554
  -6614151.85547  -5123541.42244  24089077.0554                   24089076.9344
 -27997937.92248 -21782548.09045  21903789.1024                   21903787.4964
 -15401671.52046 -11971909.73043  24237286.5784                   24237290.1094
 -27087890.55148 -21076170.07846  20555436.6024                   20555432.2304
 11  7 26  2 14  0.0000000  0  9G10G12G17G25G05G09G04G27G02
 -21223267.36347 -16069568.30546  20864672.9454                   20864671.1334
 -16395759.32448 -12746276.74646  21114036.7974                   21114034.5594
 -33035831.59047 -25705242.61744  23440755.4224                   23440754.4344
   3749352.21547   2952120.13344  23638552.1024                   23638553.6844
 -10506677.78147  -8158408.95346  21701774.2814                   21701772.1294
  -6566543.09046  -5086443.67643  24098136.2664                   24098136.2664
 -27955416.03548 -21749414.12945  21911880.4454                   21911879.2734
 -15372029.96145 -11948812.52343  24242927.0394                   24242929.1174
 -27119486.22348 -21100790.06246  20549424.0944                   20549419.8404
 11  7 26  2 14 30.0000000  0  9G10G12G17G25G05G09G04G27G02
 -21251111.00048 -16091264.62946  20859374.7814                   20859372.9454
 -16477781.87548 -12810190.41446  21098428.8754                   21098426.2304
 -33012114.83647 -25686762.02744  23445268.4924                   23445267.7814
   3618990.50447   2850539.65244  23613745.9844                   23613746.7584
 -10627683.93448  -8252699.39846  21678747.0704                   21678745.6174
  -6518841.25046  -5049273.49243  24107214.2424                   24107214.5044
 -27912766.36748 -21716180.60245  21919996.3594                   21919995.4414
 -15342375.43446 -11925705.10243  24248571.1804                   24248571.8524
 -27150793.01248 -21125184.91446  20543466.6954                   20543462.2154
 11  7 26  2 15  0.0000000  0  9G10G12G17G25G05G09G04G27G02
 -21278311.90647 -16112460.11746  20854198.4454                   20854196.6024
 -16559302.41048 -12873712.90646  21082915.4384                   21082913.4494
 -32988223.23847 -25668145.20744  23449815.3444                   23449813.8954
   3488882.32847   2749156.75844  23588986.8524                   23588988.8634
 -10748326.09847  -8346706.21946  21655789.5634                   21655787.7304
  -6471053.14846  -5012036.05144  24116307.5234                   24116308.8284
 -27869994.52047 -21682851.86745  21928135.0864                   21928134.0984
 -15312714.37946 -11902592.63343  24254213.8984                   24254216.1484
 -27181816.03948 -21149358.68046  20537562.9534                   20537558.9694
 11  7 26  2 15 30.0000000  0  9G10G12G17G25G05G09G04G27G02
 -21304868.71948 -16133153.71946  20849144.8364                   20849142.8014
 -16640317.38748 -12936841.44546  21067499.4064                   21067496.7504
 -32964154.80947 -25649390.56644  23454395.4064                   23454393.4734
   3359031.59047   2647974.42644  23564277.3984                   23564277.8134
 -10868600.29348  -8440426.31246  21632902.0314                   21632900.8444
  -6423181.21547  -4974733.28944  24125417.6564                   24125418.6684
 -27827101.03147 -21649428.35945  21936297.7894                   21936296.4844
 -15283048.01446 -11879476.07843  24259860.2114                   24259863.0044
 -27212555.03148 -21173311.12146  20531713.5864                   20531709.5204
 11  7 26  2 16  0.0000000  0  9G10G12G17G25G05G09G04G27G02
 -21330784.29348 -16153347.65646  20844213.1724                   20844211.4534
 -16720827.26248 -12999576.40246  21052178.5084                   21052176.0514
 -32939911.80547 -25630499.91844  23459008.2344                   23459007.0944
   3229438.77347   2546993.06644  23539616.4454                   23539617.0274
 -10988505.87548  -8533859.18046  21610084.9924                   21610083.3014
  -6375231.15646  -4937369.61343  24134540.8754                   24134542.1454
 -27784090.12547 -21615913.35945  21944482.4144                   21944481.1054
 -15253381.30546 -11856359.23443  24265505.9614                   24265509.5084
 -27243013.63348 -21197045.09846  20525917.1884                   20525913.5084
 11  7 26  2 16 30.0000000  0  9G10G12G17G25G05G09G04G27G02
 -21356051.14848 -16173036.09846  20839405.3054                   20839403.1884
 -16800822.68448 -13061910.48446  21036956.0704                   21036953.0514
 -32915486.02347 -25611466.84844  23463655.9774                   23463655.6914
   3100114.33647   2446220.85944  23515006.0554                   23515007.8874
 -11108032.41848  -8626996.68446  21587339.4384                   21587338.1414
  -6327198.05946  -4899941.24643  24143681.7584                   24143681.4184
 -27740955.55547 -21582301.99245  21952690.6724                   21952689.5004
 -15223709.14846 -11833238.09843  24271152.7194                   24271154.5864
 -27273184.80148 -21220555.06646  20520176.2504                   20520171.7894
 11  7 26  2 17  0.0000000  0  9G10G12G17G25G05G09G04G27G02
 -21380675.39548 -16192223.80946  20834719.3754                   20834717.3134
 -16880307.42248 -13123846.62546  21021830.4694                   21021828.2274
 -32890882.84047 -25592295.52344  23468338.5944                   23468337.2154
   2971055.18047   2345655.34444  23490447.5704                   23490448.1724
 -11227183.04347  -8719841.27346  21564665.9774                   21564664.4924
  -6279091.09046  -4862455.29343  24152836.0864                   24152836.1454
 -27697705.02748 -21548600.24245  21960921.1724                   21960919.8954
 -15194039.96146 -11810119.25043  24276798.8914                   24276799.3754
 -27303075.62548 -21243846.59046  20514487.8914                   20514483.6764
 11  7 26  2 17 30.0000000  0  9G10G12G17G25G05G09G04G27G02
 -21404656.53948 -16210910.41046  20830155.8914                   20830153.9144
 -16959279.08648 -13185382.96146  21006802.8054                   21006799.5984
 -32866101.14147 -25572985.09044  23473054.5554                   23473053.1254
   2842264.60247   2245299.09044  23465939.4144                   23465940.0394
 -11345954.27048  -8812390.23046  21542064.4844                   21542062.7854
  -6230912.97746  -4824913.93743  24162004.6334                   24162006.1214
 -27654339.65247 -21514809.00845  21969172.9774                   21969172.0204
 -15164375.84046 -11787004.35243  24282443.9224                   24282445.6374
 -27332686.46548 -21266919.95346  20508853.1174                   20508849.0234
 11  7 26  2 18  0.0000000  0  9G10G12G17G25G05G09G04G27G02
 -21427989.37148 -16229091.82446  20825715.8914                   20825714.0474
 -17037729.98848 -13246513.51246  20991873.8984                   20991871.4064
 -32841135.33247 -25553531.18044  23477804.1954                   23477803.6604
   2713750.81647   2145158.52344  23441483.9924                   23441484.3984
 -11464338.09048  -8904637.31246  21519536.9064                   21519535.0434
  -6182661.30547  -4787315.25444  24171186.9844                   24171188.8054
 -27610855.71547 -21480925.39545  21977447.7894                   21977446.6454
 -15134714.09046 -11763891.37143  24288087.3754                   24288090.3054
 -27362012.93048 -21289771.73846  20503272.5084                   20503268.4454
 11  7 26  2 18 30.0000000  0  9G10G12G17G25G05G09G04G27G02
 -21450681.14548 -16246773.72346  20821397.7664                   20821395.5274
 -17115664.95748 -13307242.03146  20977043.4844                   20977040.3984
 -32815991.36747 -25533938.45744  23482589.4304                   23482588.2814
   2585509.95747   2045230.60544  23417080.7194                   23417081.7624
 -11582338.35248  -8996585.52046  21497082.0474                   21497079.9574
  -6134345.84447  -4749666.84844  24180381.1334                   24180382.1884
 -27567261.37947 -21446955.76245  21985743.7504                   21985742.2154
 -15105063.61746 -11740787.14843  24293730.2584                   24293730.7034
 -27391062.57448 -21312407.79746  20497744.5944                   20497740.6374
 11  7 26  2 19  0.0000000  0  9G10G12G17G25G05G09G04G27G02
 -21472736.21547 -16263959.47746  20817200.8754                   20817198.7704
 -17193086.19548 -13367570.23046  20962310.6334                   20962308.0394
 -32790672.99247 -25514209.84044  23487407.5164                   23487406.0354
   2457540.60947   1945514.28544  23392728.6804                   23392729.7384
 -11699956.19548  -9088235.73446  21474699.9064                   21474698.0044
  -6085974.20747  -4711974.61344  24189585.8754                   24189585.4884
 -27523562.73447 -21412904.84845  21994058.9224                   21994057.8014
 -15075431.14546 -11717696.90643  24299369.5164                   24299369.9774
 -27419841.09448 -21334832.59446  20492268.3674                   20492263.6134
 11  7 26  2 19 30.0000000  0  9G10G12G17G25G05G09G04G27G02
 -21494140.27748 -16280637.96146  20813127.8444                   20813125.3674
 -17269977.14848 -13427485.22746  20947678.6804                   20947675.5314
 -32765165.34847 -25494333.73044  23492261.8984                   23492260.1414
   2329860.23047   1846023.08644  23368431.8984                   23368432.1914
 -11817174.45748  -9179574.59446  21452394.0314                   21452392.2464
  -6037534.72347  -4674229.52343  24198803.2344                   24198803.5514
 -27479746.36748 -21378762.19545  22002397.5314                   22002395.7854
 -15045804.60246 -11694611.33243  24305006.4384                   24305009.9264
 -27448334.72348 -21357035.41446  20486846.1254                   20486841.9064
 11  7 26  2 20  0.0000000  0  9G10G12G17G25G05G09G04G27G02
 -21514900.33247 -16296814.59446  20809177.2424                   20809175.0784
 -17346342.53148 -13486990.66846  20933146.6334                   20933143.8984
 -32739474.66047 -25474314.98444  23497150.7424                   23497149.2034
   2202465.01247   1746754.12944  23344188.8204                   23344190.4844
 -11933996.91448  -9270605.00846  21430163.5314                   21430161.8834
  -5989037.16846  -4636439.22743  24208031.2734                   24208033.5044
 -27435820.81648 -21344534.45345  22010756.0004                   22010754.5314
 -15016193.05945 -11671537.49642  24310640.4224                   24310645.9924
 -27476550.95348 -21379022.05146  20481476.9694                   20481472.4734
 11  7 26  2 20 30.0000000  0  9G10G12G17G25G05G09G04G27G02
 -21535017.52048 -16312490.29346  20805348.8524                   20805347.1174
 -17422181.57448 -13546085.99646  20918715.0784                   20918712.0634
 -32713601.36347 -25454153.96144  23502074.0704                   23502072.4614
   2075356.75047   1647708.74644  23320001.2344                   23320002.5004
 -12050421.88748  -9361325.71546  21408008.4384                   21408006.9494
  -5940485.64846  -4598606.92643  24217271.1724                   24217272.5744
 -27391788.49647 -21310223.53145  22019135.0944                   22019133.9804
 -14986600.14846 -11663543.03152  24316274.1644                   24316270.0394
 -27504491.48448 -21400793.85946  20476159.6484                   20476155.8284
 11  7 26  2 21  0.0000000  0  9G10G12G17G25G05G09G04G27G02
 -21554495.80148 -16327668.14546  20801642.2974                   20801640.4064
 -17497495.78548 -13604772.35946  20904383.3444                   20904380.7664
 -32687548.34047 -25433852.88744  23507031.7504                   23507030.3484
   1948534.85547   1548886.49244  23295867.6644                   23295868.6644
 -12166449.83647  -9451737.04746  21385929.1564                   21385927.4414
  -5891886.72346  -4560737.62943  24226519.2894                   24226519.9774
 -27347654.34447 -21275833.28145  22027533.2344                   22027531.9654
 -14957031.89546 -11640502.88343  24321899.3984                   24321901.1254
 -27532161.13348 -21422354.59846  20470894.3914                   20470890.1724
 11  7 26  2 21 30.0000000  0  9G10G12G17G25G05G09G04G27G02
 -21573334.41447 -16342347.56246  20798057.7194                   20798055.1644
 -17572281.82048 -13663047.16046  20890151.8834                   20890149.1294
 -32661313.47347 -25413410.14144  23512023.7974                   23512022.6414
   1822003.44147   1450290.61744  23271789.6174                   23271790.3094
 -12282076.78947  -9541835.91446  21363925.6644                   21363924.2504
  -5843242.07446  -4522832.66843  24235774.9694                   24235774.8204
 -27303418.87547 -21241364.07445  22035951.0864                   22035949.8364
 -14927489.48846 -11617482.98043  24327520.9924                   24327525.5354
 -27559559.46948 -21443703.93446  20465680.4144                   20465676.2814
 11  7 26  2 22  0.0000000  0  9G10G12G17G25G05G09G04G27G02
 -21591534.09448 -16356529.09846  20794594.3834                   20794592.1214
 -17646538.32848 -13720909.34846  20876021.5234                   20876018.0944
 -32634897.34047 -25392826.14144  23517050.7114                   23517049.0864
   1695765.00047   1351922.99244  23247767.2974                   23247767.4844
 -12397300.57047  -9631620.62546  21341999.5554                   21341997.4924
  -5794555.32046  -4484895.02343  24245040.2734                   24245041.0004
 -27259083.84847 -21206817.28945  22044388.2114                   22044386.7034
 -14897975.80546 -11594485.40643  24333139.2894                   24333140.3524
 -27586687.96548 -21464843.01246  20460518.1644                   20460513.9454
 11  7 26  2 22 30.0000000  0  9G10G12G17G25G05G09G04G27G02
 -21609095.29348 -16370213.11746  20791252.1174                   20791249.9774
 -17720263.26648 -13778357.31646  20861992.0784                   20861988.6994
 -32608298.96546 -25372100.11744  23522111.7424                   23522110.4694
   1569822.60547   1253786.09444  23223801.1484                   23223802.1414
 -12512117.91847  -9721088.62146  21320150.6174                   21320148.6094
  -5745829.47746  -4446926.86743  24254313.0234                   24254314.2234
 -27214650.66447 -21172194.02045  22052843.0554                   22052841.3594
 -14868493.08647 -11571511.85943  24338748.1954                   24338748.1524
 -27613547.27348 -21485772.32046  20455407.1334                   20455402.7384
 11  7 26  2 23  0.0000000  0  9G10G12G17G25G05G09G04G27G02
 -21626018.14848 -16383399.72746  20788031.9384                   20788029.8014
 -17793454.69548 -13835389.57446  20848063.8594                   20848061.0984
 -32581517.82047 -25351231.68744  23527208.3444                   23527206.8834
   1444179.10247   1155882.11344  23199892.4224                   23199893.1884
 -12626526.27047  -9810237.93746  21298379.2894                   21298377.3134
  -5697067.31646  -4408930.37543  24263591.1724                   24263593.1214
 -27170120.57447 -21137495.24645  22061316.7504                   22061315.2544
 -14839043.52046 -11548564.20343  24344352.6254                   24344352.7034
 -27640138.41848 -21506492.67646  20450347.0314                   20450342.5514
 11  7 26  2 23 30.0000000  0  8G10G12G17G25G05G09G04G02
 -21642301.57048 -16396088.07846  20784933.1724                   20784931.3134
 -17866108.85248 -13892003.18446  20834238.1254                   20834235.3554
 -32554551.63746 -25330219.07044  23532340.0634                   23532338.2304
   1318839.27747   1058214.76244  23176040.2894                   23176041.4064
 -12740521.02347  -9899064.96946  21276686.9064                   21276684.9574
  -5648269.78546  -4370906.34043  24272877.4144                   24272877.7704
 -27125493.23847 -21102720.69545  22069809.0314                   22069807.5984
 -27666460.41448 -21527003.30946  20445338.3364                   20445333.6484
 11  7 26  2 24  0.0000000  0  8G10G12G17G25G05G09G04G02
 -20082527.95748 -15180680.03946  21081748.2734                   21081746.2034
 -16362804.11348 -12720596.87546  21120307.7424                   21120304.6214
 -30951983.38746 -24081464.57844  23837297.7584                   23837297.3554
   2769227.79347   2188387.74644  23452040.1564                   23452041.5124
 -11278677.75448  -8759966.27046  21554866.3834                   21554864.3874
  -4024023.89546  -3105260.14143  24581962.0164                   24581962.4774
 -25505353.94547 -19840274.49245  22378111.2664                   22378110.1134
 -26117095.72348 -20319706.14146  20740172.3444                   20740167.8554
 11  7 26  2 24 30.0000000  0  8G10G12G17G25G05G09G04G02
 -20097530.70748 -15192370.46146  21078893.0004                   21078891.3914
 -16434375.34448 -12776366.65246  21106688.0474                   21106685.1564
 -30924642.46146 -24060159.96144  23842500.8984                   23842500.1684
   2644507.25847   2091202.99644  23428306.5634                   23428307.9414
 -11391833.30148  -8848139.36746  21533333.7194                   21533331.6764
  -3975161.32847  -3067185.40243  24591260.3834                   24591261.7584
 -25460533.18447 -19805349.21945  22386640.3054                   22386639.1054
 -26142878.84848 -20339796.87946  20735265.8834                   20735261.6684
 11  7 26  2 25  0.0000000  0  8G10G12G17G25G05G09G04G02
 -20111892.68448 -15203561.59046  21076160.4064                   21076158.3794
 -16505400.78548 -12831711.13346  21093172.5704                   21093169.7194
 -30897112.28547 -24038707.85944  23847740.2664                   23847739.2344
   2520101.82047   1994263.78544  23404633.5084                   23404633.6564
 -11504564.08647  -8935981.48446  21511881.7194                   21511879.2544
  -3926269.86346  -3029088.14844  24600563.3284                   24600564.6254
 -25415616.70347 -19770349.36345  22395187.7274                   22395186.6564
 -26168392.78148 -20359677.85946  20730410.8594                   20730406.6994
 11  7 26  2 25 30.0000000  0  8G10G12G17G25G05G09G04G02
 -20125615.91448 -15214255.00046  21073548.9304                   21073546.8244
 -16575880.57848 -12886630.43446  21079760.8834                   21079757.9264
 -30869393.76646 -24017109.01644  23853014.7584                   23853013.3754
   2396012.77347   1897571.12544  23381019.7424                   23381020.7304
 -11616868.82447  -9023491.62546  21490510.3054                   21490508.4224
  -3877353.80546  -2990971.78943  24609872.1644                   24609872.3054
 -25370607.44947 -19735277.20745  22403753.1334                   22403751.3244
 -26193640.09848 -20379351.07446  20725606.5784                   20725602.3404
 11  7 26  2 26  0.0000000  0  8G10G12G17G25G05G09G04G02
 -20138704.21548 -15224453.64846  21071058.4144                   21071056.1214
 -16645815.87948 -12941125.45746  21066452.3594                   21066449.8404
 -30841489.43747 -23995365.36744  23858324.9304                   23858323.4774
   2272240.13347   1801125.00844  23357466.3524                   23357467.0474
 -11728747.90648  -9110670.08246  21469220.9224                   21469218.5984
  -3828419.18046  -2952840.92243  24619184.5554                   24619183.9964
 -25325509.60547 -19700136.02345  22412334.3524                   22412333.1214
 -26218624.55148 -20398819.47346  20720852.0234                   20720847.9144
 11  7 26  2 26 30.0000000  0  8G10G12G17G25G05G09G04G02
 -20151155.45348 -15234155.89846  21068688.8054                   21068686.8324
 -16715202.17648 -12995192.69146  21053248.7504                   21053245.7194
 -30813396.48847 -23973474.74244  23863670.8914                   23863669.9224
   2148789.34047   1704929.69144  23333974.2664                   23333975.2894
 -11840196.01247  -9197512.71546  21448012.6484                   21448010.6684
  -3779466.25846  -2914695.80943  24628499.0474                   24628500.7074
 -25280322.12947 -19664924.98845  22420933.4924                   22420931.7194
 -26243344.61748 -20418081.85946  20716147.9224                   20716143.6094
 11  7 26  2 27  0.0000000  0  8G10G12G17G25G05G09G04G02
 -20162976.34848 -15243366.96146  21066439.3284                   21066437.3324
 -16784043.67248 -13048835.39846  21040148.5864                   21040146.0004
 -30785120.27346 -23951441.32044  23869051.2424                   23869050.3594
   2025657.25447   1608982.73444  23310543.0474                   23310543.5904
 -11951216.27047  -9284021.96546  21426886.3594                   21426884.0514
  -3730503.96146  -2876543.43043  24637815.6644                   24637818.8054
 -25235052.26647 -19629649.77045  22429548.0704                   22429546.7034
 -26267807.26648 -20437143.64846  20711493.0944                   20711488.7774
 11  7 26  2 27 30.0000000  0  8G10G12G17G25G05G09G04G02
 -20174168.23048 -15252087.88746  21064309.4454                   21064307.4144
 -16852339.39148 -13102052.82046  21027152.3204                   21027149.5434
 -30756660.87147 -23929265.16844  23874467.2504                   23874466.3594
   1902846.07047   1513285.82045  23287173.1414                   23287173.8554
 -12061806.82447  -9370196.37146  21405841.5004                   21405839.2854
  -3681535.62146  -2838386.39843  24647134.5554                   24647136.2814
 -25189702.10247 -19594311.96945  22438178.1254                   22438176.1684
 -26292013.79748 -20456005.87546  20706886.3984                   20706881.9844
 11  7 26  2 28  0.0000000  0  8G10G12G17G25G05G09G04G02
 -20184724.27047 -15260313.34046  21062300.7734                   21062298.8324
 -16920079.78548 -13154837.52346  21014261.5554                   21014259.1294
 -30728010.41446 -23906940.10944  23879919.4924                   23879918.5204
   1780366.30547   1417847.16445  23263865.7274                   23263866.7304
 -12171957.45348  -9456027.97346  21384880.4694                   21384878.5594
  -3632556.85946  -2800221.11343  24656456.0314                   24656455.5314
 -25144265.58647 -19558906.89145  22446824.1024                   22446823.1454
 -26315957.63348 -20474663.39546  20702330.3284                   20702326.0314
 11  7 26  2 28 30.0000000  0  8G10G12G17G25G05G09G04G02
 -20194647.26647 -15268045.50846  21060412.6254                   21060410.4144
 -16987266.05948 -13207190.45346  21001476.5704                   21001474.1914
 -30699170.35547 -23884467.34444  23885406.9304                   23885406.1374
   1658218.73447   1322667.35545  23240621.9454                   23240622.2734
 -12281667.37548  -9541516.16846  21364003.1094                   21364001.7344
  -3583572.53145  -2762051.56643  24665776.6174                   24665776.4884
 -25098745.88747 -19523436.98045  22455486.5004                   22455485.0314
 -26339641.85248 -20493118.61746  20697823.2734                   20697818.6994
 11  7 26  2 29  0.0000000  0  8G10G12G17G25G05G09G04G02
 -20203940.33647 -15275286.82846  21058643.8444                   21058641.8524
 -17053898.43448 -13259111.76246  20988796.9614                   20988794.0204
 -30670143.14547 -23861848.71543  23890931.3134                   23890929.1764
   1536403.74247   1227746.66845  23217441.4224                   23217441.9064
 -12390936.59847  -9626660.97346  21343210.0634                   21343207.9884
  -3534588.07046  -2723881.92243  24675098.9774                   24675099.4144
 -25053147.01647 -19487905.36745  22464163.6724                   22464162.1914
 -26363070.25048 -20511374.50046  20693365.0004                   20693360.2734
 11  7 26  2 29 30.0000000  0  8G10G12G17G25G05G09G04G02
 -20212599.83648 -15282034.46946  21056996.0004                   21056994.0004
 -17119970.46148 -13310596.44146  20976223.5634                   20976221.0004
 -30640923.01647 -23839079.75844  23896491.5004                   23896490.1524
   1414928.87147   1133091.01645  23194325.0944                   23194325.5984
 -12499757.78548  -9711456.64546  21322501.9844                   21322500.2304
  -3485601.77046  -2685710.85543  24684420.4694                   24684422.0704
 -25007465.33647 -19452309.22745  22472856.4924                   22472855.1334
 -26386238.45748 -20529427.61746  20688956.3754                   20688951.3834
 11  7 26  2 30  0.0000000  0  8G10G12G17G25G05G09G04G02
 -20220631.10547 -15288292.56646  21055467.7114                   21055465.8164
 -17185484.99248 -13361646.70746  20963756.6334                   20963753.9344
 -30611514.09847 -23816163.71144  23902087.9064                   23902086.3094
   1293792.60947   1038699.19944  23171273.7034                   23171273.8444
 -12608132.57048  -9795904.48046  21301879.4224                   21301877.0704
  -3436620.81647  -2647543.87943  24693741.7974                   24693740.8524
 -24961706.44947 -19416652.93745  22481564.1484                   22481562.5784
 -26409152.10248 -20547282.37146  20684595.9144                   20684591.0664
 11  7 26  2 30 30.0000000  0  8G10G12G17G25G05G09G04G02
 -20228035.41448 -15294062.12146  21054058.7974                   21054056.9774
 -17250441.28948 -13412261.98846  20951395.9224                   20951393.0984
 -30581916.97747 -23793100.99244  23907719.8444                   23907718.4774
   1172997.14547    944572.92244  23148286.7114                   23148287.1214
 -12716059.24648  -9880003.13346  21281341.2504                   21281339.6604
  -3387648.71547  -2609383.83243  24703060.0944                   24703060.7304
 -24915872.85947 -19380938.43445  22490285.7194                   22490284.5824
 -26431812.62548 -20564939.88346  20680283.4774                   20680278.7894
 11  7 26  2 31  0.0000000  0  8G10G12G17G25G05G09G04G02
 -20234807.03548 -15299338.67246  21052770.2424                   21052768.2154
 -17314831.09448 -13462435.84046  20939142.9304                   20939140.6374
 -30552124.47347 -23769886.06644  23913388.4534                   23913387.3714
   1052551.92647    850719.55945  23125367.0474                   23125367.7704
 -12823528.46948  -9963745.34046  21260890.4144                   21260888.6334
  -3338681.82447  -2571227.85543  24712378.6484                   24712379.3014
 -24869958.81247 -19345161.23045  22499022.8524                   22499021.7544
 -26454214.29748 -20582395.69946  20676020.6024                   20676016.0044
 11  7 26  2 31 30.0000000  0  8G10G12G17G25G05G09G04G02
 -20240957.87548 -15304131.50846  21051599.9064                   21051597.5824
 -17378663.64848 -13512175.46946  20926995.9304                   20926993.2194
 -30522147.00446 -23746527.00444  23919093.9614                   23919092.4964
    932448.99247    757132.93045  23102512.0784                   23102512.7544
 -12930548.28948 -10047137.35946  21240525.3134                   21240523.1724
  -3289733.91047  -2533086.67643  24721692.9924                   24721694.4344
 -24823976.67247 -19309330.97345  22507772.8204                   22507772.0824
 -26476368.31648 -20599658.54746  20671804.5314                   20671800.6374
 11  7 26  2 32  0.0000000  0  8G10G12G17G25G05G09G04G02
 -20246484.62547 -15308438.03946  21050548.1414                   21050546.0274
 -17441933.21148 -13561476.39546  20914955.9774                   20914953.1454
 -30491980.05546 -23723020.28144  23924834.2734                   23924832.8714
    812695.37948    663818.49645  23079723.8674                   23079724.2734
 -13037112.43048 -10130174.30946  21220246.3984                   21220244.5354
  -3240803.60546  -2494959.18043  24731003.2114                   24731004.6294
 -24777923.35547 -19273445.23845  22516536.6024                   22516535.4804
 -26498272.76248 -20616726.91846  20667636.2734                   20667632.0554
 11  7 26  2 32 30.0000000  0  8G10G12G17G25G05G09G04G02
 -20251392.80548 -15312262.57046  21049613.7664                   21049611.8284
 -17504642.86348 -13610341.03146  20903022.7734                   20903019.8984
 -30461627.98046 -23699369.29343  23930609.1804                   23930608.4924
    693289.26247    570774.83645  23057001.4454                   23057002.3914
 -13143222.72748 -10212857.60946  21200054.6414                   21200052.4104
  -3191898.18746  -2456851.13743  24740310.5394                   24740310.0044
 -24731804.79747 -19237508.69145  22525312.7114                   22525311.2584
 -26519932.66048 -20633604.73046  20663514.7274                   20663510.2934
 11  7 26  2 33  0.0000000  0  8G10G12G17G25G05G09G04G02
 -20255681.51248 -15315604.40246  21048798.1644                   21048796.0004
 -17566788.71548 -13658766.34446  20891196.7814                   20891193.9414
 -30431087.82846 -23675571.75044  23936421.9064                   23936420.0594
    574235.81647    478005.97345  23034346.5634                   23034347.2664
 -13248874.38748 -10295183.52746  21179949.8594                   21179947.8554
  -3143018.26646  -2418762.96143  24749611.7034                   24749613.3094
 -24685619.98047 -19201520.49245  22534101.0864                   22534100.0434
 -26541346.39548 -20650290.74646  20659440.0394                   20659435.2974
 11  7 26  2 33 30.0000000  0  8G10G12G17G25G05G09G04G02
 -20259355.65648 -15318467.35246  21048098.8134                   21048096.3834
 -17628373.58248 -13706754.52346  20879477.5004                   20879474.8364
 -30400363.34846 -23651630.59044  23942268.1644                   23942266.8594
    455533.79347    385510.96145  23011758.1644                   23011759.1174
 -13354069.07048 -10377153.37546  21159931.7974                   21159929.1254
  -3094170.86745  -2380700.17243  24758906.3444                   24758910.4104
 -24639374.11347 -19165484.73845  22542901.6334                   22542900.1484
 -26562519.27748 -20666789.06646  20655410.8054                   20655406.5084
 11  7 26  2 34  0.0000000  0  8G10G12G17G25G05G09G04G02
 -20262411.85948 -15320848.79346  21047517.1484                   21047515.5664
 -17689391.99648 -13754301.30546  20867866.2664                   20867863.6454
 -30369449.93446 -23627542.21544  23948151.1024                   23948149.8204
    337190.09447    293295.15245  22989238.1564                   22989238.8524
 -13458799.91048 -10458761.77746  21140002.2734                   21139999.6094
  -3045354.55545  -2342661.63343  24768196.7034                   24768198.9144
 -24593064.43047 -19129399.25444  22551714.0234                   22551712.6804
 -26583447.73448 -20683096.92646  20651428.1334                   20651423.6334
 11  7 26  2 34 30.0000000  0  8G10G12G17G25G05G09G04G02
 -20264858.98848 -15322755.63346  21047051.8444                   21047048.8444
 -17749850.07848 -13801411.46946  20856360.9774                   20856358.5514
 -30338355.22746 -23603312.54744  23954067.8524                   23954066.5314
    219199.73447    201354.65245  22966784.8444                   22966784.9734
 -13563072.56648 -10540013.15646  21120159.5164                   21120157.0744
  -2996580.25846  -2304655.77343  24777478.7344                   24777478.5554
 -24546699.88747 -19093271.02044  22560536.9924                   22560535.5354
 -26604140.80148 -20699221.37546  20647490.4844                   20647486.0314
 11  7 26  2 35  0.0000000  0  8G10G12G17G25G05G09G04G02
 -20266695.75048 -15324186.86346  21046702.2584                   21046699.9574
 -17809744.16048 -13848082.16046  20844963.9534                   20844961.2034
 -30307076.33646 -23578939.35243  23960019.8594                   23960018.7854
    101567.99647    109693.57845  22944400.3754                   22944400.7074
 -13666881.79348 -10620903.41846  21100405.4694                   21100403.9654
  -2947847.94146  -2266682.57443  24786751.6334                   24786751.5434
 -24500279.45747 -19057099.24644  22569369.9694                   22569369.5634
 -26624596.92248 -20715161.19146  20643597.7894                   20643593.1054
 11  7 26  2 35 30.0000000  0  8G10G12G17G25G05G09G04G02
 -20267925.26247 -15325144.91046  21046468.3594                   21046465.8134
 -17869074.83248 -13894313.82446  20833673.6174                   20833670.8714
 -30275615.07446 -23554424.07844  23966006.8834                   23966005.9884
    -15704.17647     18312.70345  22922084.2974                   22922084.8524
 -13770227.30548 -10701432.35246  21080739.2194                   21080737.3444
  -2899162.55546  -2228745.96143  24796016.3134                   24796017.8014
 -24453806.18447 -19020886.30545  22578214.2274                   22578212.4654
 -26644818.96548 -20730918.60246  20639749.8054                   20639745.0004
 11  7 26  2 36  0.0000000  0  8G10G12G17G25G05G09G04G02
 -20268542.70348 -15325626.02046  21046350.6334                   21046348.3204
 -17927834.77048 -13940100.75846  20822492.0784                   20822489.1134
 -30243964.96546 -23529761.61344  23972029.6484                   23972028.2304
   -132608.21947    -72781.33245  22899838.0234                   22899838.8984
 -13873100.80148 -10781593.46946  21061163.4384                   21061161.1024
  -2850520.97346  -2190843.52343  24805272.9304                   24805275.6684
 -24407275.34847 -18984628.51244  22587068.2034                   22587067.5314
 -26664801.77348 -20746489.59846  20635947.0314                   20635942.3364
 11  7 26  2 36 30.0000000  0  8G10G12G17G25G05G09G04G02
 -20268554.69947 -15325635.35246  21046347.8524                   21046346.1954
 -17986027.88748 -13985446.01246  20811418.4384                   20811415.5124
 -30212130.85546 -23504955.76643  23978087.1334                   23978085.4224
   -249146.46147   -163590.33645  22877661.8674                   22877662.4144
 -13975504.97748 -10861388.88746  21041676.3674                   21041674.0354
  -2801931.02347  -2152981.26643  24814519.7424                   24814521.5634
 -24360693.24247 -18948330.75845  22595932.6644                   22595931.8054
 -26684551.53548 -20761879.00446  20632188.6954                   20632184.5984
 11  7 26  2 37  0.0000000  0  7G10G12G17G25G05G04G02
 -20267961.96548 -15325173.46546  21046460.8134                   21046458.0314
 -18043652.42248 -14030348.22346  20800452.4304                   20800449.6914
 -30180112.09046 -23480006.03944  23984180.5944                   23984179.4654
   -365315.75847   -254111.80545  22855555.1644                   22855556.0984
 -14077437.11348 -10940816.48846  21022279.1484                   21022276.7974
 -24314060.76247 -18911993.76644  22604806.6024                   22604805.6454
 -26704068.80148 -20777087.23846  20628474.6564                   20628470.1454
 11  7 26  2 37 30.0000000  0  7G10G12G17G25G05G04G02
 -20266772.30548 -15324246.43746  21046687.3284                   21046685.0634
 -18100713.77048 -14074811.57046  20789594.2734                   20789591.2734
 -30147914.98446 -23454917.35244  23990307.2664                   23990305.8554
   -481120.00047   -344348.84045  22833518.3594                   22833519.6054
 -14178901.35248 -11019879.49246  21002971.3984                   21002968.6884
 -24267385.74647 -18875623.62144  22613689.3204                   22613687.4844
 -26723361.23048 -20792120.27346  20624803.6334                   20624798.7504
 11  7 26  2 38  0.0000000  0  7G10G12G17G25G05G04G02
 -20264980.75847 -15322850.41046  21047028.5004                   21047026.1214
 -18157204.29348 -14118830.12946  20778844.1094                   20778841.5744
 -30115533.12546 -23429684.68744  23996468.7114                   23996468.2774
   -596550.12147   -434294.35245  22811552.8984                   22811553.4804
 -14279889.10248 -11098571.20346  20983753.8834                   20983751.6294
 -24220663.06647 -18839216.33244  22622579.2424                   22622578.2934
 -26742423.56248 -20806974.02046  20621175.7424                   20621171.4304
 11  7 26  2 38 30.0000000  0  7G10G12G17G25G05G04G02
 -20262581.71148 -15320981.00446  21047484.5784                   21047482.3674
 -18213115.43448 -14162397.22346  20768204.7274                   20768202.0354
 -30082959.00446 -23404302.24243  24002669.0004                   24002666.7734
   -711596.31247   -523940.71145  22789660.6094                   22789660.5904
 -14380391.28948 -11176884.55146  20964628.9844                   20964626.6024
 -24173886.69147 -18802767.21144  22631481.2424                   22631479.5474
 -26761249.44948 -20821643.51646  20617593.2814                   20617588.7114
 11  7 26  2 39  0.0000000  0  7G10G12G17G25G05G04G02
 -20259580.18748 -15318642.14546  21048055.7194                   21048053.7704
 -18268450.44548 -14205515.38346  20757675.0704                   20757672.4064
 -30050196.21546 -23378772.75044  24008902.2424                   24008901.1604
   -826259.52047   -613288.67645  22767840.7664                   22767841.4304
 -14480409.03148 -11254820.40646  20945596.2034                   20945593.5744
 -24127061.66447 -18766280.18744  22640391.3984                   22640390.1054
 -26779843.80548 -20836132.60246  20614055.2424                   20614050.5594
 11  7 26  2 39 30.0000000  0  7G10G12G17G25G05G04G02
 -20255979.14547 -15315836.10946  21048740.6024                   21048738.7934
 -18323209.84448 -14248185.01246  20747254.2584                   20747251.9414
 -30017246.06646 -23353097.27343  24015172.3054                   24015171.2194
   -940538.92647   -702337.55145  22746094.0634                   22746094.5594
 -14579942.23047 -11332378.69546  20926655.3914                   20926653.1724
 -24080191.00447 -18729757.60944  22649310.9224                   22649309.1214
 -26798209.32848 -20850443.37546  20610560.3524                   20610555.7584
 11  7 26  2 40  0.0000000  0  7G10G12G17G25G05G04G02
 -20251783.07447 -15312566.42646  21049539.5164                   21049537.5394
 -18377395.30548 -14290407.42646  20736943.1024                   20736940.5164
 -29984111.89546 -23327278.40244  24021477.8284                   24021476.2734
  -1054434.93047   -791087.66445  22724419.8594                   22724419.8094
 -14678991.50848 -11409559.91046  20907807.0004                   20907804.6414
 -24033279.07047 -18693202.87944  22658237.9774                   22658236.7624
 -26816349.89848 -20864578.85546  20607108.3204                   20607103.8094
 11  7 26  2 40 30.0000000  0  7G10G12G17G25G05G04G02
 -20246990.76648 -15308832.13346  21050451.3444                   21050449.0204
 -18431002.93748 -14332179.57846  20726742.1484                   20726739.5984
 -29950790.11746 -23301313.35244  24027818.8914                   24027817.4534
  -1167941.84847   -879534.56245  22702820.3834                   22702821.2894
 -14777551.48848 -11486359.84846  20889051.5314                   20889049.2974
 -23986323.77347 -18656614.33644  22667173.1094                   22667171.8794
 -26834263.53548 -20878537.50046  20603699.5314                   20603695.4064
 11  7 26  2 41  0.0000000  0  7G10G12G17G25G05G04G02
 -20241602.49247 -15304633.44546  21051476.6024                   21051474.4534
 -18484030.72748 -14373499.91046  20716651.0234                   20716648.1484
 -29917279.66846 -23275201.27744  24034196.3054                   24034194.3244
  -1281055.95347   -967675.35245  22681295.4064                   22681296.5984
 -14875619.27748 -11562776.27046  20870389.9774                   20870387.5084
 -23939325.57847 -18619992.37944  22676116.9774                   22676115.1334
 -26851950.50048 -20892319.52346  20600333.8674                   20600329.0314
 11  7 26  2 41 30.0000000  0  7G10G12G17G25G05G04G02
 -20235626.57447 -15299976.85946  21052613.8284                   21052612.2544
 -18536484.06248 -14414372.61746  20706669.7734                   20706667.0864
 -29883587.03546 -23248947.25444  24040606.9844                   24040606.0044
  -1393781.37947  -1055513.25045  22659844.5164                   22659845.6374
 -14973199.34048 -11638812.64146  20851820.9774                   20851818.5274
 -23892292.18747 -18583342.98844  22685066.6804                   22685065.3444
 -26869418.45748 -20905930.88346  20597009.5634                   20597005.0594
 11  7 26  2 42  0.0000000  0  7G10G12G17G25G05G04G02
 -20229059.90248 -15294859.94546  21053863.6334                   21053861.4844
 -18588357.59448 -14454793.53146  20696798.4534                   20696795.9694
 -29849707.50046 -23222547.59843  24047054.1804                   24047052.8444
  -1506110.70748  -1143042.51645  22638468.7034                   22638469.1564
 -15070284.92248 -11714463.70346  20833346.4224                   20833343.7974
 -23845220.24647 -18546663.55544  22694024.2424                   22694023.2234
 -26886663.48448 -20919368.53946  20593727.8284                   20593723.4344
 11  7 26  2 42 30.0000000  0  7G10G12G17G25G05G04G02
 -20221907.10948 -15289286.31646  21055224.7584                   21055222.4414
 -18639653.68048 -14494764.49646  20687036.9924                   20687034.2584
 -29815643.66846 -23196004.32043  24053536.0864                   24053534.5204
  -1618044.57848  -1230263.61745  22617168.8054                   22617169.4144
 -15166877.06648 -11789730.27046  20814965.2894                   20814963.0314
 -23798113.90647 -18509957.31644  22702988.0944                   22702986.6844
 -26903689.74248 -20932635.73446  20590488.0084                   20590483.1994
 11  7 26  2 43  0.0000000  0  7G10G12G17G25G05G04G02
 -20214168.45347 -15283256.18746  21056697.3364                   21056694.7544
 -18690370.09848 -14534283.77046  20677385.8204                   20677383.2734
 -29781394.78546 -23169316.85543  24060053.9614                   24060051.5634
  -1729579.32447  -1317173.69545  22595944.3054                   22595945.1094
 -15262972.48848 -11864609.77346  20796678.9384                   20796676.2544
 -23750973.34847 -18473224.41444  22711958.8204                   22711957.3674
 -26920497.47748 -20945732.65246  20587289.4064                   20587284.8014
 11  7 26  2 43 30.0000000  0  7G10G12G17G25G05G04G02
 -20205846.32448 -15276771.38345  21058280.8134                   21058278.6174
 -18740506.32848 -14573350.95346  20667845.5084                   20667842.2854
 -29746960.83646 -23142485.21144  24066606.1174                   24066604.5744
  -1840712.70747  -1403771.04345  22574796.0164                   22574795.7504
 -15358569.62148 -11939101.00446  20778487.1804                   20778485.0514
 -23703800.12947 -18436466.05544  22720935.7034                   22720934.3834
 -26937087.90648 -20958660.23046  20584132.1954                   20584127.9964
 11  7 26  2 44  0.0000000  0  7G10G12G17G25G05G04G02
 -20196942.67648 -15269833.46146  21059975.3984                   21059972.9924
 -18790061.96548 -14611965.73446  20658415.2344                   20658412.2114
 -29712342.23046 -23115509.65644  24073193.9144                   24073192.1804
  -1951442.53147  -1490053.91845  22553724.8364                   22553724.8874
 -15453666.71548 -12013202.59046  20760390.8524                   20760388.5164
 -23656595.60947 -18399683.31644  22729918.5784                   22729916.2034
 -26953462.08648 -20971419.30946  20581016.5004                   20581012.2664
 11  7 26  2 44 30.0000000  0  7G10G12G17G25G05G04G02
 -20187460.59847 -15262444.79746  21061779.7584                   21061777.2664
 -18839037.07448 -14650128.14846  20649095.2894                   20649092.7154
 -29677540.00046 -23088391.03943  24079817.2274                   24079815.2424
  -2061767.47747  -1576021.30545  22532730.6484                   22532730.5234
 -15548263.13748 -12086914.04746  20742389.9064                   20742387.6334
 -23609362.21547 -18362878.05144  22738906.2034                   22738905.2974
 -26969622.80948 -20984012.06246  20577941.2424                   20577936.9024
 11  7 26  2 45  0.0000000  0  7G10G12G17G25G05G04G02
 -20177401.26248 -15254606.33646  21063693.8754                   21063691.6174
 -18887430.92648 -14687837.63746  20639886.5314                   20639883.7664
 -29642553.93446 -23061129.15643  24086473.5634                   24086472.2544
  -2171684.69947  -1661670.98845  22511813.7974                   22511814.4734
 -15642356.53948 -12160233.53546  20724484.5474                   20724482.2544
 -23562100.82447 -18326050.96544  22747900.0784                   22747898.3914
 -26985570.51648 -20996438.82446  20574906.2894                   20574902.1174
 11  7 26  2 45 30.0000000  0  7G10G12G17G25G05G04G02
 -20166766.37948 -15246319.39546  21065717.5554                   21065715.5314
 -18935242.78948 -14725093.62946  20630788.2584                   20630785.1684
 -29607383.86346 -23033723.93743  24093166.9454                   24093165.1024
  -2281191.86747  -1747001.16045  22490975.2894                   22490975.6214
 -15735945.20748 -12233159.73046  20706675.0394                   20706672.5944
 -23514812.80146 -18289203.12544  22756898.2344                   22756896.9454
 -27001306.62548 -21008700.70346  20571911.9454                   20571907.3444
 11  7 26  2 46  0.0000000  0  7G10G12G17G25G05G04G02
 -18580140.28947 -14009987.36346  21367642.5164                   21367640.0004
 -17407052.80948 -13534296.23446  20921592.8984                   20921589.8404
 -27996613.36746 -21778578.09443  24399685.8204                   24399684.8094
   -814865.19947   -604408.87145  22770008.1954                   22770008.5314
 -14253606.39148 -11078090.47346  20988754.9304                   20988752.0664
 -21892083.14546 -17024738.44544  23065693.7664                   23065692.2734
 -25441413.67248 -19793199.68046  20868749.3594                   20868745.2624
 11  7 26  2 46 30.0000000  0  8G10G12G17G25G05G29G04G02
 -18568360.40247 -14000808.21546  21369884.1254                   21369882.2584
 -17453699.10548 -13570643.98446  20912716.3524                   20912713.2894
 -27961076.24247 -21750886.81243  24406448.1414                   24406447.5354
   -923545.52347   -689094.76245  22749327.0554                   22749327.5274
 -14346180.49648 -11150226.09846  20971138.1724                   20971136.0664
  14009239.49256  10924109.07453  24779223.2584                   24779224.1994
 -21844745.90647 -16987852.25044  23074701.9224                   23074700.4304
 -25456729.88748 -19805134.37946  20865835.1644                   20865830.6094
 11  7 26  2 47  0.0000000  0  8G10G12G17G25G05G29G04G02
 -18556014.35547 -13991187.91446  21372233.4384                   21372231.0904
 -17499765.44948 -13606539.82046  20903950.6414                   20903947.9344
 -27925359.03946 -21723055.21143  24413245.0944                   24413244.2704
  -1031812.04347   -773458.24245  22728724.3444                   22728724.9654
 -14438247.64548 -11221966.68746  20953618.5474                   20953616.0634
  13893346.04746  10833802.56643  24757170.0944                   24757170.0124
 -21797389.19947 -16950950.87944  23083713.3284                   23083711.9654
 -25471841.05148 -19816909.28946  20862959.3364                   20862954.8674
 11  7 26  2 47 30.0000000  0  8G10G12G17G25G05G29G04G02
 -18543112.85547 -13981134.79346  21374688.4064                   21374686.6174
 -17545259.79348 -13641989.94546  20895293.0944                   20895290.3094
 -27889470.54347 -21695090.09843  24420074.4774                   24420073.0354
  -1139671.33647   -857504.37945  22708199.2344                   22708199.3484
 -14529815.33248 -11293318.08246  20936193.8284                   20936191.3594
  13777377.93846  10743437.86343  24735101.0004                   24735102.4494
 -21750023.30947 -16914042.35244  23092727.0004                   23092725.4414
 -25486757.48848 -19828532.46546  20860121.0234                   20860116.5274
 11  7 26  2 48  0.0000000  0  8G10G12G17G25G05G29G04G02
 -18529651.29348 -13970645.24246  21377250.3444                   21377247.9224
 -17590174.82048 -13676988.64846  20886746.2814                   20886743.3674
 -27853404.13347 -21666986.39843  24426938.3754                   24426935.6914
  -1247114.27747   -941226.11345  22687753.4774                   22687753.5204
 -14620874.99648 -11364273.62546  20918865.4304                   20918863.3674
  13661342.49246  10653020.72343  24713019.8754                   24713021.0514
 -21702642.56247 -16877122.29744  23101743.0234                   23101742.0664
 -25501473.49248 -19839999.47346  20857320.5164                   20857316.1054
 11  7 26  2 48 30.0000000  0  8G10G12G17G25G05G29G04G02
 -18515627.98848 -13959717.98046  21379918.6024                   21379916.4344
 -17634506.86748 -13711533.09046  20878310.1484                   20878307.4414
 -27817156.46546 -21638741.45343  24433835.6954                   24433834.1454
  -1354135.10247  -1024618.92645  22667387.9384                   22667388.3284
 -14711421.41048 -11434829.22746  20901635.4614                   20901633.2034
  13545243.53146  10562554.15243  24690927.8054                   24690928.5394
 -21655244.58247 -16840188.78144  23110762.3674                   23110761.1954
 -25515986.91048 -19851308.60546  20854558.7424                   20854554.2774
 11  7 26  2 49  0.0000000  0  8G10G12G17G25G05G29G04G02
 -18501046.01247 -13948355.38746  21382693.7424                   21382691.0514
 -17678255.59848 -13745622.97746  20869984.9384                   20869981.7424
 -27780728.75846 -21610356.21943  24440767.7504                   24440766.3674
  -1460732.24247  -1107681.58245  22647103.0864                   22647103.4574
 -14801454.00848 -11504984.45346  20884502.5944                   20884500.2274
  13429080.73446  10472037.78543  24668823.7814                   24668823.0904
 -21607831.59446 -16803243.58644  23119784.7814                   23119783.3244
 -25530299.30148 -19862461.10546  20851835.6024                   20851830.4534
 11  7 26  2 49 30.0000000  0  8G10G12G17G25G05G29G04G02
 -18485909.90247 -13936561.00846  21385573.9454                   21385571.6844
 -17721423.85548 -13779260.56246  20861770.2894                   20861767.5044
 -27744123.10946 -21581832.31243  24447733.3754                   24447731.8524
  -1566906.04347  -1190414.38345  22626899.1024                   22626899.0784
 -14890973.47748 -11574739.84446  20867467.5164                   20867464.9734
  13312851.85946  10381469.92643  24646705.2274                   24646705.1024
 -21560407.37546 -16766289.63744  23128809.4064                   23128807.8134
 -25544414.42648 -19873459.87946  20849149.1644                   20849144.2854
 11  7 26  2 50  0.0000000  0  8G10G12G17G25G05G29G04G02
 -18470215.25047 -13924331.39846  21388560.5784                   21388558.1914
 -17764004.57847 -13812440.32446  20853667.4064                   20853664.6604
 -27707333.57446 -21553165.14543  24454734.1414                   24454732.5314
  -1672647.60947  -1272810.37145  22606777.0554                   22606776.8634
 -14979971.87948 -11644089.20746  20850531.6724                   20850528.8874
  13196564.01646  10290856.06343  24624576.5944                   24624576.1994
 -21512966.53547 -16729322.73844  23137837.4534                   23137835.8754
 -25558327.14548 -19884300.94546  20846501.4844                   20846497.0984
 11  7 26  2 50 30.0000000  0  8G10G12G17G25G05G29G04G02
 -18453964.56248 -13911668.50846  21391652.9614                   21391650.5944
 -17805997.75448 -13845162.25446  20845676.3364                   20845673.7384
 -27670360.78547 -21524355.16843  24461770.1954                   24461767.7704
  -1777955.28947  -1354868.26645  22586737.5634                   22586737.6094
 -15068447.70748 -11713031.37546  20833694.8914                   20833692.6764
  13080217.17646  10200196.28143  24602435.3674                   24602435.7384
 -21465510.98447 -16692344.41044  23146868.1174                   23146866.5234
 -25572039.02048 -19894985.51646  20843892.3444                   20843887.6174
 11  7 26  2 51  0.0000000  0  8G10G12G17G25G05G29G04G02
 -18437159.23048 -13898573.42245  21394850.7584                   21394848.5824
 -17847402.33247 -13877425.53546  20837796.9844                   20837794.1644
 -27633204.31646 -21495402.03943  24468840.7504                   24468838.9654
  -1882826.00847  -1436585.64145  22566781.5634                   22566781.8984
 -15156398.75048 -11781564.61346  20816958.8984                   20816956.5084
  12963812.49646  10109491.40243  24580284.4924                   24580283.4534
 -21418041.05947 -16655354.87144  23155900.5784                   23155899.5944
 -25585550.58648 -19905513.99246  20841321.1334                   20841316.7664
 11  7 26  2 51 30.0000000  0  8G10G12G17G25G05G29G04G02
 -18419808.18747 -13885053.11746  21398152.8524                   21398150.5514
 -17888225.04348 -13909235.41446  20830029.0394                   20830026.2344
 -27595870.85246 -21466311.00043  24475944.1174                   24475943.3524
  -1987264.10247  -1517965.92245  22546907.3284                   22546907.9734
 -15243830.31648 -11849693.07046  20800320.9774                   20800318.4144
  12847343.82046  10018736.67243  24558121.4064                   24558119.6024
 -21370564.42247 -16618360.09444  23164935.4694                   23164934.1054
 -25598869.44148 -19915892.30546  20838786.6954                   20838782.1684
 11  7 26  2 52  0.0000000  0  8G10G12G17G25G05G29G04G02
 -18401902.03947 -13871100.26646  21401559.8364                   21401558.0164
 -17928453.77748 -13940582.45746  20822373.7974                   20822370.9964
 -27558349.00446 -21437073.13343  24483085.3364                   24483082.9844
  -2091255.79747  -1598998.35945  22527117.8524                   22527118.3874
 -15330729.27048 -11917406.50046  20783784.5554                   20783781.9534
  12730823.28946   9927941.54343  24535947.8134                   24535947.1134
 -21323070.61347 -16581351.93444  23173973.1484                   23173971.6334
 -25611985.32848 -19926112.45346  20836290.7664                   20836286.3914
 11  7 26  2 52 30.0000000  0  8G10G12G17G25G05G29G04G02
 -18383449.19147 -13856721.39846  21405071.3594                   21405069.2544
 -17968094.44148 -13971471.27046  20814830.1644                   20814827.4184
 -27520645.28146 -21407693.56643  24490259.8594                   24490258.0474
  -2194805.28948  -1679686.21545  22507413.3524                   22507414.0744
 -15417100.25848 -11984708.53946  20767348.8834                   20767346.2274
  12614244.82446   9837101.27343  24513764.5164                   24513763.6524
 -21275567.40647 -16544336.43444  23183013.0394                   23183011.2934
 -25624905.55948 -19936180.14546  20833832.2034                   20833827.3874
 11  7 26  2 53  0.0000000  0  8G10G12G17G25G05G29G04G02
 -18364454.16047 -13841920.05146  21408686.0944                   21408683.8794
 -18007149.23048 -14001903.55946  20807398.4384                   20807395.6914
 -27482762.21146 -21378174.26643  24497468.5474                   24497466.6724
  -2297912.66847  -1760029.58245  22487792.8444                   22487792.8594
 -15502944.26248 -12051599.93046  20751013.2504                   20751010.7854
  12497606.75446   9746214.58243  24491568.1174                   24491568.4884
 -21228058.06647 -16507316.14844  23192053.0704                   23192051.6844
 -25637633.71548 -19946098.17246  20831410.2194                   20831405.4344
 11  7 26  2 53 30.0000000  0  8G10G12G17G25G05G29G04G02
 -18344917.01247 -13826696.27745  21412403.8284                   21412401.3364
 -18045616.01248 -14031877.66046  20800078.1884                   20800075.3834
 -27444697.70346 -21348513.58643  24504712.6174                   24504710.3014
  -2400573.52748  -1840025.02045  22468257.0784                   22468257.2624
 -15588257.85248 -12118078.01246  20734778.4064                   20734776.0204
  12380911.77046   9655283.53943  24469361.7034                   24469362.1134
 -21180541.82047 -16470290.50044  23201095.5944                   23201093.9654
 -25650168.71148 -19955865.67646  20829024.7504                   20829020.2544
 11  7 26  2 54  0.0000000  0  8G10G12G17G25G05G29G04G02
 -18324838.28547 -13811050.49245  21416224.4224                   21416222.3594
 -18083492.99248 -14061392.17246  20792870.6414                   20792867.7344
 -27406450.34846 -21318710.40243  24511990.4064                   24511988.8094
  -2502784.11748  -1919669.60245  22448806.8204                   22448806.9064
 -15673037.66448 -12184140.17646  20718645.3364                   20718643.1094
  12264162.15246   9564309.91443  24447145.3054                   24447145.8244
 -21133018.10947 -16433259.04344  23210138.7664                   23210137.4414
 -25662510.25448 -19965482.44146  20826676.0634                   20826671.4574
 11  7 26  2 54 30.0000000  0  8G10G12G17G25G05G29G04G02
 -18304218.48447 -13794983.09045  21420148.4064                   21420145.8554
 -18120777.79348 -14090445.24646  20785775.2504                   20785772.8554
 -27368018.95346 -21288763.80944  24519303.3524                   24519301.8834
  -2604540.34848  -1998960.16045  22429443.5164                   22429443.4494
 -15757280.68048 -12249784.04746  20702614.4614                   20702611.9734
  12147360.14546   9473295.43844  24424918.5474                   24424918.8164
 -21085486.04747 -16396221.09044  23219183.9224                   23219182.5904
 -25674657.18448 -19974947.56646  20824364.7034                   20824360.0434
 11  7 26  2 55  0.0000000  0  8G10G12G17G25G05G29G04G02
 -18283065.56247 -13778500.26646  21424173.4384                   21424171.3984
 -18157476.19548 -14119041.38746  20778792.1414                   20778789.0904
 -27329409.36747 -21258678.38344  24526650.7504                   24526648.8284
  -2705845.85947  -2077899.51645  22410165.8054                   22410165.6914
 -15840991.02048 -12315012.84446  20686685.0314                   20686682.4184
  12030500.64546   9382236.14144  24402680.9144                   24402680.5944
 -21037952.59047 -16359182.03544  23228228.8134                   23228227.5124
 -25686616.75848 -19984266.68746  20822088.8834                   20822084.1484
 11  7 26  2 55 30.0000000  0  7G10G12G25G05G29G04G02
 -18261379.75847 -13761602.21145  21428300.3594                   21428298.0314
 -18193586.00048 -14147178.87946  20771920.1804                   20771917.3554
  -2806696.34047  -2156484.27745  22390974.2274                   22390974.7034
 -15924164.99648 -12379823.69946  20670857.2274                   20670855.0274
  11913586.06647   9291133.92244  24380433.2194                   24380432.3954
 -20990416.78147 -16322141.16044  23237275.2194                   23237273.6684
 -25698387.77048 -19993438.87546  20819848.8914                   20819844.0824
 11  7 26  2 56  0.0000000  0  7G10G12G25G05G29G04G02
 -18239169.17247 -13744295.23845  21432526.6174                   21432524.6414
 -18229113.16048 -14174862.37546  20765159.7894                   20765156.9104
  -2907095.57447  -2234717.43445  22371868.9774                   22371869.2154
 -16006807.52748 -12444220.43046  20655131.1954                   20655128.4964
  11796611.32047   9199984.80144  24358173.3834                   24358172.4844
 -20942885.70347 -16285103.96943  23246319.6954                   23246318.0234
 -25709977.35948 -20002469.70346  20817643.6334                   20817638.6644
 11  7 26  2 56 30.0000000  0  7G10G12G25G05G29G04G02
 -18216428.72747 -13726575.39545  21436854.1414                   21436851.7194
 -18264050.15648 -14202085.99646  20758511.5944                   20758508.4654
  -3007034.03547  -2312591.52046  22352851.3674                   22352852.2734
 -16088909.94548 -12508196.30146  20639507.3204                   20639504.8634
  11679584.36346   9108795.00443  24335903.7974                   24335902.8054
 -20895352.87546 -16248065.41444  23255364.9384                   23255363.9494
 -25721379.12948 -20011354.17246  20815473.6254                   20815469.0124
 11  7 26  2 57  0.0000000  0  7G10G12G25G05G29G04G02
 -18193154.40247 -13708439.53145  21441283.1484                   21441280.6844
 -18298390.11748 -14228844.39546  20751976.9304                   20751973.6484
  -3106503.14547  -2390099.87545  22333922.9144                   22333923.5394
 -16170464.18448 -12571745.02046  20623988.1334                   20623985.5124
  11562512.12146   9017569.94143  24313625.6094                   24313624.1294
 -20847812.95346 -16211021.32844  23264411.8914                   23264410.0204
 -25732587.93748 -20020088.28946  20813340.8134                   20813335.9774
 11  7 26  2 57 30.0000000  0  7G10G12G25G05G29G04G02
 -18169352.16447 -13689892.30545  21445812.2504                   21445810.3914
 -18332137.23848 -14255140.83246  20745555.0864                   20745551.9844
  -3205504.29747  -2467243.58245  22315083.7344                   22315084.1024
 -16251472.68448 -12634868.48046  20608572.5004                   20608569.9414
  11445391.66446   8926307.29343  24291337.9144                   24291336.5234
 -20800270.62147 -16173975.35244  23273458.5634                   23273457.0784
 -25743608.22748 -20028675.50446  20811243.5004                   20811238.6684
 11  7 26  2 58  0.0000000  0  7G10G12G25G05G29G04G02
 -18145022.82047 -13670934.35245  21450441.9774                   21450440.2894
 -18365289.10248 -14280973.44546  20739246.4924                   20739243.3404
  -3304033.82847  -2544019.79745  22296334.2194                   22296333.7814
 -16331932.58648 -12697564.46946  20593261.6334                   20593259.5004
  11328225.35946   8835008.93043  24269042.2114                   24269041.6024
 -20752725.11347 -16136926.88744  23282505.8914                   23282504.6524
 -25754439.60948 -20037115.51646  20809182.3134                   20809177.9304
 11  7 26  2 58 30.0000000  0  7G10G12G25G05G29G04G02
 -18120172.89547 -13651570.75445  21455170.9614                   21455168.9224
 -18397850.93748 -14306346.28946  20733050.1334                   20733046.9224
  -3402093.95747  -2620430.24245  22277674.1414                   22277674.2074
 -16411846.82448 -12759835.26246  20578054.0554                   20578051.6374
  11211009.21146   8743671.71543  24246736.7664                   24246736.1524
 -20705181.82847 -16099880.19544  23291553.4924                   23291552.0394
 -25765087.38748 -20045412.46146  20807156.1564                   20807151.4654
 11  7 26  2 59  0.0000000  0  7G10G12G25G05G29G04G02
 -18094802.90247 -13631801.92645  21459998.4064                   21459996.5004
 -18429820.78548 -14331257.85246  20726966.3524                   20726963.3834
  -3499680.69147  -2696471.78145  22259103.7894                   22259103.8984
 -16491212.52048 -12821678.62546  20562951.5234                   20562949.2464
  11093746.02046   8652297.85943  24224421.8284                   24224422.1134
 -20657639.99247 -16062834.61343  23300600.1724                   23300599.0004
 -25775550.80948 -20053565.76246  20805165.0004                   20805160.2814
 11  7 26  2 59 30.0000000  0  7G10G12G25G05G29G04G02
 -18068917.00847 -13611631.08245  21464924.5164                   21464922.1844
 -18461200.15648 -14355709.28546  20720995.0864                   20720991.8204
  -3596793.64147  -2772144.14846  22240623.9064                   22240623.9064
 -16570029.75448 -12883094.60946  20547953.1804                   20547950.3754
  10976434.85546   8560886.58243  24202098.6564                   24202097.9494
 -20610102.17247 -16025792.12144  23309646.9614                   23309645.0634
 -25785832.30948 -20061577.30546  20803208.2664                   20803203.9344
 11  7 26  3  0  0.0000000  0  7G10G12G25G05G29G04G02
 -18042515.03147 -13591058.10545  21469948.8284                   21469946.5044
 -18491986.49248 -14379698.62146  20715136.7034                   20715133.9024
  -3693428.20747  -2847443.73845  22222234.9614                   22222234.7274
 -16648294.62548 -12944080.19146  20533059.9304                   20533057.2074
  10859078.97347   8469440.44544  24179766.3134                   24179766.3954
 -20562566.89547 -15988751.60944  23318692.4304                   23318690.4454
 -25795930.66448 -20069446.14146  20801286.8834                   20801282.3134
 11  7 26  3  0 30.0000000  0  7G10G12G25G05G29G04G02
 -18015603.71147 -13570088.22745  21475070.1334                   21475067.4454
 -18522184.27348 -14403229.34046  20709390.4694                   20709386.7384
  -3789586.53547  -2922372.21945  22203936.1414                   22203936.0904
 -16726010.39848 -13004637.90646  20518270.7194                   20518268.0944
  10741674.56347   8377956.50444  24157425.4064                   24157425.1994
 -20515039.25447 -15951717.05944  23327736.7504                   23327734.7274
 -25805851.00048 -20077176.25446  20799398.8284                   20799394.2234
 11  7 26  3  1  0.0000000  0  7G10G12G25G05G29G04G02
 -17988185.91847 -13548723.68445  21480287.1024                   21480284.6724
 -18551794.33648 -14426302.09846  20703755.7274                   20703752.6294
  -3885267.33247  -2996928.61345  22185728.8054                   22185729.2344
 -16803176.62948 -13064767.39146  20503586.8284                   20503583.9654
  10624221.73847   8286434.81644  24135074.7194                   24135073.8164
 -20467521.05147 -15914689.85944  23336779.0164                   23336776.8054
 -25815594.99248 -20084768.94946  20797544.6254                   20797540.2074
 11  7 26  3  1 30.0000000  0  7G10G12G25G05G29G04G02
 -17960262.78147 -13526965.37945  21485600.9384                   21485598.5744
 -18580815.28148 -14448915.79346  20698233.2034                   20698230.5314
  -3980467.35247  -3071110.38746  22167612.8834                   22167613.4264
 -16879791.17648 -13124467.00846  20489007.6334                   20489004.9964
  10506722.50047   8194877.02044  24112715.1334                   24112713.7384
 -20420011.86747 -15877669.66844  23345819.4614                   23345817.6054
 -25825162.84448 -20092224.39546  20795723.7584                   20795719.4304
 11  7 26  3  2  0.0000000  0  7G10G12G25G05G29G04G02
 -17931835.98047 -13504814.60245  21491009.9844                   21491007.5084
 -18609246.62548 -14471070.06646  20692822.5474                   20692820.1524
  -4075183.51648  -3144915.14146  22149589.0554                   22149589.3984
 -16955851.78148 -13183734.98046  20474533.5784                   20474530.8874
  10389178.24646   8103284.14543  24090347.1954                   24090346.2854
 -20372511.82047 -15840656.59444  23354858.4064                   23354857.1564
 -25834554.09448 -20099542.23046  20793936.9924                   20793932.4304
 11  7 26  3  2 30.0000000  0  7G10G12G25G05G29G04G02
 -17902907.36347 -13482272.80545  21496515.0704                   21496512.7344
 -18637087.92648 -14492764.56246  20687524.7894                   20687522.1374
  -4169413.30148  -3218340.89845  22131657.5944                   22131657.5084
 -17031356.66048 -13242569.91846  20460165.6094                   20460162.4454
  10271590.62146   8011657.49243  24067969.9064                   24067971.2274
 -20325021.22747 -15803650.88744  23363894.9304                   23363894.0904
 -25843769.35548 -20106722.92246  20792183.3134                   20792178.8714
 11  7 26  3  3  0.0000000  0  7G10G12G25G05G29G04G02
 -17873483.02747 -13459344.74645  21502114.2814                   21502112.1134
 -18664343.76248 -14514002.85246  20682337.7664                   20682335.4144
  -4263158.40648  -3291388.98845  22113818.4064                   22113818.4454
 -17106308.42248 -13300973.84446  20445902.5314                   20445899.7424
  10153956.63746   7919994.75443  24045585.4534                   24045585.7814
 -20277544.52746 -15766656.02044  23372929.8984                   23372928.6844
 -25852813.24648 -20113770.07846  20790462.4144                   20790457.3164
 11  7 26  3  3 30.0000000  0  7G10G12G25G05G29G04G02
 -17843562.69147 -13436030.19945  21507807.9224                   21507806.1024
 -18691010.59848 -14534782.18046  20677263.6254                   20677261.0634
  -4356413.86748  -3364055.54746  22096072.0164                   22096072.1054
 -17180703.11748 -13358943.70746  20431745.4694                   20431742.6174
  10036280.08646   7828298.86743  24023191.8364                   24023192.3134
 -20230079.58647 -15729670.30544  23381962.2274                   23381960.9144
 -25861683.80948 -20120682.17646  20788774.3524                   20788769.8284
 11  7 26  3  4  0.0000000  0  7G10G12G25G05G29G04G02
 -17813147.60547 -13412330.11745  21513595.8054                   21513593.6094
 -18717087.69148 -14555101.96146  20672301.2274                   20672298.6254
  -4449176.60948  -3436338.17246  22078419.9694                   22078419.8164
 -17254538.53548 -13416477.76646  20417695.0944                   20417692.6094
   9918562.77046   7736571.25043  24000791.0314                   24000790.9654
 -20182626.32046 -15692693.67644  23390992.2664                   23390990.5824
 -25870381.11348 -20127459.27346  20787119.3914                   20787114.8524
 11  7 26  3  4 30.0000000  0  7G10G12G25G05G29G04G02
 -17782243.79347 -13388249.20745  21519476.5234                   21519474.2854
 -18742578.87548 -14574965.19946  20667450.3444                   20667447.5204
  -4541447.99247  -3508237.91846  22060861.0704                   22060861.2544
 -17327816.92648 -13473577.76646  20403750.5394                   20403747.7304
   9800802.28546   7644809.97344  23978382.5944                   23978381.8594
 -20135189.09047 -15655729.54744  23400019.6644                   23400017.3874
 -25878909.50448 -20134104.75046  20785496.2584                   20785491.7504
 11  7 26  3  5  0.0000000  0  7G10G12G25G05G29G04G02
 -17750847.10547 -13363784.24645  21525450.9304                   21525448.9224
 -18767478.09848 -14594367.16846  20662712.4844                   20662709.5704
  -4633219.39548  -3579748.08646  22043397.8914                   22043397.7664
 -17400530.46548 -13530237.63347  20389913.6334                   20389910.6604
   9683005.94547   7553020.81644  23955966.5004                   23955965.3674
 -20087761.78547 -15618773.17244  23409044.4614                   23409043.4924
 -25887262.98848 -20140613.93746  20783906.7734                   20783902.2464
 11  7 26  3  5 30.0000000  0  7G10G12G25G05G29G04G02
 -17718967.48847 -13338942.97345  21531517.6024                   21531515.3794
 -18791793.12148 -14613313.90246  20658085.1724                   20658082.3444
  -4724496.53548  -3650873.09446  22026028.2974                   22026028.6214
 -17472685.95348 -13586462.65246  20376182.9694                   20376180.0354
   9565166.88346   7461198.37544  23933541.9924                   23933541.6844
 -20040353.02047 -15581831.23444  23418065.4064                   23418064.4884
 -25895450.30148 -20146993.63346  20782348.5084                   20782344.0704
 11  7 26  3  6  0.0000000  0  7G10G12G25G05G29G04G02
 -17686607.27347 -13313727.20345  21537675.6414                   21537673.0634
 -18815523.95748 -14631805.44546  20653569.3204                   20653566.4844
  -4815277.31647  -3721611.32846  22008753.9064                   22008753.3324
 -17544282.43748 -13642252.07846  20362558.3834                   20362555.9774
   9447286.27346   7369343.55544  23911110.1024                   23911109.8134
 -19992963.45347 -15544904.23844  23427083.8524                   23427082.7664
 -25903472.23048 -20153244.45746  20780822.3134                   20780817.3984
 11  7 26  3  6 30.0000000  0  7G10G12G25G05G29G04G02
 -17653764.30547 -13288135.26645  21543925.5314                   21543922.9304
 -18838666.41448 -14649838.50046  20649165.5784                   20649162.3484
  -4905555.19148  -3791957.69546  21991574.2194                   21991573.7384
 -17615314.08248 -13697601.37546  20349041.6564                   20349039.0474
   9329369.46146   7277460.53144  23888671.4454                   23888670.9184
 -19945589.21147 -15507989.20344  23436099.1644                   23436097.3284
 -25911324.96148 -20159363.44146  20779327.9694                   20779323.1334
 11  7 26  3  7  0.0000000  0  7G10G12G25G05G29G04G02
 -17620443.30547 -13262170.82845  21550266.2274                   21550263.6294
 -18861223.04348 -14667415.08246  20644872.9694                   20644869.8524
  -4995330.28947  -3861912.26646  21974490.7734                   21974490.5944
 -17685782.14848 -13752511.51646  20335632.1254                   20335629.4964
   9211415.33246   7185548.42644  23866224.6414                   23866224.7114
 -19898233.20746 -15471088.38344  23445109.9774                   23445108.5234
 -25919011.56248 -20165352.99246  20777865.2974                   20777860.6094
 11  7 26  3  7 30.0000000  0  7G10G12G25G05G29G04G02
 -17586649.51647 -13235837.99645  21556697.1954                   21556694.3364
 -18883197.16048 -14684537.75846  20640691.6564                   20640688.2934
  -5084603.39148  -3931475.68446  21957502.4844                   21957501.7504
 -17755688.47348 -13806983.93747  20322329.2344                   20322326.3364
   9093422.12146   7093605.84443  23843771.0234                   23843770.5474
 -19850898.83247 -15434204.43744  23454118.0314                   23454116.4654
 -25926535.55948 -20171215.83246  20776433.4064                   20776428.5474
 11  7 26  3  8  0.0000000  0  7G10G12G25G05G29G04G02
 -15976963.39847 -11981537.10545  21863010.0554                   21863007.6054
 -17329164.87948 -13473603.50846  20936414.2274                   20936410.5314
  -3597946.49248  -2773041.68746  22240403.9614                   22240403.7734
 -16249606.56648 -12633413.59046  20608927.1094                   20608924.1604
  10550817.68846   8229238.95743  24121104.5084                   24121103.5664
 -18228165.29746 -14169736.72344  23762913.3284                   23762912.4574
 -24358474.31648 -18949349.92646  21074825.6954                   21074820.7894
 11  7 26  3  8 30.0000000  0  7G10G12G25G05G29G04G02
 -15942222.13747 -11954465.96945  21869621.4224                   21869618.2034
 -17349965.08648 -13489811.45346  20932455.7424                   20932452.7814
  -3686200.60248  -2841811.06646  22223609.3834                   22223609.3284
 -16318376.94548 -12687000.86347  20595840.4694                   20595837.8324
  10432758.00046   8137244.61744  24098638.7664                   24098638.0394
 -18180867.08647 -14132880.94943  23771913.9304                   23771912.6174
 -24365666.45348 -18954954.16846  21073456.7894                   21073452.1804
 11  7 26  3  9  0.0000000  0  7G10G12G25G05G29G04G02
 -15907015.19147 -11927031.96545  21876321.0234                   21876318.0204
 -17370183.76648 -13505566.26246  20928608.4614                   20928605.3754
  -3773946.57848  -2910184.50046  22206911.4694                   22206911.2074
 -16386582.27748 -12740147.84047  20582861.3524                   20582858.8674
  10314662.08646   8045221.96943  24076165.1884                   24076163.8014
 -18133592.37947 -14096043.48044  23780910.1484                   23780908.4414
 -24372697.81248 -18960433.12946  21072118.7734                   21072114.2114
 11  7 26  3  9 30.0000000  0  7G10G12G25G05G29G04G02
 -15871345.73047 -11899237.55945  21883108.1334                   21883105.8094
 -17389821.44948 -13520868.35246  20924871.3754                   20924868.7624
  -3861182.94148  -2978160.83246  22190311.2424                   22190311.1254
 -16454222.00448 -12792854.08647  20569990.1724                   20569987.5204
  10196531.05146   7953171.98044  24053685.8284                   24053684.2424
 -18086342.04747 -14059225.00844  23789901.5784                   23789899.9224
 -24379570.08648 -18965788.13746  21070811.0234                   21070806.3984
 11  7 26  3 10  0.0000000  0  7G10G12G25G05G29G04G02
 -15835212.00447 -11871081.38745  21889984.1884                   21889981.8524
 -17408874.35248 -13535714.77046  20921245.8364                   20921242.8794
  -3947903.78148  -3045735.46546  22173808.7034                   22173808.1604
 -16521291.48048 -12845115.98447  20557227.1884                   20557224.9264
  10078369.68846   7861098.35544  24031200.5234                   24031199.0394
 -18039112.68047 -14022422.86344  23798889.3984                   23798886.9344
 -24386280.04348 -18971016.66846  21069534.1644                   21069529.3404
 11  7 26  3 10 30.0000000  0  7G10G12G25G05G29G04G02
 -15798619.63747 -11842567.82045  21896947.5554                   21896945.0274
 -17427346.41448 -13550108.59046  20917730.7424                   20917727.9454
  -4034110.27348  -3112909.30946  22157404.1884                   22157403.3204
 -16587792.59448 -12896935.00447  20544572.5084                   20544569.6804
   9960175.91446   7768999.46544  24008708.3754                   24008708.0864
 -17991908.06247 -13985640.00843  23807871.7814                   23807869.9304
 -24392831.24248 -18976121.49646  21068287.3674                   21068282.4184
 11  7 26  3 11  0.0000000  0  7G10G12G25G05G29G04G02
 -15761573.88747 -11813700.98445  21903997.3914                   21903994.5744
 -17445240.69948 -13564052.19146  20914325.7344                   20914322.8284
  -4119803.19948  -3179682.97346  22141097.4774                   22141097.1214
 -16653727.14148 -12948312.54347  20532025.4844                   20532022.8754
   9841948.34046   7676874.25044  23986210.5394                   23986209.8164
 -17944731.34447 -13948878.91443  23816849.2584                   23816847.0784
 -24399227.12948 -18981105.30146  21067070.3284                   21067065.6724
 11  7 26  3 11 30.0000000  0  7G10G12G25G05G29G04G02
 -15724073.31247 -11784479.73845  21911133.4844                   21911130.7034
 -17462553.34848 -13577542.57446  20911031.0944                   20911028.1214
  -4204976.62948  -3246051.84446  22124889.5004                   22124889.4414
 -16719090.47748 -12999244.98847  20519587.4924                   20519584.6684
   9723691.93446   7584726.53943  23963706.6954                   23963705.7464
 -17897579.22347 -13912136.95743  23825821.4694                   23825820.1804
 -24405464.55548 -18985965.63346  21065883.5084                   21065878.7854
 11  7 26  3 12  0.0000000  0  7G10G12G25G05G29G04G02
 -15686118.63747 -11754904.64545  21918355.4534                   21918353.2504
 -17479283.54348 -13590579.10546  20907847.1564                   20907844.6644
  -4289627.15648  -3312013.24646  22108780.9774                   22108780.8794
 -16783879.88348 -13049730.21147  20507258.1174                   20507255.5124
   9605409.62146   7492558.64844  23941198.4144                   23941197.5234
 -17850450.62947 -13875413.34443  23834790.2584                   23834788.2344
 -24411542.46948 -18990701.66046  21064726.9924                   21064722.7114
 11  7 26  3 12 30.0000000  0  7G10G12G25G05G29G04G02
 -15647713.90647 -11724978.87945  21925664.5084                   21925661.0554
 -17495433.36348 -13603163.37546  20904774.1884                   20904771.4614
  -4373754.33248  -3377566.85546  22092771.9614                   22092772.3674
 -16848096.12148 -13099768.80947  20495038.3594                   20495035.2584
   9487100.75046   7400370.02044  23918685.0314                   23918683.7504
 -17803347.44946 -13838709.53543  23843753.9144                   23843751.8554
 -24417463.33648 -18995315.31646  21063600.0164                   21063595.3554
 11  7 26  3 13  0.0000000  0  7G10G12G25G05G29G04G02
 -15608865.28547 -11694707.21945  21933056.2194                   21933053.8524
 -17511007.03948 -13615298.71546  20901811.0474                   20901807.8164
  -4457360.06648  -3442714.14146  22076862.3674                   22076862.8364
 -16911742.48848 -13149363.35247  20482926.7894                   20482924.2464
   9368762.69546   7308158.63744  23896165.4534                   23896164.7234
 -17756274.15246 -13802029.03143  23852711.0944                   23852709.5044
 -24423231.23048 -18999809.78146  21062502.2424                   21062497.6134
 11  7 26  3 13 30.0000000  0  7G10G12G25G05G29G04G02
 -15569574.29347 -11664090.84045  21940533.2194                   21940530.8834
 -17526003.93448 -13626984.60246  20898957.2194                   20898953.9024
  -4540441.29748  -3507452.71546  22061052.7034                   22061052.6454
 -16974816.41448 -13198511.84047  20470923.8674                   20470921.2544
   9250398.18846   7215926.66044  23873641.6174                   23873639.6054
 -17709229.78946 -13765371.05143  23861663.2274                   23861661.7384
 -24428845.71548 -19004184.69146  21061434.0554                   21061429.6414
 11  7 26  3 14  0.0000000  0  7G10G12G25G05G29G04G02
 -15529840.54747 -11633129.48045  21948094.4534                   21948091.9884
 -17540421.57448 -13638219.12146  20896213.3054                   20896210.2384
  -4622993.50048  -3571779.07846  22045343.4144                   22045343.2734
 -17037314.77748 -13247211.83247  20459031.1644                   20459028.3594
   9132010.89547   7123676.85244  23851113.6724                   23851111.1844
 -17662212.08646 -13728733.88343  23870610.2424                   23870608.5124
 -24434304.83648 -19008438.53146  21060395.4304                   21060390.5944
 11  7 26  3 14 30.0000000  0  7G10G12G25G05G29G04G02
 -15489667.19147 -11601825.56245  21955739.3914                   21955736.6804
 -17554261.90648 -13649003.78146  20893579.9064                   20893576.0274
  -4705015.61748  -3635692.37946  22029734.9304                   22029734.9964
 -17099237.48048 -13295463.26647  20447247.6414                   20447244.9884
   9013601.21947   7031409.60944  23828580.7814                   23828579.4774
 -17615222.56247 -13692118.69543  23879552.9144                   23879550.7384
 -24439609.97348 -19012572.37146  21059385.9144                   21059381.3094
 11  7 26  3 15  0.0000000  0  7G10G12G25G05G29G04G02
 -15449055.41847 -11570180.01245  21963467.3594                   21963465.1604
 -17567523.95348 -13659337.82846  20891055.9534                   20891052.5124
  -4786504.17248  -3699189.91446  22014228.3054                   22014228.3404
 -17160582.14148 -13343264.26247  20435574.1094                   20435571.4494
   8895172.06646   6939127.20344  23806044.6804                   23806043.1844
 -17568259.93047 -13655524.43043  23888489.3364                   23888487.3594
 -24444760.21548 -19016585.52046  21058406.0554                   21058401.0164
 11  7 26  3 15 30.0000000  0  7G10G12G25G05G29G04G02
 -15408010.79347 -11538197.18445  21971277.6724                   21971275.1644
 -17580211.41448 -13669224.16046  20888641.8754                   20888638.3954
  -4867460.78548  -3762272.93046  21998822.5474                   21998822.7734
 -17221351.37148 -13390616.87547  20424010.0474                   20424006.9734
   8776721.15246   6846827.86344  23783503.0394                   23783502.8244
 -17521327.87147 -13618953.96543  23897420.3984                   23897418.4494
 -24449759.34848 -19020480.92246  21057454.7034                   21057449.9384
 11  7 26  3 16  0.0000000  0  7G10G12G25G05G29G04G02
 -15366535.57447 -11505878.82845  21979170.2504                   21979167.8164
 -17592324.38748 -13678662.82846  20886336.5704                   20886333.3634
  -4947883.07048  -3824939.61346  21983518.2974                   21983518.2774
 -17281543.90248 -13437520.12147  20412555.8594                   20412553.1414
   8658250.46947   6754513.12944  23760959.7034                   23760958.7854
 -17474426.36746 -13582407.35543  23906344.6254                   23906343.7074
 -24454607.44148 -19024258.62146  21056531.9064                   21056526.9104
 11  7 26  3 16 30.0000000  0  7G10G12G25G05G29G04G02
 -15324634.25047 -11473228.43445  21987143.9384                   21987141.3914
 -17603865.70748 -13687656.05546  20884139.9694                   20884137.3404
  -5027771.45348  -3887190.28146  21968316.6484                   21968316.5824
 -17341161.52048 -13483975.37547  20401210.9384                   20401207.7624
   8539759.20347   6662182.34044  23738411.3754                   23738410.5354
 -17427558.02046 -13545886.58243  23915263.2504                   23915262.5004
 -24459307.37148 -19027920.86346  21055637.5864                   21055632.3524
 11  7 26  3 17  0.0000000  0  7G10G12G25G05G29G04G02
 -15282307.98447 -11440246.92245  21995198.3914                   21995195.8014
 -17614834.54348 -13696203.19946  20882052.9774                   20882050.1414
  -5107122.52748  -3949022.26646  21953216.4224                   21953216.0984
 -17400201.29348 -13529980.36347  20389975.8594                   20389972.9534
   8421250.00847   6569837.58244  23715859.5784                   23715858.6054
 -17380721.45746 -13509390.58243  23924176.7894                   23924174.7974
 -24463858.13348 -19031466.88346  21054771.6564                   21054766.4534
 11  7 26  3 17 30.0000000  0  7G10G12G25G05G29G04G02
 -15239552.26647 -11406930.75445  22003334.3364                   22003332.5234
 -17625225.02348 -13704299.66446  20880075.7734                   20880073.1604
  -5185927.85248  -4010428.98046  21938220.3204                   21938219.9414
 -17458656.24648 -13575529.64847  20378852.0554                   20378849.5084
   8302731.09047   6477485.28144  23693306.4304                   23693304.8134
 -17333910.29746 -13472914.34043  23933084.1254                   23933082.7774
 -24468253.32048 -19034891.66446  21053934.8284                   21053930.2304
 11  7 26  3 18  0.0000000  0  7G10G12G25G05G29G04G02
 -15196380.53947 -11373290.43445  22011549.6884                   22011547.3244
 -17635048.77748 -13711954.52746  20878206.2734                   20878203.5634
  -5264196.69148  -4071417.66446  21923326.4224                   21923325.7894
 -17516536.80548 -13620631.35947  20367837.8594                   20367835.5514
   8184192.78947   6385117.85544  23670749.0234                   23670747.4454
 -17287136.02746 -13436466.84843  23941985.2194                   23941983.4024
 -24472504.71148 -19038204.39146  21053126.0634                   21053121.3094
 11  7 26  3 18 30.0000000  0  7G10G12G25G05G29G04G02
 -15152791.27347 -11339324.75045  22019844.5864                   22019842.0474
 -17644302.18048 -13719164.95746  20876445.4844                   20876442.3404
  -5341923.20748  -4131983.76246  21908535.1024                   21908534.7934
 -17573838.30948 -13665281.84447  20356933.5704                   20356930.8164
   8065640.43447   6292739.46944  23648188.9454                   23648187.3054
 -17240394.73446 -13400045.07843  23950879.5944                   23950878.1524
 -24476608.52748 -19041402.14146  21052345.3204                   21052340.2234
 11  7 26  3 19  0.0000000  0  7G10G12G25G05G29G04G02
 -15108784.54747 -11305033.77045  22028218.3914                   22028215.9344
 -17652983.68048 -13725929.75846  20874793.3364                   20874790.6684
  -5419103.22748  -4192124.02346  21893848.4774                   21893847.7854
 -17630557.53148 -13709478.61347  20346140.2664                   20346137.3954
   7947078.00446   6200353.22744  23625627.4064                   23625626.1524
 -17193684.33247 -13363647.34044  23959768.8204                   23959766.5634
 -24480563.02748 -19044483.53546  21051592.5554                   21051587.7584
 11  7 26  3 19 30.0000000  0  7G10G12G25G05G29G04G02
 -15064369.76248 -11270424.82845  22036670.5704                   22036668.0204
 -17661101.39148 -13732255.23446  20873248.7114                   20873245.6454
  -5495742.01648  -4251842.55146  21879264.8524                   21879263.7274
 -17686700.79748 -13753226.57847  20335456.8364                   20335453.6214
   7828499.87546   6107954.79344  23603062.9224                   23603061.7664
 -17147012.13347 -13327279.37544  23968650.4454                   23968647.9344
 -24484375.57048 -19047454.32446  21050866.7274                   21050862.5354
 11  7 26  3 20  0.0000000  0  7G10G12G25G05G29G04G02
 -15019545.53147 -11235496.84045  22045200.0394                   22045197.8364
 -17668651.78548 -13738138.65246  20871812.1954                   20871808.6374
  -5571833.94548  -4311134.96146  21864784.6564                   21864784.2894
 -17742263.73048 -13796522.35547  20324883.3134                   20324880.4844
   7709911.30146   6015548.21144  23580496.3524                   23580494.0554
 -17100374.35946 -13290938.25043  23977524.3594                   23977522.8444
 -24488042.71948 -19050311.81246  21050168.8914                   21050164.0944
 11  7 26  3 20 30.0000000  0  7G10G12G25G05G29G04G02
 -14974317.80547 -11200254.43745  22053806.9774                   22053804.7194
 -17675638.84048 -13743583.10246  20870482.0944                   20870479.3164
  -5647380.46548  -4370002.37546  21850408.5314                   21850408.0514
 -17797249.00848 -13839367.99647  20314419.9774                   20314417.0204
   7591310.67647   5923132.21944  23557926.8754                   23557925.6724
 -17053774.44546 -13254626.62543  23986392.7734                   23986390.1884
 -24491568.02748 -19053058.78546  21049498.3054                   21049493.2544
 11  7 26  3 21  0.0000000  0  7G10G12G25G05G29G04G02
 -14928686.59847 -11164697.63345  22062490.2664                   22062487.6414
 -17682061.01648 -13748587.37546  20869260.2584                   20869257.0944
  -5722377.52048  -4428441.63346  21836137.4224                   21836136.7114
 -17851653.19148 -13881760.84047  20304067.2734                   20304064.3984
   7472701.72347   5830709.75045  23535356.6094                   23535355.5904
 -17007210.19146 -13218342.76643  23995253.3204                   23995251.1484
 -24494949.77748 -19055693.89846  21048854.6414                   21048849.7774
 11  7 26  3 21 30.0000000  0  7G10G12G25G05G29G04G02
 -14882655.47347 -11128829.21145  22071249.1884                   22071246.9384
 -17687919.78548 -13753152.62946  20868145.3444                   20868142.1134
  -5796824.44148  -4486452.21146  21821970.6954                   21821969.8134
 -17905476.97748 -13923701.43047  20293824.9224                   20293822.1024
   7354085.15647   5738281.34044  23512784.1174                   23512783.1484
 -16960682.88346 -13182087.69943  24004107.1884                   24004104.8984
 -24498189.23848 -19058218.13746  21048238.0084                   21048233.1994
 11  7 26  3 22  0.0000000  0  7G10G12G25G05G29G04G02
 -14836224.82047 -11092649.46945  22080085.2114                   22080082.3834
 -17693214.67248 -13757278.50846  20867137.6804                   20867134.5044
  -5870717.80548  -4544031.43746  21807908.8054                   21807908.9184
 -17958718.32448 -13965188.17247  20283693.2974                   20283690.2274
   7235463.92647   5645849.31344  23490211.6094                   23490210.2234
 -16914190.85547 -13145860.16443  24012954.2114                   24012953.0044
 -24501284.93748 -19060630.35546  21047649.1254                   21047644.2504
 11  7 26  3 22 30.0000000  0  7G10G12G25G05G29G04G02
 -14789400.67647 -11056163.10545  22088995.4304                   22088993.1294
 -17697949.93048 -13760968.31246  20866236.3834                   20866233.4614
  -5944059.36748  -4601180.69146  21793952.5784                   21793952.0394
 -18011380.03948 -14006223.24247  20273672.2734                   20273669.2344
   7116836.09447   5553412.11344  23467637.0234                   23467635.4534
 -16867737.80546 -13109662.98443  24021793.4924                   24021792.4614
 -24504240.77748 -19062933.58646  21047086.6094                   21047081.5824
 11  7 26  3 23  0.0000000  0  7G10G12G25G05G29G04G02
 -14742179.90247 -11019367.69545  22097980.8054                   22097978.5274
 -17702120.75847 -13764218.30146  20865442.6724                   20865439.3834
  -6016841.84848  -4657894.29346  21780102.7974                   21780102.1254
 -18063455.98048 -14046801.87147  20263762.3364                   20263759.4144
   6998209.10247   5460975.57844  23445062.9384                   23445061.9534
 -16821318.28946 -13073491.92243  24030627.5084                   24030625.8404
 -24507051.30148 -19065123.59446  21046551.3754                   21046547.0594
 11  7 26  3 23 30.0000000  0  7G10G12G25G05G29G04G02
 -14694571.28147 -10982270.06245  22107040.8134                   22107038.2664
 -17705734.07848 -13767033.87146  20864755.1804                   20864751.8714
  -6089069.99648  -4714175.93446  21766357.8594                   21766357.6294
 -18114952.14148 -14086928.72747  20253962.8524                   20253959.8244
   6879577.77346   5368535.69944  23422488.3204                   23422486.9844
 -16774938.63746 -13037351.94943  24039453.3054                   24039451.6174
 -24509723.60248 -19067205.90246  21046043.2034                   21046038.8874
 11  7 26  3 24  0.0000000  0  7G10G12G25G05G29G04G02
 -14646578.99647 -10944873.45745  22116173.4454                   22116171.1484
 -17708793.14148 -13769417.55946  20864172.8524                   20864169.4804
  -6160744.03948  -4770025.78946  21752718.8524                   21752718.3204
 -18165869.59848 -14126604.64147  20244273.7344                   20244270.7424
   6760942.40247   5276092.62544  23399913.0634                   23399910.6024
 -16728600.92246 -13001244.60243  24048270.5474                   24048269.1954
 -24512259.67248 -19069182.03946  21045560.8754                   21045556.1884
 11  7 26  3 24 30.0000000  0  7G10G12G25G05G29G04G02
 -14598204.02347 -10907178.68445  22125378.9454                   22125376.2894
 -17711297.04748 -13771368.66446  20863696.6414                   20863693.0394
  -6231860.99248  -4825441.57046  21739185.8284                   21739184.9694
 -18216206.71148 -14165828.36347  20234694.3984                   20234691.7344
   6642305.89547   5183648.65644  23377337.2034                   23377335.1644
 -16682303.68446 -12965168.83243  24057080.7664                   24057079.1024
 -24514658.35548 -19071051.14846  21045104.0944                   21045099.5594
 11  7 26  3 25  0.0000000  0  7G10G12G25G05G29G04G02
 -14549444.84047 -10869184.49645  22134657.4224                   22134654.7734
 -17713242.50448 -13772884.59846  20863326.5164                   20863323.2624
  -6302414.86748  -4880418.54346  21725759.7274                   21725759.3014
 -18265958.17648 -14204595.70747  20225227.2194                   20225224.2344
   6523673.89547   5091208.24644  23354761.7034                   23354760.6134
 -16636042.63346 -12929121.26243  24065883.3284                   24065882.3754
 -24516915.79348 -19072810.17246  21044674.6414                   21044669.7854
 11  7 26  3 25 30.0000000  0  7G10G12G25G05G29G04G02
 -14500311.78547 -10830898.98445  22144007.2034                   22144004.5744
 -17714638.64548 -13773972.49646  20863060.8524                   20863057.8164
  -6372412.40248  -4934962.00846  21712439.6174                   21712439.0124
 -18315132.57448 -14242913.38747  20215869.8134                   20215867.3054
   6405039.96947   4998766.31644  23332186.6024                   23332185.5164
 -16589826.15746 -12893108.42543  24074678.7274                   24074676.7664
 -24519040.33248 -19074465.65246  21044270.0474                   21044265.3364
 11  7 26  3 26  0.0000000  0  7G10G12G25G05G29G04G02
 -14450803.18047 -10792320.84045  22153427.7274                   22153425.5744
 -17715482.11348 -13774629.75046  20862900.2424                   20862897.0124
  -6441847.68448  -4989067.37146  21699226.1484                   21699226.0904
 -18363724.96548 -14280777.56247  20206622.8834                   20206619.9884
   6286409.92646   4906327.43044  23309612.4224                   23309609.8834
 -16543649.97346 -12857126.98043  24083465.5474                   24083463.6134
 -24521027.94548 -19076014.42246  21043891.9144                   21043887.4964
 11  7 26  3 26 30.0000000  0  7G10G12G25G05G29G04G02
 -14400922.90647 -10753453.07045  22162920.2814                   22162917.8754
 -17715775.46148 -13774858.33646  20862844.2114                   20862841.3524
  -6510720.75848  -5042734.64146  21686120.1174                   21686119.7734
 -18411736.23048 -14318188.91047  20197486.6334                   20197483.5594
   6167784.24646   4813891.94144  23287037.8834                   23287036.7544
 -16497515.69946 -12821178.21943  24092244.7344                   24092243.2504
 -24522880.61348 -19077458.04346  21043539.2974                   21043534.3984
 11  7 26  3 27  0.0000000  0  7G10G12G25G05G29G04G02
 -14350672.57047 -10714296.95345  22172482.3754                   22172480.0044
 -17715518.71548 -13774658.27346  20862892.8834                   20862890.1484
  -6579029.13348  -5095961.91046  21673121.3834                   21673120.6804
 -18459165.21548 -14355146.54347  20188461.2344                   20188458.2934
   6049165.16446   4721461.58244  23264465.8364                   23264463.9654
 -16451422.33646 -12785261.28943  24101016.6724                   24101014.5474
 -24524597.41447 -19078795.80146  21043212.9224                   21043207.8874
 11  7 26  3 27 30.0000000  0  7G10G12G25G05G29G04G02
 -14300054.89547 -10674854.60245  22182114.7274                   22182112.1334
 -17714713.20748 -13774030.59446  20863046.4224                   20863043.1254
  -6646771.77348  -5148748.33646  21660230.5784                   21660230.1724
 -18506011.84448 -14391650.38347  20179546.6024                   20179543.7194
   5930554.17247   4629037.53544  23241894.3984                   23241892.6804
 -16405370.46947 -12749376.71543  24109779.5704                   24109777.8284
 -24526178.94147 -19080028.13746  21042911.8984                   21042907.1254
 11  7 26  3 28  0.0000000  0  7G10G12G25G05G29G04G02
 -14249072.00847 -10635127.67645  22191816.7114                   22191813.7734
 -17713359.37947 -13772975.65646  20863303.7424                   20863301.0204
  -6713946.80548  -5201092.47746  21647447.6954                   21647446.7034
 -18552275.79748 -14427700.18747  20170742.5784                   20170739.9064
   5811953.30547   4536621.33644  23219324.9924                   23219323.1954
 -16359359.36346 -12713523.90243  24118534.7344                   24118533.2034
 -24527625.30148 -19081155.14846  21042636.6094                   21042632.0354
 11  7 26  3 28 30.0000000  0  7G10G12G25G05G29G04G02
 -14197730.22347 -10595121.08245  22201586.4224                   22201583.4414
 -17711462.64547 -13771497.68046  20863664.8984                   20863662.1054
  -6780556.72748  -5252996.28146  21634772.1804                   21634771.6844
 -18597960.49248 -14463298.62547  20162049.1174                   20162046.3754
   5693360.38347   4444211.34444  23196758.5634                   23196756.5864
 -16313393.25846 -12677706.16443  24127281.9614                   24127280.4144
 -24528940.56248 -19082180.00846  21042386.3134                   21042381.3634
 11  7 26  3 29  0.0000000  0  7G10G12G25G05G29G04G02
 -14146032.23447 -10554836.92645  22211423.9844                   22211421.3714
 -17709024.55548 -13769597.87146  20864129.1254                   20864126.0164
  -6846600.43448  -5304458.88346  21622204.6024                   21622203.9384
 -18643066.07848 -14498445.80947  20153465.9304                   20153462.9804
   5574776.61346   4351808.50844  23174192.1724                   23174190.3134
 -16267472.47746 -12641923.78143  24136021.3444                   24136019.0784
 -24530125.13348 -19083103.02746  21042160.6174                   21042155.9224
 11  7 26  3 29 30.0000000  0  7G10G12G25G05G29G04G02
 -14093982.57447 -10514278.74245  22221328.6094                   22221326.6214
 -17706047.44148 -13767278.03946  20864695.2734                   20864692.3444
  -6912078.53548  -5355480.75846  21609744.5394                   21609744.2344
 -18687594.32848 -14533143.11347  20144992.7424                   20144989.3134
   5456201.85547   4259412.66444  23151627.8444                   23151626.2504
 -16221598.90646 -12606178.11743  24144750.4304                   24144748.3874
 -24531181.59448 -19083926.23846  21041959.1484                   21041954.8204
 11  7 26  3 30  0.0000000  0  7G10G12G25G05G29G04G02
 -14041579.53147 -10473445.19145  22231301.0944                   22231298.5164
 -17702528.96148 -13764536.35246  20865365.1334                   20865362.2114
  -6976985.24248  -5406057.41446  21597392.6564                   21597392.6994
 -18731540.63748 -14567386.96947  20136629.8284                   20136627.0864
   5337642.37546   4167028.71944  23129067.0234                   23129064.6684
 -16175767.94146 -12570465.69543  24153471.8054                   24153469.8284
 -24532105.55548 -19084646.19946  21041783.7894                   21041778.8204
